[[{"header":{"parameterUnit":"m.s-1","parameterCategory":1,"la1":31.0,"la2":29.5877,"lo1":-88.7671,"lo2":-86.6584,"dy":0.0162,"dx":0.0185,"nx":115,"ny":88,"refTime":"2023-08-22T12:00:00:Z","depth":0,"parameterNumber":2,"parameterNumberName":"U-component_of_WINDS"},"data":[0.0,0.0,0.0,0.0,0.0,0.0,0.0,0.0,0.0,0.0,0.0,0.0,0.0,0.0,0.0,0.0,0.0,0.0,0.0,0.0,0.0,0.0,0.0,0.0,0.0,0.0,0.0,0.0,0.0,0.0,0.0,0.0,0.0,0.0,0.0,0.0,0.0,0.0,0.0,0.0,0.0,0.0,0.0,0.0,0.0,0.0,0.0,0.0,0.0,0.0,0.0,0.0,0.0,0.0,0.0,0.0,0.0,0.0,0.0,0.0,0.0,0.0,0.0,0.0,0.0,0.0,0.0,0.0,0.0,0.0,0.0,0.0,0.0,0.0,0.0,0.0,0.0,0.0,0.0,0.0,0.0,0.0,0.0,0.0,0.0,0.0,0.0,0.0,0.0,0.0,0.0,0.0,0.0,0.0,0.0,0.0,0.0,0.0,0.0,0.0,0.0,0.0,0.0,0.0,0.0,0.0,0.0,0.0,0.0,0.0,0.0,0.0,0.0,0.0,0.0,0.0,0.0,0.0,0.0,0.0,0.0,0.0,0.0,0.0,0.0,0.0,0.0,0.0,0.0,0.0,0.0,0.0,0.0,0.0,0.0,0.0,0.0,0.0,0.0,0.0,0.0,0.0,0.0,0.0,0.0,0.0,0.0,0.0,0.0,0.0,0.0,0.0,0.0,0.0,0.0,0.0,0.0,0.0,0.0,0.0,0.0,0.0,0.0,0.0,0.0,0.0,0.0,0.0,0.0,0.0,0.0,0.0,0.0,0.0,0.0,0.0,0.0,0.0,0.0,0.0,0.0,0.0,0.0,0.0,0.0,0.0,0.0,0.0,0.0,0.0,0.0,0.0,0.0,0.0,0.0,0.0,0.0,0.0,0.0,0.0,0.0,0.0,0.0,0.0,0.0,0.0,0.0,0.0,0.0,0.0,0.0,0.0,0.0,0.0,0.0,0.0,0.0,0.0,0.0,0.0,0.0,0.0,0.0,0.0,0.0,0.0,0.0,0.0,0.0,0.0,0.0,0.0,0.0,0.0,0.0,0.0,0.0,0.0,0.0,0.0,0.0,0.0,0.0,0.0,0.0,0.0,0.0,0.0,0.0,0.0,0.0,0.0,0.0,0.0,0.0,0.0,0.0,0.0,0.0,0.0,0.0,0.0,0.0,0.0,0.0,0.0,0.0,0.0,0.0,0.0,0.0,0.0,0.0,0.0,0.0,0.0,0.0,0.0,0.0,0.0,0.0,0.0,0.0,0.0,0.0,0.0,0.0,0.0,0.0,0.0,0.0,0.0,0.0,0.0,0.0,0.0,0.0,0.0,0.0,0.0,0.0,0.0,0.0,0.0,0.0,0.0,0.0,0.0,0.0,0.0,0.0,0.0,0.0,0.0,0.0,0.0,0.0,0.0,0.0,0.0,0.0,0.0,0.0,0.0,0.0,0.0,0.0,0.0,0.0,0.0,0.0,0.0,0.0,0.0,0.0,0.0,0.0,0.0,0.0,0.0,0.0,0.0,0.0,0.0,0.0,0.0,0.0,0.0,0.0,0.0,0.0,0.0,0.0,0.0,0.0,0.0,0.0,0.0,0.0,0.0,0.0,0.0,0.0,0.0,0.0,0.0,0.0,0.0,0.0,0.0,0.0,0.0,0.0,0.0,0.0,0.0,0.0,0.0,0.0,0.0,0.0,0.0,0.0,0.0,0.0,0.0,0.0,0.0,0.0,0.0,0.0,0.0,0.0,0.0,0.0,0.0,0.0,0.0,0.0,0.0,0.0,0.0,0.0,0.0,0.0,0.0,0.0,0.0,0.0,0.0,0.0,0.0,0.0,0.0,0.0,0.0,0.0,0.0,0.0,0.0,0.0,0.0,0.0,0.0,0.0,0.0,0.0,0.0,0.0,0.0,0.0,0.0,0.0,0.0,0.0,0.0,0.0,0.0,0.0,0.0,0.0,0.0,0.0,0.0,0.0,0.0,0.0,0.0,0.0,0.0,0.0,0.0,0.0,0.0,0.0,0.0,0.0,0.0,0.0,0.0,0.0,0.0,0.0,0.0,0.0,0.0,0.0,0.0,0.0,0.0,0.0,0.0,0.0,0.0,0.0,0.0,0.0,0.0,0.0,0.0,0.0,0.0,0.0,0.0,0.0,0.0,0.0,0.0,0.0,0.0,0.0,0.0,0.0,0.0,0.0,0.0,0.0,0.0,0.0,0.0,0.0,0.0,0.0,0.0,0.0,0.0,0.0,0.0,0.0,0.0,0.0,0.0,0.0,0.0,0.0,0.0,0.0,0.0,0.0,0.0,0.0,0.0,0.0,0.0,0.0,0.0,0.0,0.0,0.0,0.0,0.0,0.0,0.0,0.0,0.0,0.0,0.0,0.0,0.0,0.0,0.0,0.0,0.0,0.0,0.0,0.0,0.0,0.0,0.0,0.0,0.0,0.0,0.0,0.0,0.0,0.0,0.0,0.0,0.0,0.0,0.0,0.0,0.0,0.0,0.0,0.0,0.0,0.0,0.0,0.0,0.0,0.0,0.0,0.0,0.0,0.0,0.0,0.0,0.0,0.0,0.0,0.0,0.0,0.0,0.0,0.0,0.0,0.0,0.0,0.0,0.0,0.0,0.0,0.0,0.0,0.0,0.0,0.0,0.0,0.0,0.0,0.0,0.0,0.0,0.0,0.0,0.0,0.0,0.0,0.0,0.0,0.0,0.0,0.0,0.0,0.0,0.0,0.0,0.0,0.0,0.0,0.0,0.0,0.0,0.0,0.0,0.0,0.0,0.0,0.0,0.0,0.0,0.0,0.0,0.0,0.0,0.0,0.0,0.0,0.0,0.0,0.0,0.0,0.0,0.0,0.0,0.0,0.0,0.0,0.0,0.0,0.0,0.0,0.0,0.0,0.0,0.0,0.0,0.0,0.0,0.0,0.0,0.0,0.0,0.0,0.0,0.0,0.0,0.0,0.0,0.0,0.0,0.0,0.0,0.0,0.0,0.0,0.0,0.0,0.0,0.0,0.0,0.0,0.0,0.0,0.0,0.0,0.0,0.0,0.0,0.0,0.0,0.0,0.0,0.0,0.0,0.0,0.0,0.0,0.0,0.0,0.0,0.0,0.0,0.0,0.0,0.0,0.0,0.0,0.0,0.0,0.0,0.0,0.0,0.0,0.0,0.0,0.0,0.0,0.0,0.0,0.0,0.0,0.0,0.0,0.0,0.0,0.0,0.0,0.0,0.0,0.0,0.0,0.0,0.0,0.0,0.0,0.0,0.0,0.0,0.0,0.0,0.0,0.0,0.0,0.0,0.0,0.0,0.0,0.0,0.0,0.0,0.0,0.0,0.0,0.0,0.0,0.0,0.0,0.0,0.0,0.0,0.0,0.0,0.0,0.0,0.0,0.0,0.0,0.0,0.0,0.0,0.0,0.0,0.0,0.0,0.0,0.0,0.0,0.0,0.0,0.0,0.0,0.0,0.0,0.0,0.0,0.0,0.0,0.0,0.0,0.0,0.0,0.0,0.0,0.0,0.0,0.0,0.0,0.0,0.0,0.0,0.0,0.0,0.0,0.0,0.0,0.0,0.0,0.0,0.0,0.0,0.0,0.0,0.0,0.0,0.0,0.0,0.0,0.0,0.0,0.0,0.0,0.0,0.0,0.0,0.0,0.0,0.0,0.0,0.0,0.0,0.0,0.0,0.0,0.0,0.0,0.0,0.0,0.0,0.0,0.0,0.0,0.0,0.0,0.0,0.0,0.0,0.0,0.0,0.0,0.0,0.0,0.0,0.0,0.0,0.0,0.0,0.0,0.0,0.0,0.0,0.0,0.0,0.0,0.0,0.0,0.0,0.0,0.0,0.0,0.0,0.0,0.0,0.0,0.0,0.0,0.0,0.0,0.0,0.0,0.0,0.0,0.0,0.0,0.0,0.0,0.0,0.0,0.0,0.0,0.0,0.0,0.0,0.0,0.0,0.0,0.0,0.0,0.0,0.0,0.0,0.0,0.0,0.0,0.0,0.0,0.0,0.0,0.0,0.0,0.0,0.0,0.0,0.0,0.0,0.0,0.0,0.0,0.0,0.0,0.0,0.0,0.0,0.0,0.0,0.0,0.0,0.0,0.0,0.0,0.0,0.0,0.0,0.0,0.0,0.0,0.0,0.0,0.0,0.0,0.0,0.0,0.0,0.0,0.0,0.0,0.0,0.0,0.0,0.0,0.0,0.0,0.0,0.0,0.0,0.0,0.0,0.0,0.0,0.0,0.0,0.0,0.0,0.0,0.0,1.9618,0.0,0.0,0.0,0.0,0.0,0.0,0.0,0.0,0.0,0.0,0.0,0.0,0.0,0.0,0.0,0.0,0.0,0.0,0.0,0.0,0.0,0.0,0.0,0.0,0.0,0.0,0.0,0.0,0.0,0.0,0.0,0.0,0.0,0.0,0.0,0.0,0.0,0.0,0.0,0.0,0.0,0.0,0.0,0.0,0.0,0.0,0.0,0.0,0.0,0.0,0.0,0.0,0.0,0.0,0.0,0.0,0.0,0.0,0.0,0.0,0.0,0.0,0.0,0.0,0.0,0.0,0.0,0.0,0.0,0.0,0.0,0.0,0.0,0.0,0.0,0.0,0.0,0.0,0.0,0.0,0.0,0.0,0.0,0.0,0.0,0.0,0.0,0.0,0.0,0.0,0.0,0.0,0.0,0.0,0.0,0.0,0.0,0.0,0.0,0.0,0.0,0.0,0.0,0.0,0.0,0.0,0.0,0.0,0.0,0.0,1.9577,1.9593,1.9593,1.9579,1.9547,0.0,0.0,0.0,0.0,0.0,0.0,0.0,0.0,0.0,0.0,0.0,0.0,0.0,0.0,0.0,0.0,0.0,0.0,0.0,0.0,0.0,0.0,0.0,0.0,0.0,0.0,0.0,0.0,0.0,0.0,0.0,0.0,0.0,0.0,0.0,0.0,0.0,0.0,0.0,0.0,0.0,0.0,0.0,0.0,0.0,0.0,0.0,0.0,0.0,0.0,0.0,0.0,0.0,0.0,0.0,0.0,0.0,0.0,0.0,0.0,0.0,0.0,0.0,0.0,0.0,0.0,0.0,0.0,0.0,0.0,0.0,0.0,0.0,0.0,0.0,0.0,0.0,0.0,0.0,0.0,0.0,0.0,0.0,0.0,0.0,0.0,0.0,0.0,0.0,0.0,0.0,0.0,0.0,0.0,0.0,0.0,0.0,0.0,0.0,0.0,0.0,0.0,0.0,0.0,0.0,0.0,0.0,0.0,0.0,0.0,0.0,0.0,1.9501,1.9475,1.9461,0.0,0.0,0.0,0.0,0.0,0.0,0.0,0.0,0.0,0.0,0.0,0.0,0.0,0.0,0.0,0.0,0.0,0.0,0.0,0.0,0.0,0.0,0.0,0.0,0.0,0.0,0.0,0.0,0.0,0.0,0.0,0.0,0.0,0.0,0.0,0.0,0.0,0.0,0.0,0.0,0.0,0.0,0.0,0.0,0.0,0.0,0.0,0.0,0.0,0.0,0.0,0.0,0.0,0.0,0.0,0.0,0.0,0.0,0.0,0.0,0.0,0.0,0.0,0.0,0.0,0.0,0.0,0.0,0.0,0.0,0.0,0.0,0.0,0.0,0.0,0.0,0.0,0.0,0.0,0.0,0.0,0.0,0.0,0.0,0.0,0.0,0.0,0.0,0.0,0.0,0.0,0.0,0.0,0.0,0.0,0.0,0.0,0.0,0.0,0.0,0.0,0.0,0.0,0.0,0.0,0.0,0.0,0.0,0.0,0.0,1.9494,1.9505,1.9501,0.0,1.9327,0.0,0.0,0.0,0.0,0.0,0.0,0.0,0.0,0.0,0.0,0.0,0.0,0.0,0.0,0.0,0.0,0.0,0.0,0.0,0.0,0.0,0.0,0.0,0.0,0.0,0.0,0.0,0.0,0.0,0.0,0.0,0.0,0.0,0.0,0.0,0.0,0.0,0.0,0.0,0.0,0.0,0.0,0.0,0.0,0.0,0.0,0.0,0.0,0.0,0.0,0.0,0.0,0.0,0.0,0.0,0.0,0.0,0.0,0.0,0.0,0.0,0.0,0.0,0.0,0.0,0.0,0.0,0.0,0.0,0.0,0.0,0.0,0.0,0.0,0.0,0.0,0.0,0.0,0.0,0.0,0.0,0.0,0.0,0.0,0.0,0.0,0.0,0.0,0.0,0.0,0.0,0.0,0.0,0.0,0.0,0.0,0.0,0.0,0.0,0.0,0.0,0.0,0.0,0.0,0.0,0.0,0.0,0.0,0.0,0.0,1.9317,1.9317,1.9317,1.9287,0.0,0.0,0.0,0.0,0.0,0.0,0.0,0.0,0.0,0.0,0.0,0.0,0.0,0.0,0.0,0.0,0.0,0.0,0.0,0.0,0.0,0.0,0.0,0.0,0.0,0.0,0.0,0.0,0.0,0.0,0.0,0.0,0.0,0.0,0.0,0.0,0.0,0.0,0.0,0.0,0.0,0.0,0.0,0.0,0.0,0.0,0.0,0.0,0.0,0.0,0.0,0.0,0.0,0.0,0.0,0.0,0.0,0.0,0.0,0.0,0.0,0.0,0.0,0.0,0.0,0.0,0.0,0.0,0.0,0.0,0.0,0.0,0.0,0.0,0.0,0.0,0.0,0.0,0.0,0.0,0.0,0.0,0.0,0.0,0.0,0.0,0.0,0.0,0.0,0.0,0.0,0.0,0.0,0.0,0.0,0.0,0.0,0.0,0.0,0.0,0.0,0.0,0.0,0.0,0.0,0.0,0.0,0.0,0.0,0.0,1.9202,1.9172,1.916,1.9162,1.9139,1.9131,0.0,0.0,0.0,0.0,0.0,0.0,0.0,0.0,0.0,0.0,0.0,0.0,0.0,0.0,0.0,0.0,0.0,0.0,0.0,0.0,0.0,0.0,0.0,0.0,0.0,0.0,0.0,0.0,0.0,0.0,0.0,0.0,0.0,0.0,0.0,0.0,0.0,0.0,0.0,0.0,0.0,0.0,0.0,0.0,0.0,0.0,0.0,0.0,0.0,0.0,0.0,0.0,0.0,0.0,0.0,0.0,0.0,0.0,0.0,0.0,0.0,0.0,0.0,0.0,0.0,0.0,0.0,0.0,0.0,0.0,0.0,0.0,0.0,0.0,0.0,0.0,0.0,0.0,0.0,0.0,0.0,0.0,0.0,0.0,0.0,0.0,0.0,0.0,0.0,0.0,0.0,0.0,0.0,0.0,0.0,0.0,0.0,0.0,0.0,0.0,0.0,0.0,0.0,0.0,0.0,0.0,0.0,0.0,1.9196,1.9142,1.9105,1.9095,1.9045,1.9001,0.0,0.0,0.0,0.0,0.0,0.0,0.0,0.0,0.0,0.0,0.0,0.0,0.0,0.0,0.0,0.0,0.0,0.0,0.0,0.0,0.0,0.0,0.0,0.0,0.0,0.0,0.0,0.0,0.0,0.0,0.0,0.0,0.0,0.0,0.0,0.0,0.0,0.0,0.0,0.0,0.0,0.0,0.0,0.0,0.0,0.0,0.0,0.0,0.0,0.0,0.0,0.0,0.0,0.0,0.0,0.0,0.0,0.0,0.0,0.0,0.0,0.0,0.0,0.0,0.0,0.0,0.0,0.0,0.0,0.0,0.0,0.0,0.0,0.0,0.0,0.0,0.0,0.0,0.0,0.0,0.0,0.0,0.0,0.0,0.0,0.0,0.0,0.0,0.0,0.0,0.0,0.0,0.0,0.0,0.0,0.0,0.0,0.0,0.0,0.0,0.0,0.0,0.0,0.0,0.0,0.0,0.0,0.0,0.0,1.906,1.9017,1.8969,1.8974,1.8953,1.8945,0.0,0.0,0.0,0.0,0.0,0.0,0.0,0.0,0.0,0.0,0.0,0.0,0.0,0.0,0.0,0.0,0.0,0.0,0.0,0.0,0.0,0.0,0.0,0.0,0.0,0.0,0.0,0.0,0.0,0.0,0.0,0.0,0.0,0.0,0.0,0.0,0.0,0.0,0.0,0.0,0.0,0.0,0.0,0.0,0.0,0.0,0.0,0.0,0.0,0.0,0.0,0.0,0.0,0.0,0.0,0.0,0.0,0.0,0.0,0.0,0.0,0.0,0.0,0.0,0.0,0.0,0.0,0.0,0.0,0.0,0.0,0.0,0.0,0.0,0.0,0.0,0.0,0.0,0.0,0.0,0.0,0.0,0.0,0.0,0.0,0.0,0.0,0.0,0.0,0.0,0.0,0.0,0.0,0.0,0.0,0.0,0.0,0.0,0.0,0.0,0.0,0.0,0.0,0.0,0.0,0.0,0.0,0.0,0.0,1.8891,0.0,1.882,1.8807,1.8807,1.8807,0.0,0.0,0.0,0.0,0.0,0.0,0.0,0.0,0.0,0.0,0.0,0.0,0.0,0.0,0.0,0.0,0.0,0.0,0.0,0.0,0.0,0.0,0.0,0.0,0.0,0.0,0.0,0.0,0.0,0.0,0.0,0.0,0.0,0.0,0.0,0.0,0.0,0.0,0.0,0.0,0.0,0.0,0.0,0.0,0.0,0.0,0.0,0.0,0.0,0.0,0.0,0.0,0.0,0.0,0.0,0.0,0.0,0.0,0.0,0.0,0.0,0.0,0.0,0.0,0.0,0.0,0.0,0.0,0.0,0.0,0.0,0.0,0.0,0.0,0.0,0.0,0.0,0.0,0.0,0.0,0.0,0.0,0.0,0.0,0.0,0.0,0.0,0.0,0.0,0.0,0.0,0.0,0.0,0.0,0.0,0.0,0.0,0.0,0.0,0.0,0.0,0.0,0.0,0.0,0.0,0.0,0.0,0.0,1.8833,1.8711,1.8684,1.8678,1.8617,1.8595,1.8595,0.0,0.0,0.0,0.0,0.0,0.0,0.0,0.0,0.0,0.0,0.0,0.0,0.0,0.0,0.0,0.0,0.0,0.0,0.0,0.0,0.0,0.0,0.0,0.0,0.0,0.0,0.0,0.0,0.0,0.0,0.0,0.0,0.0,0.0,0.0,0.0,0.0,0.0,0.0,0.0,0.0,0.0,0.0,0.0,0.0,0.0,0.0,0.0,0.0,0.0,0.0,0.0,0.0,0.0,0.0,0.0,0.0,0.0,0.0,0.0,0.0,0.0,0.0,0.0,0.0,0.0,0.0,0.0,0.0,0.0,0.0,0.0,0.0,0.0,0.0,0.0,0.0,0.0,0.0,0.0,0.0,0.0,0.0,0.0,0.0,0.0,0.0,0.0,0.0,0.0,0.0,0.0,0.0,0.0,0.0,0.0,0.0,0.0,0.0,0.0,0.0,0.0,0.0,0.0,0.0,0.0,0.0,0.0,0.0,1.8573,1.8568,1.8558,1.8534,1.8539,1.8502,0.0,0.0,0.0,0.0,0.0,0.0,0.0,0.0,0.0,0.0,0.0,0.0,0.0,0.0,0.0,0.0,0.0,0.0,0.0,0.0,0.0,0.0,0.0,0.0,0.0,0.0,0.0,0.0,0.0,0.0,0.0,0.0,0.0,0.0,0.0,0.0,0.0,0.0,0.0,0.0,0.0,0.0,0.0,0.0,0.0,0.0,0.0,0.0,0.0,0.0,0.0,0.0,0.0,0.0,0.0,0.0,0.0,0.0,0.0,0.0,0.0,0.0,0.0,0.0,0.0,0.0,0.0,0.0,0.0,0.0,0.0,0.0,0.0,0.0,0.0,0.0,0.0,0.0,0.0,0.0,0.0,0.0,0.0,0.0,0.0,0.0,0.0,0.0,0.0,0.0,0.0,0.0,0.0,0.0,0.0,0.0,0.0,0.0,0.0,0.0,0.0,0.0,0.0,0.0,0.0,0.0,0.0,0.0,0.0,1.8722,1.8508,1.8421,1.8378,1.8408,1.8388,1.8323,0.0,0.0,0.0,0.0,0.0,0.0,0.0,0.0,0.0,0.0,0.0,0.0,0.0,0.0,0.0,0.0,0.0,0.0,0.0,0.0,0.0,0.0,0.0,0.0,0.0,0.0,0.0,0.0,0.0,0.0,0.0,0.0,0.0,0.0,0.0,0.0,0.0,0.0,0.0,0.0,0.0,0.0,0.0,0.0,0.0,0.0,0.0,0.0,0.0,0.0,0.0,0.0,0.0,0.0,0.0,0.0,0.0,0.0,0.0,0.0,0.0,0.0,0.0,0.0,0.0,0.0,0.0,0.0,0.0,0.0,0.0,0.0,0.0,0.0,0.0,0.0,0.0,0.0,0.0,0.0,0.0,0.0,0.0,0.0,0.0,0.0,0.0,0.0,0.0,0.0,0.0,0.0,0.0,0.0,0.0,0.0,0.0,0.0,0.0,0.0,0.0,0.0,0.0,0.0,0.0,0.0,0.0,0.0,1.9155,1.8669,1.8343,1.8199,1.8239,1.8254,0.0,0.0,0.0,0.0,0.0,0.0,0.0,0.0,0.0,0.0,0.0,0.0,0.0,0.0,0.0,0.0,0.0,0.0,0.0,0.0,0.0,0.0,0.0,0.0,0.0,0.0,0.0,0.0,0.0,0.0,0.0,0.0,0.0,0.0,0.0,0.0,0.0,0.0,0.0,0.0,0.0,0.0,0.0,0.0,0.0,0.0,0.0,0.0,0.0,0.0,0.0,0.0,0.0,0.0,0.0,0.0,0.0,0.0,0.0,0.0,0.0,0.0,0.0,0.0,0.0,0.0,0.0,0.0,0.0,0.0,0.0,0.0,0.0,0.0,0.0,0.0,0.0,0.0,0.0,0.0,0.0,0.0,0.0,0.0,0.0,0.0,0.0,0.0,0.0,0.0,0.0,0.0,0.0,0.0,0.0,0.0,0.0,0.0,0.0,0.0,0.0,0.0,0.0,0.0,0.0,0.0,0.0,0.0,0.0,1.9803,1.971,1.9138,1.8093,1.8081,1.8081,0.0,0.0,0.0,0.0,0.0,0.0,0.0,0.0,0.0,0.0,0.0,0.0,0.0,0.0,0.0,0.0,0.0,0.0,0.0,0.0,0.0,0.0,0.0,0.0,0.0,0.0,0.0,0.0,0.0,0.0,0.0,0.0,0.0,0.0,0.0,0.0,0.0,0.0,0.0,0.0,0.0,0.0,0.0,0.0,0.0,0.0,0.0,0.0,0.0,0.0,0.0,0.0,0.0,0.0,0.0,0.0,0.0,0.0,0.0,0.0,0.0,0.0,0.0,0.0,0.0,0.0,0.0,0.0,0.0,0.0,0.0,0.0,0.0,0.0,0.0,0.0,0.0,0.0,0.0,0.0,0.0,0.0,0.0,0.0,0.0,0.0,0.0,0.0,0.0,0.0,0.0,0.0,0.0,0.0,0.0,0.0,0.0,0.0,0.0,0.0,0.0,0.0,0.0,0.0,0.0,0.0,0.0,0.0,1.9943,2.0429,2.0429,1.9892,1.8792,1.8569,1.8313,0.0,0.0,0.0,0.0,0.0,0.0,0.0,0.0,0.0,0.0,0.0,0.0,0.0,0.0,0.0,0.0,0.0,0.0,0.0,0.0,0.0,0.0,0.0,0.0,0.0,0.0,0.0,0.0,0.0,0.0,0.0,0.0,0.0,0.0,0.0,0.0,0.0,0.0,0.0,0.0,0.0,0.0,0.0,0.0,0.0,0.0,0.0,0.0,0.0,0.0,0.0,0.0,0.0,0.0,0.0,0.0,0.0,0.0,0.0,0.0,0.0,0.0,0.0,0.0,0.0,0.0,0.0,0.0,0.0,0.0,0.0,0.0,0.0,0.0,0.0,0.0,0.0,0.0,0.0,0.0,0.0,0.0,0.0,0.0,0.0,0.0,0.0,0.0,0.0,0.0,0.0,0.0,0.0,0.0,0.0,0.0,0.0,0.0,0.0,0.0,0.0,0.0,0.0,0.0,0.0,0.0,0.0,0.0,2.0815,2.0972,2.0989,2.0631,1.993,1.9418,1.8802,0.0,0.0,0.0,0.0,0.0,0.0,0.0,0.0,0.0,0.0,0.0,0.0,0.0,0.0,0.0,0.0,0.0,0.0,0.0,0.0,0.0,0.0,0.0,0.0,0.0,0.0,0.0,0.0,0.0,0.0,0.0,0.0,0.0,0.0,0.0,0.0,0.0,0.0,0.0,0.0,0.0,0.0,0.0,0.0,0.0,0.0,0.0,0.0,0.0,0.0,0.0,0.0,0.0,0.0,0.0,0.0,0.0,0.0,0.0,0.0,0.0,0.0,0.0,0.0,0.0,0.0,0.0,0.0,0.0,0.0,0.0,0.0,0.0,0.0,0.0,0.0,0.0,0.0,0.0,0.0,0.0,0.0,0.0,0.0,0.0,0.0,0.0,0.0,0.0,0.0,0.0,0.0,0.0,0.0,0.0,0.0,0.0,0.0,0.0,0.0,0.0,0.0,0.0,0.0,0.0,0.0,0.0,0.0,2.0774,2.1505,2.1529,2.1213,2.0536,1.995,1.9311,0.0,0.0,0.0,0.0,0.0,0.0,0.0,0.0,0.0,0.0,0.0,0.0,0.0,0.0,0.0,0.0,0.0,0.0,0.0,0.0,0.0,0.0,0.0,0.0,0.0,0.0,0.0,0.0,0.0,0.0,0.0,0.0,0.0,0.0,0.0,0.0,0.0,0.0,0.0,0.0,0.0,0.0,0.0,0.0,0.0,0.0,0.0,0.0,1.6981,0.0,0.0,0.0,0.0,0.0,0.0,0.0,0.0,0.0,0.0,0.0,0.0,0.0,0.0,0.0,0.0,0.0,0.0,0.0,0.0,0.0,0.0,0.0,0.0,0.0,0.0,0.0,0.0,0.0,0.0,0.0,0.0,0.0,0.0,0.0,0.0,0.0,0.0,0.0,0.0,0.0,0.0,0.0,0.0,0.0,0.0,0.0,0.0,0.0,0.0,0.0,0.0,0.0,0.0,0.0,0.0,0.0,0.0,0.0,2.0943,2.1486,2.1541,2.1391,2.1044,2.0811,2.0257,0.0,0.0,0.0,0.0,0.0,0.0,0.0,0.0,0.0,0.0,0.0,0.0,0.0,0.0,0.0,0.0,0.0,0.0,0.0,0.0,0.0,0.0,0.0,0.0,0.0,0.0,0.0,0.0,0.0,0.0,0.0,0.0,0.0,0.0,0.0,0.0,0.0,0.0,0.0,0.0,0.0,0.0,0.0,0.0,0.0,0.0,0.0,0.0,0.0,0.0,0.0,0.0,0.0,0.0,0.0,0.0,0.0,0.0,0.0,0.0,0.0,0.0,0.0,0.0,0.0,0.0,0.0,0.0,0.0,0.0,0.0,0.0,0.0,0.0,0.0,0.0,0.0,0.0,0.0,0.0,0.0,0.0,0.0,0.0,0.0,0.0,0.0,0.0,0.0,0.0,0.0,0.0,0.0,0.0,0.0,0.0,0.0,0.0,0.0,0.0,0.0,0.0,0.0,0.0,0.0,0.0,0.0,2.0429,2.1111,2.1238,2.1317,2.1355,2.1378,2.1556,2.1205,2.0237,0.0,0.0,0.0,0.0,0.0,0.0,0.0,0.0,0.0,0.0,0.0,0.0,0.0,0.0,0.0,0.0,0.0,0.0,0.0,0.0,0.0,0.0,0.0,0.0,0.0,0.0,0.0,0.0,0.0,0.0,0.0,0.0,0.0,0.0,0.0,0.0,0.0,0.0,1.6435,1.6819,0.0,0.0,0.0,0.0,0.0,0.0,0.0,0.0,1.6688,0.0,0.0,0.0,0.0,0.0,0.0,0.0,0.0,0.0,0.0,0.0,0.0,0.0,0.0,0.0,0.0,0.0,0.0,0.0,0.0,0.0,0.0,0.0,0.0,0.0,0.0,0.0,0.0,0.0,0.0,0.0,0.0,0.0,0.0,0.0,0.0,0.0,0.0,0.0,0.0,0.0,0.0,0.0,0.0,0.0,0.0,0.0,0.0,0.0,0.0,0.0,0.0,0.0,0.0,0.0,0.0,1.9632,2.044,2.0893,2.0958,2.1087,2.1199,2.1317,2.1394,2.1456,2.142,0.0,0.0,0.0,0.0,0.0,0.0,0.0,0.0,0.0,0.0,0.0,0.0,0.0,0.0,0.0,0.0,0.0,0.0,0.0,0.0,0.0,0.0,0.0,0.0,0.0,0.0,0.0,0.0,0.0,0.0,0.0,0.0,0.0,0.0,0.0,0.0,0.0,0.0,0.0,1.6877,1.6907,0.0,0.0,0.0,0.0,0.0,0.0,0.0,0.0,1.6523,0.0,0.0,0.0,0.0,0.0,0.0,0.0,0.0,0.0,0.0,0.0,0.0,0.0,0.0,0.0,0.0,0.0,0.0,0.0,0.0,0.0,0.0,0.0,0.0,0.0,0.0,0.0,0.0,0.0,0.0,0.0,0.0,0.0,0.0,0.0,0.0,0.0,0.0,0.0,0.0,0.0,0.0,0.0,0.0,0.0,0.0,0.0,0.0,0.0,0.0,0.0,0.0,0.0,0.0,0.0,1.9602,2.025,2.062,2.0696,2.0852,2.0974,2.1047,2.1206,2.1371,0.0,0.0,0.0,0.0,0.0,0.0,0.0,0.0,0.0,0.0,0.0,0.0,0.0,0.0,0.0,0.0,0.0,0.0,0.0,0.0,0.0,0.0,0.0,0.0,0.0,0.0,0.0,0.0,0.0,0.0,0.0,0.0,0.0,0.0,0.0,0.0,0.0,0.0,0.0,0.0,1.6737,1.6682,1.6695,0.0,0.0,0.0,0.0,0.0,0.0,1.6513,1.6457,0.0,0.0,0.0,0.0,0.0,0.0,0.0,0.0,0.0,0.0,0.0,0.0,0.0,0.0,0.0,0.0,0.0,0.0,0.0,0.0,0.0,0.0,0.0,0.0,0.0,0.0,0.0,0.0,0.0,0.0,0.0,0.0,0.0,0.0,0.0,0.0,0.0,0.0,0.0,0.0,0.0,0.0,0.0,0.0,0.0,0.0,0.0,0.0,0.0,0.0,0.0,0.0,0.0,0.0,0.0,1.9596,2.0135,2.0416,2.0501,2.0653,2.0753,2.0769,2.0982,2.1167,0.0,0.0,0.0,0.0,0.0,0.0,0.0,0.0,0.0,0.0,0.0,0.0,0.0,0.0,0.0,0.0,0.0,0.0,0.0,0.0,0.0,0.0,0.0,0.0,0.0,0.0,0.0,0.0,0.0,0.0,0.0,0.0,0.0,0.0,0.0,0.0,0.0,0.0,0.0,0.0,0.0,1.6513,1.6513,1.6513,0.0,0.0,0.0,0.0,1.6685,1.6663,0.0,0.0,0.0,0.0,0.0,0.0,0.0,0.0,0.0,0.0,0.0,0.0,0.0,0.0,0.0,0.0,0.0,0.0,0.0,0.0,0.0,0.0,0.0,0.0,0.0,0.0,0.0,0.0,0.0,0.0,0.0,0.0,0.0,0.0,0.0,0.0,0.0,0.0,0.0,0.0,0.0,0.0,0.0,0.0,0.0,0.0,0.0,0.0,0.0,0.0,0.0,0.0,0.0,0.0,0.0,0.0,1.9975,2.0224,2.0363,2.0407,2.0501,2.0578,2.0718,2.0802,2.0933,0.0,0.0,0.0,0.0,0.0,0.0,0.0,0.0,0.0,0.0,0.0,0.0,0.0,0.0,0.0,0.0,0.0,0.0,0.0,0.0,0.0,0.0,0.0,0.0,0.0,0.0,0.0,0.0,0.0,0.0,0.0,0.0,0.0,0.0,0.0,0.0,0.0,0.0,0.0,0.0,0.0,1.6513,1.6513,1.6513,1.6513,0.0,0.0,1.7299,1.731,1.7195,0.0,0.0,0.0,0.0,0.0,0.0,0.0,0.0,0.0,0.0,0.0,0.0,0.0,0.0,0.0,0.0,0.0,0.0,0.0,0.0,0.0,0.0,0.0,0.0,0.0,0.0,0.0,0.0,0.0,0.0,0.0,0.0,0.0,0.0,0.0,0.0,0.0,0.0,0.0,0.0,0.0,0.0,0.0,0.0,0.0,0.0,0.0,0.0,0.0,0.0,0.0,0.0,0.0,0.0,0.0,1.8728,2.0,2.0104,2.0146,2.0181,2.0313,2.0424,2.0482,2.0585,2.0711,0.0,0.0,0.0,0.0,0.0,0.0,0.0,0.0,0.0,0.0,0.0,0.0,0.0,0.0,0.0,0.0,0.0,0.0,0.0,0.0,0.0,0.0,0.0,0.0,0.0,0.0,0.0,0.0,0.0,0.0,0.0,0.0,0.0,0.0,0.0,0.0,0.0,0.0,0.0,0.0,0.0,0.0,1.7414,1.7464,0.0,0.0,0.0,1.7852,1.7864,0.0,0.0,0.0,0.0,0.0,0.0,0.0,0.0,0.0,0.0,0.0,0.0,0.0,0.0,0.0,0.0,0.0,0.0,0.0,0.0,0.0,0.0,0.0,0.0,0.0,0.0,0.0,0.0,0.0,0.0,0.0,0.0,0.0,0.0,0.0,0.0,0.0,0.0,0.0,0.0,0.0,0.0,0.0,0.0,0.0,0.0,0.0,0.0,0.0,0.0,0.0,0.0,0.0,0.0,0.0,0.0,0.0,1.9916,1.9946,1.9955,1.9997,2.0139,2.0242,2.0242,2.0347,0.0,0.0,0.0,0.0,0.0,0.0,0.0,0.0,0.0,0.0,0.0,0.0,0.0,0.0,0.0,0.0,0.0,0.0,0.0,0.0,0.0,0.0,0.0,0.0,0.0,0.0,0.0,1.4531,0.0,0.0,0.0,0.0,0.0,0.0,0.0,0.0,0.0,0.0,0.0,0.0,0.0,0.0,1.7739,1.8141,1.8192,1.8192,0.0,0.0,1.8393,1.8405,1.826,1.7967,0.0,0.0,0.0,0.0,0.0,0.0,0.0,0.0,0.0,0.0,0.0,0.0,0.0,0.0,0.0,0.0,0.0,0.0,0.0,0.0,0.0,0.0,0.0,0.0,0.0,0.0,0.0,0.0,0.0,0.0,0.0,0.0,0.0,0.0,0.0,0.0,0.0,0.0,0.0,0.0,0.0,0.0,0.0,0.0,0.0,0.0,0.0,0.0,0.0,0.0,0.0,0.0,0.0,0.0,1.8475,1.977,1.9806,1.9875,1.9973,2.0014,2.0032,2.0032,2.0074,2.017,0.0,0.0,0.0,0.0,0.0,0.0,0.0,0.0,0.0,0.0,0.0,0.0,0.0,0.0,0.0,0.0,0.0,0.0,0.0,0.0,0.0,0.0,0.0,0.0,0.0,0.0,0.0,0.0,0.0,0.0,0.0,0.0,0.0,0.0,0.0,0.0,0.0,0.0,0.0,0.0,0.0,1.8166,1.8192,1.8192,1.8205,0.0,1.8631,1.8945,1.8945,1.8722,1.8548,1.8498,0.0,0.0,0.0,0.0,0.0,0.0,0.0,0.0,0.0,0.0,0.0,0.0,0.0,0.0,0.0,0.0,0.0,0.0,0.0,0.0,0.0,0.0,0.0,0.0,0.0,0.0,0.0,0.0,0.0,0.0,0.0,0.0,0.0,0.0,0.0,0.0,0.0,0.0,0.0,0.0,0.0,0.0,0.0,0.0,0.0,0.0,0.0,0.0,0.0,0.0,0.0,0.0,0.0,1.8768,1.9705,1.9753,1.9762,1.9806,1.9857,1.9866,1.9884,1.999,2.0061,0.0,0.0,0.0,0.0,0.0,0.0,0.0,0.0,0.0,0.0,0.0,0.0,0.0,0.0,0.0,0.0,0.0,0.0,0.0,0.0,0.0,0.0,0.0,0.0,0.0,0.0,0.0,0.0,1.61,1.6328,1.6055,0.0,0.0,0.0,0.0,0.0,0.0,0.0,0.0,0.0,0.0,1.8696,1.9033,1.9133,0.0,0.0,1.9359,1.9484,1.9484,1.9344,1.908,1.8671,1.81,0.0,0.0,0.0,0.0,0.0,0.0,0.0,0.0,0.0,0.0,0.0,0.0,0.0,0.0,0.0,0.0,0.0,0.0,0.0,0.0,0.0,0.0,0.0,0.0,0.0,0.0,0.0,0.0,0.0,0.0,0.0,0.0,0.0,0.0,0.0,0.0,0.0,0.0,0.0,0.0,0.0,0.0,0.0,0.0,0.0,0.0,0.0,0.0,0.0,0.0,0.0,0.0,1.8974,1.9675,1.9723,1.9723,1.9723,1.9753,1.9771,1.978,1.9884,1.9952,0.0,0.0,0.0,0.0,0.0,0.0,0.0,0.0,0.0,0.0,0.0,0.0,0.0,0.0,0.0,0.0,0.0,0.0,0.0,0.0,0.0,0.0,0.0,0.0,0.0,0.0,0.0,0.0,1.6031,1.6111,1.5836,0.0,0.0,0.0,0.0,0.0,0.0,0.0,0.0,0.0,0.0,1.9428,2.0013,2.022,2.03,2.03,2.03,2.0313,2.0313,2.003,1.9611,1.9162,0.0,0.0,0.0,0.0,0.0,0.0,0.0,0.0,0.0,0.0,0.0,0.0,0.0,0.0,0.0,0.0,0.0,0.0,0.0,0.0,0.0,0.0,0.0,0.0,0.0,0.0,0.0,0.0,0.0,0.0,1.6866,0.0,0.0,0.0,0.0,0.0,0.0,0.0,0.0,0.0,0.0,0.0,0.0,0.0,0.0,0.0,0.0,0.0,0.0,0.0,0.0,0.0,0.0,1.8965,1.9699,1.9699,1.9699,1.9723,1.9708,1.9708,1.9708,1.9762,1.9797,1.9797,0.0,0.0,0.0,0.0,0.0,0.0,0.0,0.0,0.0,0.0,0.0,0.0,0.0,0.0,0.0,0.0,0.0,0.0,0.0,0.0,0.0,0.0,0.0,0.0,0.0,0.0,1.6114,1.5958,1.5803,0.0,0.0,0.0,0.0,0.0,0.0,0.0,0.0,0.0,0.0,1.9675,2.0419,2.1051,2.1319,2.1405,2.1432,2.1418,2.1457,2.1418,2.0744,2.0193,0.0,0.0,0.0,0.0,0.0,0.0,0.0,0.0,0.0,0.0,0.0,0.0,0.0,0.0,0.0,0.0,0.0,0.0,0.0,0.0,0.0,0.0,0.0,0.0,0.0,0.0,0.0,1.8487,1.8503,0.0,0.0,0.0,0.0,0.0,0.0,0.0,0.0,0.0,0.0,0.0,1.7824,1.7635,0.0,0.0,0.0,0.0,0.0,0.0,0.0,0.0,0.0,0.0,0.0,0.0,1.9252,1.9599,1.9623,1.965,1.9699,1.9723,1.9723,1.9723,1.9717,1.9708,1.9659,0.0,0.0,0.0,0.0,0.0,0.0,0.0,0.0,0.0,0.0,0.0,0.0,0.0,0.0,0.0,0.0,0.0,0.0,0.0,0.0,0.0,0.0,0.0,0.0,0.0,1.545,0.0,0.0,0.0,0.0,0.0,0.0,0.0,0.0,0.0,0.0,0.0,1.8139,1.9128,2.0039,2.0707,2.1034,2.1313,2.1481,0.0,0.0,0.0,0.0,0.0,0.0,0.0,0.0,0.0,0.0,0.0,0.0,0.0,0.0,1.6138,1.5124,1.506,1.5235,1.5463,0.0,0.0,0.0,0.0,0.0,0.0,0.0,0.0,0.0,0.0,0.0,0.0,0.0,0.0,1.8951,0.0,1.8851,0.0,0.0,0.0,0.0,0.0,0.0,0.0,0.0,1.8336,1.8205,1.8187,1.7992,1.7611,0.0,1.7167,1.7049,0.0,0.0,0.0,0.0,0.0,0.0,0.0,0.0,1.933,1.9505,1.9529,1.9574,1.9645,1.9654,1.9687,1.9675,1.9687,1.9614,1.9529,1.9078,1.8676,0.0,0.0,0.0,0.0,0.0,0.0,0.0,0.0,0.0,0.0,0.0,0.0,0.0,0.0,0.0,0.0,0.0,0.0,0.0,0.0,0.0,0.0,0.0,1.5334,0.0,0.0,0.0,0.0,0.0,0.0,0.0,0.0,0.0,1.6444,1.7294,1.8274,1.9498,2.0324,2.0994,2.1414,0.0,0.0,0.0,0.0,0.0,0.0,0.0,2.1412,2.1064,2.0547,1.9942,1.9294,1.8568,1.7913,1.7461,0.0,0.0,1.5865,1.5846,1.6047,1.6271,1.6508,1.6665,1.6586,1.657,1.6538,0.0,0.0,0.0,0.0,0.0,0.0,0.0,0.0,1.9447,1.9415,0.0,1.9285,0.0,0.0,0.0,0.0,0.0,1.8586,0.0,0.0,1.8707,1.8397,1.8012,1.7788,1.7587,1.7404,1.7391,1.7427,1.7436,1.6712,0.0,0.0,0.0,0.0,0.0,0.0,1.9214,1.9391,1.943,1.9489,1.9598,1.9593,1.9614,1.9681,1.9629,1.9529,1.9409,1.9321,1.8954,1.8234,1.7937,0.0,0.0,0.0,0.0,0.0,0.0,0.0,0.0,0.0,0.0,0.0,0.0,0.0,0.0,0.0,0.0,0.0,0.0,0.0,0.0,1.4899,0.0,0.0,0.0,0.0,0.0,0.0,0.0,0.0,0.0,0.0,1.6991,1.7247,1.8017,1.9844,0.0,0.0,0.0,0.0,2.2989,2.3097,2.2994,2.2918,2.2903,2.219,2.158,2.1443,0.0,0.0,1.8642,1.8135,1.7801,1.7372,1.7276,1.7092,1.7111,1.6868,1.6722,1.6716,1.6771,1.6755,1.6755,1.6817,1.6798,1.9875,0.0,0.0,0.0,0.0,1.9678,1.9735,1.9849,1.9838,1.9821,1.983,1.9786,0.0,0.0,0.0,0.0,0.0,0.0,1.8946,1.8712,1.8591,1.8317,1.7909,1.7662,1.7502,1.7404,1.7394,1.7391,1.7419,1.7247,1.7391,1.7816,0.0,0.0,0.0,0.0,1.9503,1.9234,1.9694,1.9809,1.9455,1.9465,1.9459,1.9487,1.9459,1.9376,1.9209,1.9172,1.8963,1.8588,1.7978,0.0,0.0,0.0,0.0,0.0,0.0,0.0,0.0,0.0,0.0,0.0,0.0,0.0,0.0,0.0,0.0,0.0,0.0,0.0,1.4473,1.4721,1.4958,0.0,0.0,0.0,0.0,0.0,0.0,0.0,0.0,0.0,1.7662,1.8159,1.872,0.0,0.0,2.2012,2.2528,2.3308,2.3844,2.3876,2.3568,0.0,2.3121,2.2588,2.2083,2.1803,2.0993,2.0255,1.9823,1.9542,1.9329,1.9134,1.9098,1.8984,1.8645,1.7827,1.7272,1.7217,1.7432,1.762,1.762,1.762,1.7613,2.0687,2.0682,2.0262,2.0054,2.0063,2.0045,2.0034,1.9997,1.9937,1.9917,1.9884,1.9854,1.9768,1.9636,1.9623,0.0,0.0,0.0,1.8817,1.8431,1.8317,1.8079,1.7747,1.7543,1.7541,1.7684,1.7673,1.7813,1.809,1.8107,1.8265,1.8515,0.0,0.0,1.9187,1.9764,1.9977,1.9797,2.0213,2.0206,1.9726,1.9518,1.9367,1.9293,1.9269,1.9181,1.8955,1.8874,1.8745,1.8508,1.8003,1.7492,0.0,0.0,0.0,0.0,0.0,0.0,0.0,0.0,0.0,0.0,0.0,1.3761,1.401,0.0,0.0,0.0,1.4007,1.4083,1.4433,1.4758,0.0,0.0,0.0,0.0,0.0,0.0,0.0,1.6264,1.6651,1.7201,1.8032,1.8644,1.9163,1.9612,2.1023,2.2173,2.2629,0.0,2.4038,2.4198,2.3924,2.3664,2.3539,2.3143,2.2671,2.2189,2.1546,2.0958,2.0634,2.0421,2.0188,1.9975,1.9897,1.9779,1.937,1.866,1.8144,1.8162,1.8357,1.8506,1.8525,1.8533,1.8516,2.1704,2.161,2.0572,2.0146,2.013,2.013,2.0122,2.0113,2.0005,1.9885,1.983,1.9769,1.9659,1.9519,1.943,0.0,1.8931,1.8748,1.8575,1.83,1.8099,1.7882,1.7621,1.7557,1.7752,1.8155,1.8133,1.8463,1.9025,1.9038,1.9157,1.9343,1.9065,1.9319,2.0111,2.0289,2.0504,2.0749,2.0824,2.0678,2.0255,1.9713,1.9324,1.9155,1.9102,1.8946,1.8706,1.8547,1.8366,1.8183,1.7983,1.7544,1.6786,0.0,0.0,0.0,0.0,0.0,0.0,0.0,0.0,0.0,0.0,0.0,0.0,0.0,0.0,1.4162,1.4391,0.0,1.4328,1.4903,0.0,0.0,0.0,1.5722,1.5945,1.6322,1.663,1.6863,0.0,0.0,1.8271,1.8831,1.9482,2.0129,2.1112,2.1992,2.2682,2.3408,2.3952,2.4287,2.416,2.4041,2.4008,2.3675,2.3142,2.2451,2.2042,2.1603,2.1147,2.0885,2.0568,2.0143,2.0008,1.9891,1.9496,1.9413,1.9413,1.9383,1.9325,1.9258,1.9219,1.9209,1.9217,2.1704,2.1675,2.1399,2.1299,2.1293,2.1284,2.1308,2.1274,2.1157,2.1074,2.1055,2.0937,2.0802,2.0602,2.0333,2.0127,1.994,1.9708,1.9484,1.9258,1.9105,1.8932,1.8709,1.8601,1.8541,1.8544,1.8454,1.8541,1.8786,1.8797,1.9146,1.98,1.9739,1.9733,1.9773,2.062,2.0854,2.0429,2.1079,2.1141,2.0587,1.9971,1.9597,1.9547,1.9055,1.8711,1.8556,1.8356,1.8183,1.7973,1.7831,1.7541,1.7082,1.6544,0.0,0.0,0.0,0.0,0.0,0.0,0.0,0.0,0.0,1.4157,1.4325,0.0,1.4242,0.0,1.4348,1.4493,1.4467,1.4817,0.0,0.0,1.5636,1.6039,1.652,1.675,1.7076,1.759,1.805,1.8468,1.8835,1.9678,2.0452,2.1025,2.18,2.2605,2.3413,2.4344,2.4956,2.4966,2.4652,2.4389,2.4348,2.3754,2.3069,2.2303,2.2028,2.1798,2.1574,2.1384,2.1172,2.0926,2.0893,2.0731,2.0349,2.0283,2.0273,2.0234,1.9774,1.9277,1.9277,1.9305,1.9287,2.2547,2.2532,2.2547,2.2558,2.2517,2.1934,2.1665,2.16,2.1545,2.145,2.1353,2.1161,2.093,2.0677,2.0497,2.0293,2.0063,1.9856,1.9657,1.9456,1.9324,1.9177,1.9004,1.8879,1.8905,1.9093,1.8974,1.9067,1.9357,1.9454,1.9849,2.0569,2.0694,2.0802,2.0946,2.1481,2.1685,2.1537,2.1571,2.1433,2.1087,2.0188,1.9686,1.9632,1.8921,1.8435,1.8252,1.8009,1.7777,1.7522,1.743,1.7285,1.7063,1.6654,1.6488,0.0,0.0,0.0,0.0,0.0,0.0,0.0,0.0,0.0,0.0,0.0,1.4489,1.4132,1.4473,1.4719,1.4732,1.5131,1.5481,1.5678,1.6138,1.6516,1.6851,1.7398,1.79,1.8212,1.8649,1.9169,1.9827,2.0379,2.1138,2.2162,2.2754,2.33,2.3944,2.4707,2.5241,2.5282,2.5042,2.4827,2.4763,2.4287,2.3682,2.304,2.2697,2.2421,2.2077,2.1853,2.1649,2.1394,2.1263,2.1109,2.0809,2.0644,2.0605,2.0546,2.0214,1.9911,1.9882,1.9891,1.9872,2.3584,2.3584,2.3584,2.3584,2.3505,2.2402,2.1878,2.1762,2.1742,2.1614,2.1401,2.1149,2.0848,2.055,2.0507,2.0321,2.0,1.9854,1.9687,1.9493,1.9367,1.9239,1.9133,1.897,1.9184,1.9662,1.9515,1.9735,2.0297,2.0476,2.0849,2.1392,2.1655,2.2075,2.2696,2.2535,2.2632,2.2991,2.2174,2.169,2.1619,2.0479,1.9774,1.9601,1.8805,1.8194,1.7862,1.7614,1.735,1.7137,1.7106,1.7091,1.7083,1.6977,1.7115,0.0,1.7521,0.0,0.0,0.0,0.0,0.0,0.0,0.0,0.0,1.5117,1.473,1.4351,1.48,1.5111,1.5111,1.5611,1.5996,1.6177,1.6666,1.7058,1.7233,1.8108,1.8749,1.8833,1.9328,1.9974,2.0762,2.1022,2.1771,2.3172,2.377,2.4143,2.4445,2.489,2.5235,2.5329,2.5347,2.5264,2.5099,2.4903,2.4569,2.402,2.3544,2.315,2.2566,2.2287,2.2006,2.1636,2.1378,2.1167,2.0964,2.078,2.0654,2.0673,2.0576,2.0537,2.0546,2.0537,2.0596,2.3584,2.3584,2.3584,2.3584,2.3569,2.328,2.3148,2.3131,2.2993,2.2794,2.2491,2.2325,2.2107,2.1833,2.1613,2.1356,2.1096,2.0845,2.069,2.0582,2.0446,2.0371,2.0347,2.0049,1.9976,2.0054,1.9851,2.0065,2.0752,2.0805,2.1218,2.1934,2.2001,2.2451,2.3276,0.0,0.0,0.0,2.2534,2.2245,2.1769,2.1048,2.0382,1.9781,1.907,0.0,1.7628,1.7362,1.741,1.7713,1.7621,0.0,0.0,0.0,0.0,0.0,0.0,0.0,0.0,0.0,0.0,0.0,1.6714,1.6131,1.5359,1.5214,1.5302,1.5551,1.5671,1.5736,1.574,1.5915,1.6223,1.6614,1.6866,1.7366,1.8255,1.8575,1.8934,1.9598,1.9879,2.0287,2.1013,2.1806,2.2697,2.3642,2.4484,2.5056,2.5308,2.5428,2.5518,2.5553,2.5565,2.5489,2.5159,2.5016,2.4759,2.4248,2.3806,2.3401,2.2945,2.2572,2.2214,2.1826,2.1578,2.1378,2.1186,2.1022,2.0897,2.0848,2.0712,2.0596,2.0596,2.0596,2.0596,2.4092,0.0,2.4092,2.4253,0.0,2.445,2.4359,2.4192,2.3488,2.3012,2.2686,2.2569,2.2482,2.2442,2.231,2.2231,2.2166,2.1976,2.1822,2.1733,2.1603,2.1537,2.1524,2.1289,2.1132,2.1039,2.0827,2.0885,2.1188,2.127,2.1645,2.2333,2.2402,2.2812,2.3526,2.3724,2.3586,2.3202,2.2992,2.2619,2.2055,2.1457,2.0832,2.0164,1.9422,0.0,0.0,0.0,0.0,0.0,0.0,0.0,0.0,0.0,0.0,1.8569,1.8459,1.8462,1.856,1.823,1.7952,1.7845,1.7319,1.6662,1.5858,1.5728,1.5752,1.5869,1.5899,1.5928,1.599,1.626,1.6601,1.7011,1.7526,1.8103,1.8696,1.9164,1.9539,1.9971,2.0522,2.114,2.1812,2.2679,2.3566,2.4395,2.4956,2.5418,2.5688,2.5758,2.5758,2.5753,2.5671,2.5577,2.5389,2.5165,2.4903,2.4436,2.4098,2.3666,2.3094,2.2823,2.2534,2.2063,2.1788,2.1578,2.1397,2.1215,2.1061,2.0935,2.0829,2.0712,2.0625,2.0596,2.0596,2.4716,2.4704,2.473,2.4971,2.5376,2.5325,2.5173,2.4847,0.0,0.0,0.0,2.2778,2.2776,2.287,2.2857,2.2918,2.299,2.2871,2.2737,2.259,2.2469,2.2401,2.2401,2.2252,2.2116,2.1953,2.1773,2.1711,2.1701,2.1772,2.2133,2.2696,2.2835,2.3125,2.3575,2.3878,2.3949,2.3843,2.342,2.2934,2.2392,2.1813,2.1195,2.06,1.9789,1.9212,1.8855,1.8673,1.849,1.8354,1.833,1.8392,1.848,1.8481,1.8681,1.9096,1.8996,1.9043,1.937,1.9024,1.8664,1.8367,1.7698,1.7068,1.6516,1.6296,1.6153,1.6044,1.6015,1.6097,1.6294,1.667,1.7113,1.7549,1.8301,1.8871,1.9126,1.9711,2.015,2.0318,2.112,2.2044,2.2808,2.349,2.4266,2.5062,2.5388,2.5576,2.5928,2.598,2.5945,2.5945,2.5888,2.5753,2.5571,2.5342,2.5016,2.4676,2.4381,2.3952,2.339,2.3094,2.2815,2.2384,2.2063,2.1864,2.1655,2.1464,2.1244,2.1042,2.0984,2.0906,2.0712,2.0654,2.0644,2.5103,2.5115,2.5115,2.5162,2.5224,2.5103,2.4907,2.4648,2.4461,2.433,2.4224,2.4033,2.3775,2.3464,2.3478,2.3288,2.3003,2.2858,2.2724,2.259,2.2469,2.2401,2.24,2.2265,2.2184,2.213,2.1841,2.1957,2.2387,2.2283,2.2573,2.3213,2.3304,2.3403,2.3586,2.3643,2.3664,2.3634,2.3632,2.3338,2.2738,2.2137,2.1513,2.0843,2.0128,1.9376,1.8677,1.8522,1.8572,1.887,1.8895,1.9083,1.9535,1.956,1.9623,1.9673,1.9453,1.9347,1.9369,1.9037,1.861,1.8177,1.7626,1.7152,1.679,1.6609,1.6528,1.6485,1.6516,1.6677,1.7076,1.7316,1.776,1.8536,1.8933,1.9339,1.9841,2.0177,2.0463,2.0696,2.1446,2.2434,2.3465,2.4161,2.4696,2.5232,2.5741,2.6136,2.6292,2.627,2.6166,2.6179,2.628,2.6129,2.5753,2.543,2.5206,2.5058,2.4568,2.4218,2.397,2.3475,2.3038,2.2889,2.2553,2.2271,2.2044,2.1864,2.1646,2.1455,2.136,2.1226,2.0926,2.0858,2.0809,2.5742,2.5742,2.5756,2.5899,2.6161,2.593,2.575,2.5608,2.548,2.4991,2.4344,2.4077,2.4016,2.4073,2.4022,2.4,2.3985,2.3833,2.368,2.3514,2.34,2.3315,2.3314,2.3271,2.3188,2.3102,2.2847,2.2843,2.2997,2.2833,2.2914,2.3241,2.3558,2.3799,2.3936,2.3938,2.3968,2.4031,2.3776,2.3376,2.2816,2.2528,2.2097,2.1471,2.0836,2.0296,1.9863,1.947,1.932,1.9434,1.9422,1.9547,1.9786,1.9811,1.9811,1.9785,1.9617,1.9473,1.9407,1.9024,1.8728,1.8545,1.8314,1.817,1.8108,1.7238,1.6818,1.705,1.7072,1.7273,1.7749,1.8181,1.8625,1.9118,1.9574,2.0049,2.0462,2.0711,2.0908,2.1185,2.2118,2.3079,2.3766,2.4592,2.5297,2.5721,2.6136,2.6396,2.6482,2.643,2.6361,2.6361,2.6347,2.6221,2.5957,2.5671,2.543,2.5235,2.4915,2.4568,2.4298,2.3824,2.3567,2.3224,2.2927,2.2665,2.2459,2.2252,2.2035,2.1731,2.1627,2.1465,2.1177,2.1051,2.0945,2.6289,2.6264,2.6264,2.6495,2.6804,2.6551,2.6431,2.6377,2.615,2.5479,2.4594,2.4318,2.4413,2.4681,2.4573,2.4613,2.4794,2.4678,2.4507,2.4363,2.4187,2.4111,2.4111,2.4111,2.4052,2.3946,2.3831,2.3716,2.3623,2.354,2.3484,2.3534,2.3951,2.4214,2.4337,2.4337,2.4399,2.4457,2.3979,2.345,2.3,2.2861,2.2578,2.21,2.155,2.1189,2.1056,2.061,2.0292,2.0201,2.0175,2.0174,2.0188,2.0188,2.0175,2.0174,2.0056,1.991,1.9722,1.94,1.9213,1.9236,1.9183,1.9186,1.9186,1.8163,1.7525,1.7779,1.7844,1.8048,1.8526,1.8995,1.9456,1.973,2.022,2.0672,2.0967,2.1201,2.1364,2.1615,2.2698,2.3644,2.4111,2.5008,2.5814,2.6176,2.6396,2.6487,2.6487,2.6487,2.6487,2.6482,2.6374,2.6265,2.6213,2.5945,2.5658,2.5418,2.5235,2.4933,2.455,2.4352,2.4098,2.3622,2.3353,2.3113,2.2889,2.2665,2.2421,2.212,2.1997,2.1807,2.1455,2.1244,2.11,2.6624,2.6477,2.6462,2.6427,2.6395,2.634,2.6275,2.6153,2.5989,2.5797,2.5575,2.5521,2.5453,2.5384,2.5176,2.5049,2.499,2.472,2.4618,2.4574,2.4258,2.4111,2.4163,2.4137,2.4083,2.4129,2.4244,2.4308,2.4331,2.4491,2.4616,2.4666,2.4704,2.4745,2.4745,2.4745,2.4761,2.4736,2.4224,2.3837,2.3535,2.3052,2.2757,2.2706,2.2017,2.1641,2.1601,2.1452,2.1344,2.133,2.1306,2.1317,2.1319,2.1331,2.1317,2.1292,2.1192,2.102,2.0686,2.0529,2.0346,2.0258,1.9971,1.9787,1.9703,1.942,1.9115,1.8974,1.8888,1.9042,1.9494,1.9756,2.0098,2.061,2.0937,2.1206,2.1348,2.1533,2.1671,2.1761,2.2958,2.3958,2.4542,2.5456,2.6181,2.6396,2.6465,2.6487,2.6487,2.6487,2.6487,2.6487,2.6452,2.6379,2.6253,2.6196,2.5963,2.5623,2.543,2.52,2.4969,2.4694,2.4381,2.4134,2.3916,2.3677,2.3353,2.3075,2.2889,2.2628,2.2421,2.2225,2.1807,2.1493,2.1215,2.646,2.6393,2.6365,2.6513,2.6676,2.6635,2.6722,2.6904,2.6746,2.6618,2.6574,2.6502,2.6058,2.5327,2.516,2.5238,2.5506,2.5215,2.5282,2.556,2.5255,2.5116,2.5116,2.5116,2.5088,2.5071,2.4998,2.4945,2.4921,2.4839,2.4816,2.4854,2.5105,2.5256,2.5272,2.5285,2.5285,2.5259,2.4757,2.4416,2.4223,2.3457,2.2976,2.2926,2.2375,2.207,2.2018,2.1685,2.1481,2.1481,2.1481,2.1481,2.1481,2.1481,2.1481,2.1481,2.138,2.1239,2.1098,2.087,2.0791,2.097,2.0745,2.0669,2.0876,2.0822,2.0727,2.0565,2.0072,1.9945,2.049,2.0711,2.0917,2.1175,2.1375,2.1549,2.1694,2.189,2.2046,2.223,2.3292,2.4226,2.4698,2.5639,2.6333,2.6469,2.6487,2.6487,2.6487,2.6487,2.6487,2.6487,2.6487,2.6469,2.6379,2.627,2.6131,2.5992,2.5805,2.5588,2.5259,2.5129,2.4897,2.4586,2.44,2.4171,2.3886,2.3659,2.3457,2.315,2.2777,2.2478,2.2214,2.1921,2.1674,2.6649,2.6635,2.6565,2.6736,2.7031,2.696,2.711,2.7352,2.7187,2.7083,2.7068,2.6903,2.6337,2.5575,2.5436,2.565,2.5987,2.5713,2.5804,2.6144,2.5934,2.578,2.5795,2.5795,2.5777,2.5696,2.5588,2.555,2.5597,2.5391,2.5272,2.5335,2.5665,2.5841,2.5854,2.5866,2.5854,2.5787,2.531,2.5017,2.4892,2.4061,2.3496,2.3321,2.2822,2.2521,2.2521,2.2159,2.1945,2.1945,2.1933,2.1933,2.1933,2.1933,2.1933,2.1931,2.1845,2.1759,2.1728,2.1512,2.1494,2.1722,2.1563,2.1551,2.1776,2.1792,2.1773,2.1745,2.116,2.0966,2.1228,2.1415,2.151,2.1604,2.1753,2.189,2.2092,2.2263,2.2431,2.2734,2.3687,2.4612,2.5128,2.5907,2.6487,2.6487,2.6487,2.6487,2.6487,2.6487,2.6487,2.6487,2.6487,2.6487,2.6499,2.6396,2.6287,2.6196,2.6032,2.5846,2.5523,2.5483,2.5342,2.4998,2.482,2.4616,2.4363,2.4164,2.3916,2.353,2.315,2.2833,2.2609,2.2402,2.2157,2.756,2.7386,2.7239,2.7152,2.7192,2.7191,2.7219,2.7296,2.7,2.685,2.6859,2.6559,2.634,2.6289,2.6382,2.6442,2.6423,2.6144,2.6042,2.6135,2.595,2.5835,2.5795,2.578,2.5728,2.5741,2.5945,2.6163,2.6374,2.639,2.6424,2.6386,2.6386,2.6424,2.6399,2.6399,2.6436,2.6323,2.5854,2.5561,2.5498,2.5005,2.4453,2.4004,2.3386,2.3083,2.3058,2.3045,2.2995,2.302,2.2957,2.2997,2.2995,2.2982,2.2957,2.297,2.2982,2.292,2.2787,2.2705,2.2664,2.2589,2.2369,2.2264,2.2173,2.2034,2.2023,2.2157,2.2068,2.1916,2.1784,2.1792,2.1859,2.2108,2.2178,2.2345,2.2638,2.2764,2.2917,2.3406,2.4154,2.5049,2.6159,2.6449,2.6487,2.6487,2.6487,2.6487,2.6487,2.6487,2.6487,2.6487,2.6487,2.6487,2.6487,2.6452,2.6379,2.6305,2.6218,2.6114,2.598,2.5823,2.5618,2.543,2.5271,2.507,2.4843,2.4574,2.4273,2.3934,2.3574,2.3279,2.3094,2.2833,2.2572,2.7351,2.7291,2.7142,2.7241,2.7491,2.7383,2.7491,2.7761,2.7664,2.7629,2.7613,2.7504,2.744,2.7456,2.7365,2.7181,2.6938,2.6694,2.678,2.7097,2.6974,2.6876,2.6876,2.6808,2.6726,2.6653,2.6555,2.6489,2.6483,2.6487,2.6487,2.6487,2.6487,2.6487,2.6487,2.6487,2.6487,2.6461,2.6256,2.6185,2.6122,2.5611,2.5193,2.4996,2.4139,2.3662,2.3675,2.3296,2.3095,2.3095,2.3108,2.3095,2.3095,2.3095,2.3095,2.3095,2.3095,2.3078,2.3032,2.2942,2.2878,2.2818,2.2693,2.2571,2.2525,2.2448,2.2441,2.2493,2.2515,2.2569,2.2743,2.2539,2.2398,2.2515,2.283,2.3069,2.3268,2.3612,2.3984,2.4264,2.4817,2.5574,2.6201,2.6487,2.6487,2.6487,2.6487,2.6487,2.6487,2.6487,2.6487,2.6487,2.6487,2.6487,2.6487,2.6487,2.6452,2.643,2.6361,2.6258,2.6154,2.6084,2.5928,2.5735,2.5618,2.5412,2.5135,2.4867,2.4598,2.4363,2.4007,2.3769,2.3622,2.329,2.2993,2.7489,2.7474,2.7379,2.753,2.7786,2.769,2.7806,2.8082,2.8046,2.8,2.8,2.7934,2.7914,2.7868,2.7706,2.7505,2.7232,2.7111,2.7321,2.7663,2.7506,2.7453,2.7419,2.7281,2.718,2.7066,2.6794,2.6572,2.6516,2.6487,2.6487,2.6487,2.6487,2.6487,2.6487,2.6487,2.6487,2.6487,2.6487,2.6487,2.6436,2.6109,2.5891,2.5753,2.4983,2.4418,2.4268,2.3847,2.3647,2.3647,2.3647,2.3572,2.3409,2.3208,2.3095,2.3095,2.3095,2.3095,2.308,2.303,2.2942,2.2942,2.2833,2.2754,2.2754,2.2708,2.2788,2.2948,2.3047,2.3256,2.3696,2.3599,2.3362,2.3365,2.3633,2.3859,2.3947,2.437,2.468,2.4949,2.5482,2.6025,2.6399,2.6474,2.6487,2.6487,2.6487,2.6487,2.6487,2.6487,2.6487,2.6487,2.6487,2.6487,2.6487,2.6487,2.6487,2.6469,2.6452,2.6379,2.6327,2.6292,2.6218,2.6032,2.5858,2.5671,2.5442,2.5159,2.4927,2.4742,2.4508,2.4243,2.4007,2.3696,2.3383,2.8059,2.8051,2.8099,2.8005,2.8032,2.7969,2.8066,2.8013,2.7838,2.7739,2.7706,2.7573,2.7503,2.7486,2.7386,2.7306,2.7287,2.7345,2.7404,2.7469,2.7352,2.7285,2.7268,2.7096,2.6909,2.6731,2.6585,2.6504,2.6487,2.6487,2.6487,2.6487,2.6487,2.6487,2.6487,2.6487,2.6487,2.6487,2.6487,2.6487,2.6487,2.6436,2.6399,2.6373,2.5854,2.5335,2.4879,2.4766,2.4666,2.4691,2.4687,2.4515,2.4004,2.3549,2.3183,2.3258,2.3195,2.317,2.3195,2.323,2.3265,2.3263,2.3056,2.3095,2.3114,2.2985,2.3133,2.3596,2.3733,2.3995,2.4607,2.4708,2.4594,2.4597,2.4515,2.4626,2.4736,2.4813,2.503,2.5561,2.608,2.6436,2.6487,2.6487,2.6487,2.6487,2.6487,2.6487,2.6487,2.6487,2.6487,2.6487,2.6487,2.6487,2.6487,2.6487,2.6487,2.6487,2.6487,2.6452,2.6435,2.6413,2.6344,2.6206,2.6114,2.5928,2.5671,2.5424,2.5288,2.5093,2.4891,2.4688,2.4406,2.4116,2.3732,2.8112,2.8079,2.7967,2.7901,2.7855,2.7653,2.7549,2.7549,2.7335,2.7248,2.7235,2.718,2.7146,2.7163,2.7113,2.7096,2.7083,2.7146,2.715,2.7146,2.7113,2.7109,2.7062,2.6892,2.6709,2.6572,2.6521,2.6487,2.6487,2.6487,2.6487,2.6487,2.6487,2.6487,2.6487,2.6487,2.6487,2.6487,2.6487,2.6487,2.6487,2.6487,2.6487,2.6474,2.6311,2.6122,2.5954,2.5234,2.4829,2.4842,2.4816,2.4729,2.454,2.4377,2.4277,2.4261,2.4277,2.4274,2.4277,2.4236,2.4227,2.4249,2.4217,2.4198,2.421,2.4125,2.4181,2.4446,2.4466,2.4723,2.5202,2.5365,2.5189,2.4789,2.5052,2.531,2.5394,2.569,2.6021,2.6168,2.6386,2.6491,2.6487,2.6487,2.6487,2.6487,2.6487,2.6487,2.6487,2.6487,2.6487,2.6487,2.6487,2.6487,2.6487,2.6487,2.6487,2.6487,2.6487,2.6487,2.6487,2.6487,2.6435,2.6379,2.6287,2.6131,2.5893,2.5723,2.5588,2.5465,2.5253,2.504,2.4838,2.4503,2.4159,2.7683,2.7669,2.7553,2.7506,2.7473,2.7281,2.718,2.7163,2.7075,2.7007,2.7007,2.7007,2.7007,2.699,2.6926,2.6892,2.6875,2.6841,2.6807,2.6824,2.6875,2.6892,2.6863,2.6709,2.6589,2.6504,2.6487,2.6487,2.6487,2.6487,2.6487,2.6487,2.6487,2.6487,2.6487,2.6487,2.6487,2.6487,2.6487,2.6487,2.6487,2.6487,2.6487,2.6487,2.6487,2.6487,2.6453,2.5774,2.5423,2.5402,2.5247,2.5093,2.5109,2.4917,2.4816,2.4816,2.4804,2.4791,2.4816,2.4741,2.4816,2.4816,2.4816,2.4804,2.4804,2.4816,2.4854,2.5055,2.5105,2.5318,2.5816,2.5942,2.5778,2.5498,2.5737,2.5946,2.6005,2.6243,2.6449,2.6461,2.6487,2.6487,2.6487,2.6487,2.6487,2.6487,2.6487,2.6487,2.6487,2.6487,2.6487,2.6487,2.6487,2.6487,2.6487,2.6487,2.6487,2.6487,2.6487,2.6487,2.6487,2.6487,2.6452,2.6465,2.6379,2.6287,2.6079,2.6015,2.591,2.5758,2.5588,2.5394,2.5164,2.4951,2.4611,2.7024,2.7007,2.7024,2.7041,2.7028,2.7007,2.6977,2.6973,2.6956,2.6956,2.6956,2.6939,2.6956,2.6909,2.676,2.6709,2.6675,2.6589,2.6538,2.6572,2.6641,2.6679,2.6679,2.6589,2.6516,2.6487,2.6487,2.6487,2.6487,2.6487,2.6487,2.6487,2.6487,2.6487,2.6487,2.6487,2.6487,2.6487,2.6487,2.6487,2.6487,2.6487,2.6487,2.6487,2.6487,2.6487,2.6461,2.6373,2.6386,2.6399,2.5904,2.5649,2.5573,2.5184,2.5017,2.5042,2.4942,2.5021,2.4954,2.5096,2.5071,2.508,2.5096,2.4888,2.5055,2.5146,2.5272,2.5598,2.5649,2.5866,2.6311,2.6424,2.6386,2.6449,2.6361,2.6399,2.6461,2.6487,2.6487,2.6487,2.6487,2.6487,2.6487,2.6487,2.6487,2.6487,2.6487,2.6487,2.6487,2.6487,2.6487,2.6487,2.6487,2.6487,2.6487,2.6487,2.6487,2.6487,2.6487,2.6487,2.6487,2.6487,2.6487,2.6499,2.6482,2.6374,2.6305,2.624,2.6119,2.5963,2.5793,2.5688,2.5465,2.5235,2.4987,2.7007,2.7007,2.7007,2.7007,2.699,2.6846,2.6765,2.676,2.6688,2.6671,2.6636,2.6636,2.6653,2.6636,2.6589,2.6555,2.6538,2.6504,2.6487,2.6516,2.6538,2.6555,2.6555,2.6521,2.6487,2.6487,2.6487,2.6487,2.6487,2.6487,2.6499,2.6487,2.6537,2.6524,2.6487,2.6549,2.6487,2.6487,2.6499,2.6537,2.6549,2.6549,2.6487,2.6487,2.6524,2.6524,2.6499,2.6487,2.6487,2.6487,2.6373,2.626,2.621,2.6055,2.5942,2.5942,2.6009,2.6034,2.6005,2.5992,2.6021,2.6042,2.5929,2.6059,2.6059,2.603,2.6122,2.626,2.6273,2.6298,2.6461,2.6512,2.6499,2.6487,2.6575,2.6562,2.6487,2.6487,2.6487,2.6487,2.6487,2.6487,2.6487,2.6487,2.6487,2.6487,2.6487,2.6487,2.6487,2.6487,2.6487,2.6487,2.6487,2.6487,2.6487,2.6487,2.6487,2.6487,2.6487,2.6487,2.6487,2.6487,2.6487,2.6487,2.6499,2.6413,2.643,2.6401,2.6275,2.6149,2.6067,2.595,2.5641,2.5394,2.5235,2.6773,2.6803,2.679,2.679,2.6773,2.6658,2.6611,2.6607,2.6521,2.6487,2.6487,2.6487,2.6487,2.6487,2.6487,2.6487,2.6487,2.6487,2.6487,2.6487,2.6487,2.6504,2.6487,2.6487,2.6487,2.6487,2.6487,2.6487,2.6487,2.6487,2.66,2.6826,2.6839,2.6934,2.7223,2.7173,2.716,2.7185,2.716,2.7173,2.7173,2.7173,2.7173,2.7173,2.716,2.7178,2.7173,2.7185,2.6984,2.6637,2.6487,2.6487,2.6487,2.6487,2.6487,2.6487,2.6487,2.6474,2.6487,2.6487,2.6487,2.6487,2.6487,2.6487,2.6461,2.6487,2.6487,2.6474,2.6487,2.6487,2.6537,2.6688,2.6813,2.6889,2.7052,2.6977,2.6575,2.6487,2.6487,2.6487,2.6487,2.6499,2.6499,2.6512,2.6499,2.6487,2.6487,2.6487,2.6487,2.6487,2.6487,2.6487,2.6487,2.6487,2.6487,2.6487,2.6487,2.6487,2.6487,2.6487,2.6487,2.6487,2.6487,2.6487,2.6487,2.6487,2.6487,2.6487,2.643,2.6344,2.631,2.6188,2.5898,2.5606,2.5447,2.6487,2.6487,2.6487,2.6487,2.6504,2.6487,2.6504,2.6516,2.6487,2.6487,2.6487,2.6487,2.6487,2.6487,2.6487,2.6487,2.6487,2.6487,2.6487,2.6487,2.6487,2.6487,2.6487,2.6487,2.6487,2.6487,2.6487,2.6487,2.6524,2.6537,2.6851,2.716,2.7298,2.7625,2.7833,2.7996,2.8084,2.7984,2.7921,2.7908,2.7908,2.7908,2.7883,2.7896,2.7908,2.7921,2.7971,2.7971,2.7632,2.6743,2.6625,2.6587,2.6549,2.6487,2.6487,2.6487,2.6487,2.6487,2.6487,2.6487,2.6487,2.6487,2.6487,2.6487,2.6487,2.6487,2.6537,2.6675,2.6604,2.67,2.6859,2.7165,2.7354,2.7437,2.7795,2.7562,2.6947,2.6663,2.6663,2.6645,2.6688,2.6675,2.6663,2.6655,2.6672,2.6793,2.674,2.6665,2.6576,2.6487,2.6487,2.6487,2.6487,2.6487,2.6487,2.6487,2.6487,2.6487,2.6487,2.6487,2.6487,2.6487,2.6487,2.6487,2.6487,2.6487,2.6487,2.6487,2.6482,2.6482,2.6413,2.6339,2.6201,2.591,2.57,2.6487,2.6487,2.6487,2.6487,2.6487,2.6487,2.6487,2.6487,2.6487,2.6487,2.6487,2.6487,2.6487,2.6487,2.6487,2.6487,2.6499,2.6512,2.6487,2.6487,2.6487,2.6499,2.6537,2.6575,2.6524,2.6512,2.6487,2.6499,2.6587,2.6939,2.7173,2.7374,2.7783,2.7996,2.8147,2.826,2.8122,2.8122,2.8147,2.8197,2.8222,2.8222,2.8222,2.821,2.8197,2.8147,2.8122,2.8109,2.7984,2.772,2.7356,2.7052,2.6713,2.6587,2.66,2.6612,2.6575,2.6549,2.6512,2.6587,2.6512,2.66,2.6637,2.6487,2.6487,2.6562,2.6751,2.7002,2.7135,2.7286,2.7582,2.7808,2.7921,2.7971,2.8084,2.8109,2.7821,2.7733,2.7663,2.767,2.767,2.7733,2.7708,2.7642,2.7503,2.7248,2.7031,2.692,2.675,2.6567,2.6487,2.6487,2.6487,2.6487,2.6487,2.6487,2.6487,2.6487,2.6487,2.6487,2.6487,2.6487,2.6487,2.6487,2.6487,2.6487,2.6487,2.6487,2.6487,2.6487,2.6487,2.6396,2.6287,2.6067,2.5888,2.6487,2.6487,2.6487,2.6487,2.6487,2.6487,2.6487,2.6487,2.6487,2.6487,2.6487,2.6487,2.6487,2.6487,2.6487,2.6487,2.6562,2.6771,2.7022,2.7211,2.7273,2.7261,2.7248,2.7173,2.706,2.6675,2.6788,2.6864,2.701,2.7399,2.7808,2.8047,2.8342,2.8656,2.8863,2.8844,2.8938,2.895,2.89,2.89,2.89,2.89,2.89,2.89,2.89,2.89,2.8938,2.8925,2.8762,2.8499,2.8197,2.7808,2.7361,2.7236,2.7248,2.7248,2.7248,2.7248,2.7248,2.7248,2.7286,2.7236,2.7248,2.7248,2.7248,2.7261,2.7361,2.7582,2.7695,2.7808,2.8066,2.8392,2.8442,2.853,2.8737,2.8875,2.8812,2.8461,2.8109,2.8109,2.8047,2.8059,2.8101,2.8261,2.8091,2.7706,2.7309,2.717,2.6976,2.6771,2.6537,2.6487,2.6487,2.6487,2.6487,2.6487,2.6487,2.6487,2.6487,2.6487,2.6487,2.6487,2.6487,2.6487,2.6487,2.6487,2.6487,2.6487,2.6487,2.6487,2.6469,2.6418,2.6327,2.6102,2.5945,2.6487,2.6487,2.6487,2.6487,2.6487,2.6487,2.6487,2.6487,2.6487,2.6487,2.6524,2.6562,2.67,2.6663,2.6801,2.678,2.6901,2.7173,2.7607,2.7883,2.7921,2.7921,2.7934,2.7858,2.7595,2.6834,2.7198,2.7394,2.7544,2.7946,2.8367,2.8819,2.9001,2.9208,2.9654,2.9767,2.9641,2.9603,2.9603,2.9628,2.9641,2.9654,2.9654,2.9628,2.9616,2.9616,2.9603,2.9603,2.9528,2.9082,2.9045,2.8781,2.8473,2.8134,2.8109,2.8059,2.7971,2.7921,2.7896,2.7984,2.8009,2.8109,2.8072,2.8072,2.8034,2.7984,2.8059,2.8204,2.8317,2.8461,2.8392,2.8769,2.9019,2.9107,2.9496,2.9741,2.9628,2.8913,2.8586,2.8486,2.8649,2.8712,2.8624,2.8667,2.8429,2.8185,2.7788,2.7449,2.7286,2.7047,2.6821,2.6612,2.6612,2.6512,2.6487,2.6487,2.6487,2.6487,2.6487,2.6487,2.6487,2.6487,2.6487,2.6487,2.6487,2.6487,2.6487,2.6487,2.6487,2.6487,2.6487,2.6452,2.6327,2.6154,2.6059,2.6487,2.6487,2.6487,2.6487,2.6487,2.6487,2.6499,2.6487,2.6537,2.6499,2.66,2.6977,2.716,2.7248,2.7657,2.7808,2.7783,2.7946,2.8041,2.8222,2.8247,2.826,2.8298,2.8335,2.8053,2.7921,2.7984,2.8034,2.8079,2.8493,2.8844,2.9019,2.9358,2.9716,2.9729,2.9779,2.9779,2.9779,2.9779,2.9779,2.9779,2.9779,2.9779,2.9779,2.9779,2.9779,2.9779,2.9779,2.9741,2.9666,2.9634,2.9566,2.9277,2.8624,2.8285,2.826,2.8285,2.8335,2.831,2.821,2.8147,2.8109,2.8222,2.821,2.8197,2.821,2.8473,2.88,2.9164,2.944,2.9535,2.9503,2.9591,2.9666,2.9679,2.9779,2.9741,2.9553,2.934,2.9264,2.9352,2.9377,2.9227,2.9114,2.9013,2.8787,2.8467,2.814,2.7921,2.757,2.7205,2.6984,2.6758,2.6625,2.6487,2.6487,2.6487,2.6487,2.6487,2.6487,2.6487,2.6487,2.6487,2.6487,2.6487,2.6487,2.6487,2.6487,2.6487,2.6487,2.6487,2.6487,2.6364,2.6223,2.6272,2.6763,2.6499,2.6487,2.6487,2.6487,2.6487,2.6663,2.6884,2.6914,2.7077,2.7336,2.7595,2.7708,2.7783,2.7964,2.8235,2.8467,2.8518,2.8681,2.8888,2.8976,2.8976,2.8938,2.895,2.8988,2.8976,2.8976,2.8762,2.8593,2.9082,2.9296,2.9408,2.9691,2.9779,2.9779,2.9779,2.9779,2.9779,2.9779,2.9779,2.9779,2.9779,2.9779,2.9779,2.9779,2.9779,2.9779,2.9779,2.9779,2.9779,2.9779,2.9779,2.9616,2.9352,2.895,2.8938,2.8925,2.895,2.8963,2.8976,2.9026,2.9001,2.895,2.8976,2.8988,2.9051,2.9051,2.9327,2.9515,2.9779,2.9741,2.9779,2.9779,2.9779,2.9779,2.9779,2.9779,2.9779,2.9779,2.9779,2.9679,2.9616,2.9679,2.9603,2.9591,2.9409,2.9114,2.8831,2.8561,2.8122,2.767,2.7286,2.7022,2.6846,2.6738,2.6751,2.6763,2.6725,2.6688,2.6688,2.6637,2.6713,2.6587,2.6487,2.6487,2.6675,2.6487,2.6487,2.6487,2.6499,2.6537,2.6527,2.6409,2.6342,2.6446,2.7211,2.6809,2.6826,2.6826,2.6826,2.6809,2.709,2.7412,2.7474,2.7657,2.8072,2.8191,2.8273,2.831,2.8461,2.8712,2.907,2.9095,2.934,2.9591,2.9666,2.9741,2.9767,2.9779,2.9679,2.9578,2.9628,2.9553,2.9252,2.9503,2.9716,2.9729,2.9767,2.9779,2.9779,2.9779,2.9779,2.9779,2.9779,2.9779,2.9779,2.9779,2.9779,2.9779,2.9779,2.9779,2.9779,2.9779,2.9779,2.9779,2.9779,2.9779,2.9779,2.9779,2.9779,2.9779,2.9779,2.9779,2.9741,2.9704,2.9616,2.9591,2.9729,2.9754,2.9729,2.9603,2.9704,2.9779,2.9779,2.9779,2.9779,2.9779,2.9779,2.9779,2.9779,2.9779,2.9779,2.9779,2.9779,2.9779,2.9779,2.9779,2.9779,2.9779,2.9704,2.9679,2.9396,2.9346,2.9051,2.8599,2.8134,2.7638,2.7311,2.711,2.706,2.7153,2.7173,2.7223,2.7211,2.7211,2.7085,2.6997,2.6922,2.6947,2.701,2.7148,2.6839,2.6499,2.6487,2.6512,2.6575,2.6614,2.6631,2.6754,2.6901,2.7953,2.7908,2.7908,2.7921,2.7871,2.7846,2.7908,2.7996,2.8009,2.8021,2.8285,2.8593,2.8819,2.8907,2.9327,2.9566,2.9641,2.9628,2.9641,2.9779,2.9779,2.9779,2.9779,2.9779,2.9779,2.9779,2.9779,2.9767,2.9641,2.9716,2.9779,2.9779,2.9779,2.9779,2.9779,2.9779,2.9779,2.9779,2.9779,2.9779,2.9779,2.9779,2.9779,2.9779,2.9779,2.9779,2.9779,2.9779,2.9779,2.9779,2.9779,2.9779,2.9779,2.9779,2.9779,2.9779,2.9779,2.9779,2.9779,2.9779,2.9779,2.9779,2.9779,2.9779,2.9779,2.9779,2.9779,2.9779,2.9779,2.9779,2.9779,2.9779,2.9779,2.9779,2.9779,2.9779,2.9779,2.9779,2.9779,2.9779,2.9779,2.9779,2.9779,2.9779,2.9779,2.9767,2.9741,2.9666,2.9465,2.8976,2.8605,2.8122,2.7738,2.7537,2.7449,2.7525,2.7575,2.7657,2.767,2.7688,2.7587,2.7494,2.772,2.7745,2.7733,2.7499,2.711,2.6813,2.66,2.6708,2.7,2.7019,2.6952,2.7108,2.7279,2.8687,2.8122,2.8109,2.8109,2.8109,2.8109,2.8298,2.8518,2.8543,2.8743,2.9063,2.9289,2.9415,2.9465,2.9736,2.9767,2.9779,2.9779,2.9779,2.9779,2.9779,2.9779,2.9779,2.9779,2.9779,2.9779,2.9779,2.9779,2.9779,2.9779,2.9779,2.9779,2.9779,2.9779,2.9779,2.9779,2.9779,2.9779,2.9779,2.9779,2.9779,2.9779,2.9779,2.9779,2.9779,2.9779,2.9779,2.9779,2.9779,2.9779,2.9779,2.9779,2.9779,2.9779,2.9779,2.9779,2.9779,2.9779,2.9779,2.9779,2.9779,2.9779,2.9779,2.9779,2.9779,2.9779,2.9779,2.9779,2.9779,2.9779,2.9779,2.9779,2.9779,2.9779,2.9779,2.9779,2.9779,2.9779,2.9779,2.9779,2.9779,2.9779,2.9779,2.9779,2.9779,2.9779,2.9767,2.9729,2.9528,2.9157,2.8869,2.8631,2.8267,2.7984,2.7921,2.7921,2.7934,2.7996,2.7996,2.7996,2.8009,2.8059,2.8273,2.8222,2.8021,2.772,2.7399,2.7331,2.7318,2.7408,2.7505,2.743,2.7359,2.7376,2.7457,2.9289,2.8536,2.8536,2.8536,2.8536,2.8536,2.8762,2.9095,2.912,2.9371,2.9691,2.9767,2.9767,2.9779,2.9779,2.9779,2.9779,2.9779,2.9779,2.9779,2.9779,2.9779,2.9779,2.9779,2.9779,2.9779,2.9779,2.9779,2.9779,2.9779,2.9779,2.9779,2.9779,2.9779,2.9779,2.9779,2.9779,2.9779,2.9779,2.9779,2.9779,2.9779,2.9779,2.9779,2.9779,2.9779,2.9779,2.9779,2.9779,2.9779,2.9779,2.9779,2.9779,2.9779,2.9779,2.9779,2.9779,2.9779,2.9779,2.9779,2.9779,2.9779,2.9779,2.9779,2.9779,2.9779,2.9779,2.9779,2.9779,2.9779,2.9779,2.9779,2.9779,2.9779,2.9779,2.9779,2.9779,2.9779,2.9779,2.9779,2.9779,2.9779,2.9779,2.9779,2.9779,2.9779,2.9779,2.9779,2.9603,2.9321,2.9233,2.9082,2.8969,2.8725,2.8687,2.8599,2.8524,2.8436,2.8423,2.8511,2.8637,2.8687,2.8831,2.8649,2.8417,2.8524,2.8555,2.831,2.806,2.7881,2.7759,2.7786,2.7765,2.7743,2.7533,2.9754,2.9698,2.9641,2.9616,2.9603,2.9666,2.9666,2.9654,2.9691,2.9704,2.9798,2.9779,2.9779,2.9779,2.9779,2.9779,2.9779,2.9779,2.9779,2.9779,2.9779,2.9779,2.9779,2.9779,2.9779,2.9779,2.9779,2.9779,2.9779,2.9779,2.9779,2.9779,2.9779,2.9779,2.9779,2.9779,2.9779,2.9779,2.9779,2.9779,2.9779,2.9779,2.9779,2.9779,2.9779,2.9779,2.9779,2.9779,2.9779,2.9779,2.9779,2.9779,2.9779,2.9779,2.9779,2.9779,2.9779,2.9779,2.9779,2.9779,2.9779,2.9779,2.9779,2.9779,2.9779,2.9779,2.9779,2.9779,2.9779,2.9779,2.9779,2.9779,2.9779,2.9779,2.9779,2.9779,2.9779,2.9779,2.9779,2.9779,2.9779,2.9779,2.9779,2.9779,2.9779,2.9779,2.9779,2.9779,2.9779,2.9603,2.9654,2.9603,2.9628,2.9566,2.9591,2.9465,2.9202,2.9151,2.9164,2.9315,2.9478,2.949,2.9296,2.934,2.9214,2.9453,2.9515,2.8938,2.845,2.8126,2.799,2.8085,2.7878,2.7671,2.7429,2.9779,2.9779,2.9779,2.9779,2.9779,2.9779,2.9779,2.9779,2.9779,2.9779,2.9779,2.9779,2.9779,2.9779,2.9779,2.9779,2.9779,2.9779,2.9779,2.9779,2.9779,2.9779,2.9779,2.9779,2.9779,2.9779,2.9779,2.9779,2.9779,2.9779,2.9779,2.9779,2.9779,2.9779,2.9779,2.9779,2.9779,2.9779,2.9779,2.9779,2.9779,2.9779,2.9779,2.9779,2.9779,2.9779,2.9779,2.9779,2.9779,2.9779,2.9779,2.9779,2.9779,2.9779,2.9779,2.9779,2.9779,2.9779,2.9779,2.9779,2.9779,2.9779,2.9779,2.9779,2.9779,2.9779,2.9779,2.9779,2.9779,2.9779,2.9779,2.9779,2.9779,2.9779,2.9779,2.9779,2.9779,2.9779,2.9779,2.9779,2.9779,2.9779,2.9779,2.9779,2.9779,2.9779,2.9779,2.9779,2.9779,2.9779,2.9779,2.9779,2.9779,2.9779,2.9779,2.9779,2.9779,2.9779,2.9779,2.9779,2.9779,2.9767,2.9628,2.9767,2.974,2.9626,2.945,2.918,2.8873,2.861,2.8485,2.8451,2.8112,2.7618,2.7204,2.9779,2.9779,2.9779,2.9779,2.9779,2.9779,2.9779,2.9779,2.9779,2.9779,2.9779,2.9779,2.9779,2.9779,2.9779,2.9779,2.9779,2.9779,2.9779,2.9779,2.9779,2.9779,2.9779,2.9779,2.9779,2.9779,2.9779,2.9779,2.9779,2.9779,2.9779,2.9779,2.9779,2.9779,2.9779,2.9779,2.9779,2.9779,2.9779,2.9779,2.9779,2.9779,2.9779,2.9779,2.9779,2.9779,2.9779,2.9779,2.9779,2.9779,2.9779,2.9779,2.9779,2.9779,2.9779,2.9779,2.9779,2.9779,2.9779,2.9779,2.9779,2.9779,2.9779,2.9779,2.9779,2.9779,2.9779,2.9779,2.9779,2.9779,2.9779,2.9779,2.9779,2.9779,2.9779,2.9779,2.9779,2.9779,2.9779,2.9779,2.9779,2.9779,2.9779,2.9779,2.9779,2.9779,2.9779,2.9779,2.9779,2.9779,2.9779,2.9779,2.9779,2.9779,2.9779,2.9779,2.9779,2.9779,2.9779,2.9779,2.9779,2.9779,2.9792,2.9792,2.9721,2.9611,2.9395,2.913,2.9134,2.913,2.8814,2.8355,2.7832,2.7296,2.683,2.9779,2.9779,2.9779,2.9779,2.9779,2.9779,2.9779,2.9779,2.9779,2.9779,2.9779,2.9779,2.9779,2.9779,2.9779,2.9779,2.9779,2.9779,2.9779,2.9779,2.9779,2.9779,2.9779,2.9779,2.9779,2.9779,2.9779,2.9779,2.9779,2.9779,2.9779,2.9779,2.9779,2.9779,2.9779,2.9779,2.9779,2.9779,2.9779,2.9779,2.9779,2.9779,2.9779,2.9779,2.9779,2.9779,2.9779,2.9779,2.9779,2.9779,2.9779,2.9779,2.9779,2.9779,2.9779,2.9779,2.9779,2.9779,2.9779,2.9779,2.9779,2.9779,2.9779,2.9779,2.9779,2.9779,2.9779,2.9779,2.9779,2.9779,2.9779,2.9779,2.9779,2.9779,2.9779,2.9779,2.9779,2.9779,2.9779,2.9779,2.9779,2.9779,2.9779,2.9779,2.9779,2.9779,2.9779,2.9779,2.9779,2.9779,2.9779,2.9779,2.9779,2.9779,2.9779,2.9779,2.9779,2.9779,2.9779,2.9779,2.9779,2.9779,2.9792,2.9772,2.9631,2.947,2.9294,2.9106,2.8882,2.8593,2.8387,2.7975,2.7458,2.6958,2.6475,2.9779,2.9779,2.9779,2.9779,2.9779,2.9779,2.9779,2.9779,2.9779,2.9779,2.9779,2.9779,2.9779,2.9779,2.9779,2.9779,2.9779,2.9779,2.9779,2.9779,2.9779,2.9779,2.9779,2.9779,2.9779,2.9779,2.9779,2.9779,2.9779,2.9779,2.9779,2.9779,2.974,2.9779,2.9779,2.9779,2.9779,2.9779,2.9779,2.9779,2.9779,2.9779,2.9779,2.9779,2.9779,2.9779,2.9779,2.9779,2.9779,2.9779,2.9779,2.9779,2.9779,2.9779,2.9779,2.9779,2.9779,2.9779,2.9779,2.9779,2.9779,2.9779,2.9779,2.9779,2.9779,2.9779,2.9779,2.9779,2.9779,2.9779,2.9779,2.9779,2.9779,2.9779,2.9779,2.9779,2.9779,2.9779,2.9779,2.9779,2.9779,2.9779,2.9779,2.9779,2.9779,2.9779,2.9779,2.9779,2.9779,2.9779,2.9779,2.9779,2.9779,2.9779,2.9779,2.9779,2.9779,2.9779,2.9779,2.9779,2.9779,2.976,2.967,2.9611,2.947,2.9309,2.9008,2.8685,2.8227,2.7906,2.7684,2.7522,2.7165,2.6631,2.6062,2.9779,2.9779,2.9779,2.9779,2.9779,2.9779,2.9779,2.9779,2.9779,2.9779,2.9779,2.9779,2.9779,2.9779,2.9779,2.9779,2.9779,2.9779,2.9779,2.9779,2.9779,2.9779,2.9779,2.9779,2.9779,2.9779,2.9779,2.9779,2.9779,2.9779,2.9721,2.965,2.965,2.9573,2.9605,2.9643,2.9779,2.9779,2.9779,2.9779,2.9779,2.9779,2.9779,2.9779,2.9779,2.9779,2.9779,2.9779,2.9779,2.9779,2.9779,2.9779,2.9779,2.9779,2.9779,2.9779,2.9779,2.9779,2.9779,2.9779,2.9779,2.9779,2.9779,2.9779,2.9779,2.9779,2.9779,2.9779,2.9779,2.9779,2.9779,2.9779,2.9779,2.9779,2.9779,2.9779,2.9779,2.9779,2.9779,2.9779,2.9779,2.9779,2.9779,2.9779,2.9779,2.9779,2.9779,2.9779,2.9779,2.9779,2.9779,2.9779,2.9779,2.9779,2.9779,2.9779,2.9779,2.9779,2.9779,2.9779,2.9721,2.9702,2.956,2.9392,2.9204,2.8969,2.8593,2.8195,2.7753,2.7328,2.6971,2.6848,2.6787,2.6332,2.5738,2.9779,2.9779,2.9779,2.9779,2.9779,2.9779,2.9779,2.9779,2.9779,2.9779,2.9779,2.9779,2.9779,2.9779,2.9779,2.9779,2.9779,2.9779,2.9779,2.9779,2.9779,2.9779,2.9779,2.9772,2.9708,2.974,2.9702,2.9624,2.9721,2.9643,2.9534,2.945,2.9424,2.9346,2.9358,2.9475,2.9643,2.9624,2.9624,2.9624,2.9624,2.9663,2.9643,2.9643,2.9682,2.9721,2.974,2.9772,2.9779,2.9779,2.9779,2.9779,2.9779,2.9779,2.9779,2.9779,2.9779,2.9779,2.9779,2.9779,2.9779,2.9779,2.9779,2.9779,2.9779,2.9779,2.9779,2.9779,2.9779,2.9779,2.9779,2.9779,2.9779,2.9779,2.9779,2.9779,2.9779,2.9779,2.9779,2.9779,2.9779,2.9779,2.9779,2.9779,2.9779,2.9779,2.9779,2.9779,2.9779,2.9779,2.9779,2.9779,2.9779,2.9779,2.9779,2.9779,2.9779,2.9779,2.9779,2.9779,2.9721,2.9573,2.9424,2.9204,2.8949,2.8613,2.8115,2.7693,2.7307,2.6889,2.6546,2.6399,2.64,2.6021,2.5496,2.9779,2.9779,2.9779,2.9779,2.9779,2.9779,2.9779,2.9779,2.9779,2.9779,2.9779,2.9779,2.9779,2.9779,2.9779,2.9779,2.9779,2.9779,2.9779,2.976,2.9721,2.976,2.9721,2.9611,2.9528,2.947,2.9404,2.9358,2.93,2.9319,2.93,2.9189,2.9138,2.9079,2.9111,2.9209,2.926,2.93,2.9312,2.939,2.9358,2.9371,2.9371,2.939,2.9495,2.9521,2.9541,2.9682,2.9721,2.9772,2.9772,2.9792,2.9779,2.9779,2.9779,2.9779,2.9779,2.9779,2.9779,2.9792,2.9854,2.9917,2.988,2.9792,2.9779,2.9829,2.9829,2.9779,2.9779,2.9779,2.9779,2.9779,2.9779,2.9779,2.9779,2.9779,2.9779,2.9779,2.9779,2.9779,2.9779,2.9779,2.9779,2.9779,2.9779,2.9779,2.9779,2.9779,2.9779,2.9779,2.9779,2.9779,2.9779,2.9779,2.9779,2.9779,2.9779,2.9779,2.976,2.9689,2.956,2.9411,2.9243,2.8949,2.8586,2.8075,2.7551,2.721,2.7007,2.6636,2.6294,2.6155,2.5964,2.5711,2.5477,2.9573,2.9631,2.9631,2.9689,2.9792,2.9779,2.9779,2.9779,2.9779,2.9779,2.9779,2.9779,2.9779,2.9779,2.9779,2.9779,2.9779,2.965,2.9611,2.9611,2.9585,2.9507,2.9436,2.9365,2.9307,2.9236,2.9189,2.9162,2.9052,2.8961,2.8961,2.8835,2.8816,2.8697,2.863,2.857,2.859,2.8729,2.8875,2.9045,2.9084,2.9084,2.9104,2.9104,2.9216,2.9255,2.9275,2.9495,2.9527,2.9527,2.9527,2.9553,2.9631,2.9721,2.9779,2.9829,3.0068,3.0131,3.0206,3.0419,3.0407,3.0407,3.0382,3.047,3.0244,3.0175,2.9942,2.9779,2.9779,2.9779,2.9779,2.9779,2.9779,2.9779,2.9779,2.9779,2.9779,2.9779,2.9779,2.9779,2.9779,2.9779,2.9779,2.9779,2.9779,2.9779,2.9779,2.9779,2.9779,2.9779,2.9779,2.9779,2.9779,2.9779,2.9779,2.9779,2.9779,2.9721,2.9631,2.9541,2.938,2.9165,2.8941,2.8546,2.8127,2.7667,2.7265,2.7016,2.6785,2.645,2.6217,2.6108,2.5998,2.579,2.5555,2.9216,2.938,2.938,2.9502,2.9733,2.9702,2.9702,2.9753,2.9702,2.974,2.9721,2.9772,2.9702,2.9643,2.9624,2.9643,2.9573,2.9463,2.9404,2.9392,2.9287,2.9221,2.9182,2.9052,2.8993,2.9013,2.8934,2.8768,2.8855,2.8736,2.8538,2.8451,2.8331,2.8211,2.8122,2.8164,2.8211,2.8316,2.8715,2.902,2.8896,2.8934,2.9013,2.8966,2.9005,2.9052,2.9052,2.9104,2.9123,2.9111,2.915,2.9236,2.9509,2.9886,2.9965,3.0111,3.0475,3.0608,3.0746,3.0934,3.1155,3.1256,3.1381,3.1198,3.0879,3.0602,3.0357,3.0313,3.0364,3.0193,3.0156,3.008,3.0043,2.9892,2.9779,2.9779,2.9779,2.9779,2.9779,2.9779,2.9779,2.9779,2.9779,2.9792,2.9955,2.988,2.9942,2.9955,2.9955,2.9967,2.9892,2.988,2.9792,2.9792,2.9779,2.9779,2.9772,2.9702,2.9541,2.9353,2.9204,2.8922,2.8586,2.8195,2.7789,2.7457,2.7105,2.697,2.6811,2.6498,2.6286,2.6148,2.5984,2.5861,2.5644,2.9131,2.9157,2.9157,2.9209,2.928,2.928,2.928,2.9268,2.928,2.9346,2.947,2.947,2.9424,2.9339,2.9351,2.9351,2.928,2.9209,2.9177,2.9138,2.9052,2.8946,2.8986,2.8717,2.8657,2.8518,2.8411,2.8251,2.8231,2.8151,2.8102,2.8054,2.7957,2.7902,2.7877,2.7944,2.8073,2.8117,2.8523,2.8645,2.8356,2.823,2.8171,2.8339,2.8483,2.8742,2.885,2.9,2.9062,2.9123,2.9123,2.9352,2.9748,3.0397,3.0709,3.0837,3.0984,3.1124,3.1245,3.1403,3.1582,3.1532,3.1507,3.1432,3.1293,3.1117,3.1017,3.1004,3.0891,3.067,3.052,3.0419,3.0306,3.008,2.988,2.988,2.988,2.9867,2.9867,2.9867,2.9854,2.9867,2.9892,2.9955,3.0055,3.0206,3.0369,3.0444,3.0444,3.0432,3.0231,3.0143,2.9854,2.9804,2.9792,2.976,2.974,2.9611,2.945,2.9243,2.902,2.8554,2.8119,2.7804,2.7467,2.7232,2.7113,2.7128,2.6921,2.6554,2.6438,2.6341,2.6169,2.6013,2.5749,2.8756,2.8855,2.9032,2.9123,2.9123,2.9123,2.9123,2.9123,2.9123,2.9072,2.9059,2.9157,2.9177,2.9111,2.9123,2.9064,2.9045,2.8907,2.8835,2.8796,2.8657,2.853,2.8451,2.8319,2.8271,2.8131,2.7889,2.7728,2.7632,2.7496,2.7455,2.7516,2.7556,2.7658,2.7706,2.7906,2.8107,2.813,2.8471,2.8328,2.8043,2.8208,2.8512,2.8657,2.8716,2.8869,2.8954,2.9126,2.9179,2.9322,2.9411,2.9707,3.0102,3.054,3.0824,3.1017,3.1253,3.1618,3.1701,3.1876,3.2051,3.2039,3.2135,3.2273,3.2311,3.2123,3.167,3.1595,3.1268,3.1035,3.1009,3.0934,3.0909,3.0758,3.0696,3.0696,3.0715,3.0715,3.0715,3.0696,3.0683,3.0683,3.0696,3.0708,3.0796,3.0809,3.0947,3.0959,3.0959,3.0934,3.0721,3.047,3.0218,2.9905,2.9792,2.974,2.9689,2.9541,2.9445,2.901,2.869,2.8111,2.7618,2.7562,2.7407,2.7142,2.7074,2.7127,2.693,2.655,2.654,2.6563,2.6344,2.6118,2.5901,2.8239,2.8471,2.8788,2.8934,2.8946,2.8934,2.8926,2.8914,2.8914,2.8749,2.8478,2.8788,2.8934,2.8934,2.8966,2.8966,2.8847,2.855,2.8431,2.8311,2.805,2.803,2.793,2.7788,2.7708,2.7664,2.7519,2.7346,2.7215,2.7196,2.7216,2.7031,2.7108,2.7305,2.7429,2.7675,2.7921,2.7977,2.811,2.8121,2.8372,2.8749,2.8902,2.9085,2.924,2.9273,2.925,2.926,2.926,2.9506,2.9689,2.9995,3.0356,3.0737,3.0912,3.1152,3.1618,3.1902,3.2107,3.2484,3.2778,3.2993,3.3102,3.3077,3.304,3.2813,3.2361,3.211,3.1783,3.1595,3.1562,3.1499,3.1474,3.1381,3.1369,3.1336,3.1369,3.1369,3.1381,3.1361,3.1348,3.1336,3.1369,3.1394,3.1424,3.1449,3.1499,3.1507,3.1494,3.1436,3.1323,3.0997,3.0683,3.0357,3.0105,3.0008,3.0049,2.9878,2.973,2.904,2.8469,2.8216,2.7925,2.7598,2.7418,2.725,2.7113,2.7106,2.6842,2.6576,2.6441,2.6411,2.626,2.6055,2.5995,2.7777,2.8022,2.8091,2.8131,2.8143,2.8122,2.8143,2.8122,2.8143,2.805,2.801,2.8042,2.8122,2.8122,2.8122,2.8151,2.8179,2.801,2.8022,2.7941,2.7626,2.7563,2.7508,2.7343,2.7037,2.703,2.7131,2.7185,2.7007,2.7212,2.7314,2.7107,2.7129,2.7239,2.7283,2.7544,2.7781,2.7846,2.8075,2.8228,2.8213,2.8366,2.8217,2.8313,2.8421,2.8486,2.8551,2.868,2.8863,2.9215,2.9722,3.0105,3.0486,3.0901,3.1194,3.1355,3.1858,3.2133,3.2398,3.2602,3.2822,3.2995,3.3016,3.3047,3.3022,3.3065,3.2788,3.2801,3.2537,3.2349,3.2252,3.2102,3.2026,3.1712,3.1582,3.1582,3.1595,3.1595,3.1587,3.1587,3.1574,3.1574,3.1607,3.1683,3.1788,3.1876,3.2051,3.2064,3.2064,3.1989,3.1901,3.1591,3.1253,3.1185,3.1097,3.074,3.0656,3.0421,2.9983,2.9227,2.8742,2.8659,2.8349,2.7829,2.7635,2.7516,2.7363,2.7104,2.6913,2.6638,2.6325,2.6143,2.6072,2.6074,2.6109]},{"header":{"parameterUnit":"m.s-1","parameterCategory":1,"la1":31.0,"la2":29.5877,"lo1":-88.7671,"lo2":-86.6584,"dy":0.0162,"dx":0.0185,"nx":115,"ny":88,"refTime":"2023-08-22T12:00:00:Z","depth":0,"parameterNumber":3,"parameterNumberName":"V-component_of_WINDS"},"data":[0.0,0.0,0.0,0.0,0.0,0.0,0.0,0.0,0.0,0.0,0.0,0.0,0.0,0.0,0.0,0.0,0.0,0.0,0.0,0.0,0.0,0.0,0.0,0.0,0.0,0.0,0.0,0.0,0.0,0.0,0.0,0.0,0.0,0.0,0.0,0.0,0.0,0.0,0.0,0.0,0.0,0.0,0.0,0.0,0.0,0.0,0.0,0.0,0.0,0.0,0.0,0.0,0.0,0.0,0.0,0.0,0.0,0.0,0.0,0.0,0.0,0.0,0.0,0.0,0.0,0.0,0.0,0.0,0.0,0.0,0.0,0.0,0.0,0.0,0.0,0.0,0.0,0.0,0.0,0.0,0.0,0.0,0.0,0.0,0.0,0.0,0.0,0.0,0.0,0.0,0.0,0.0,0.0,0.0,0.0,0.0,0.0,0.0,0.0,0.0,0.0,0.0,0.0,0.0,0.0,0.0,0.0,0.0,0.0,0.0,0.0,0.0,0.0,0.0,0.0,0.0,0.0,0.0,0.0,0.0,0.0,0.0,0.0,0.0,0.0,0.0,0.0,0.0,0.0,0.0,0.0,0.0,0.0,0.0,0.0,0.0,0.0,0.0,0.0,0.0,0.0,0.0,0.0,0.0,0.0,0.0,0.0,0.0,0.0,0.0,0.0,0.0,0.0,0.0,0.0,0.0,0.0,0.0,0.0,0.0,0.0,0.0,0.0,0.0,0.0,0.0,0.0,0.0,0.0,0.0,0.0,0.0,0.0,0.0,0.0,0.0,0.0,0.0,0.0,0.0,0.0,0.0,0.0,0.0,0.0,0.0,0.0,0.0,0.0,0.0,0.0,0.0,0.0,0.0,0.0,0.0,0.0,0.0,0.0,0.0,0.0,0.0,0.0,0.0,0.0,0.0,0.0,0.0,0.0,0.0,0.0,0.0,0.0,0.0,0.0,0.0,0.0,0.0,0.0,0.0,0.0,0.0,0.0,0.0,0.0,0.0,0.0,0.0,0.0,0.0,0.0,0.0,0.0,0.0,0.0,0.0,0.0,0.0,0.0,0.0,0.0,0.0,0.0,0.0,0.0,0.0,0.0,0.0,0.0,0.0,0.0,0.0,0.0,0.0,0.0,0.0,0.0,0.0,0.0,0.0,0.0,0.0,0.0,0.0,0.0,0.0,0.0,0.0,0.0,0.0,0.0,0.0,0.0,0.0,0.0,0.0,0.0,0.0,0.0,0.0,0.0,0.0,0.0,0.0,0.0,0.0,0.0,0.0,0.0,0.0,0.0,0.0,0.0,0.0,0.0,0.0,0.0,0.0,0.0,0.0,0.0,0.0,0.0,0.0,0.0,0.0,0.0,0.0,0.0,0.0,0.0,0.0,0.0,0.0,0.0,0.0,0.0,0.0,0.0,0.0,0.0,0.0,0.0,0.0,0.0,0.0,0.0,0.0,0.0,0.0,0.0,0.0,0.0,0.0,0.0,0.0,0.0,0.0,0.0,0.0,0.0,0.0,0.0,0.0,0.0,0.0,0.0,0.0,0.0,0.0,0.0,0.0,0.0,0.0,0.0,0.0,0.0,0.0,0.0,0.0,0.0,0.0,0.0,0.0,0.0,0.0,0.0,0.0,0.0,0.0,0.0,0.0,0.0,0.0,0.0,0.0,0.0,0.0,0.0,0.0,0.0,0.0,0.0,0.0,0.0,0.0,0.0,0.0,0.0,0.0,0.0,0.0,0.0,0.0,0.0,0.0,0.0,0.0,0.0,0.0,0.0,0.0,0.0,0.0,0.0,0.0,0.0,0.0,0.0,0.0,0.0,0.0,0.0,0.0,0.0,0.0,0.0,0.0,0.0,0.0,0.0,0.0,0.0,0.0,0.0,0.0,0.0,0.0,0.0,0.0,0.0,0.0,0.0,0.0,0.0,0.0,0.0,0.0,0.0,0.0,0.0,0.0,0.0,0.0,0.0,0.0,0.0,0.0,0.0,0.0,0.0,0.0,0.0,0.0,0.0,0.0,0.0,0.0,0.0,0.0,0.0,0.0,0.0,0.0,0.0,0.0,0.0,0.0,0.0,0.0,0.0,0.0,0.0,0.0,0.0,0.0,0.0,0.0,0.0,0.0,0.0,0.0,0.0,0.0,0.0,0.0,0.0,0.0,0.0,0.0,0.0,0.0,0.0,0.0,0.0,0.0,0.0,0.0,0.0,0.0,0.0,0.0,0.0,0.0,0.0,0.0,0.0,0.0,0.0,0.0,0.0,0.0,0.0,0.0,0.0,0.0,0.0,0.0,0.0,0.0,0.0,0.0,0.0,0.0,0.0,0.0,0.0,0.0,0.0,0.0,0.0,0.0,0.0,0.0,0.0,0.0,0.0,0.0,0.0,0.0,0.0,0.0,0.0,0.0,0.0,0.0,0.0,0.0,0.0,0.0,0.0,0.0,0.0,0.0,0.0,0.0,0.0,0.0,0.0,0.0,0.0,0.0,0.0,0.0,0.0,0.0,0.0,0.0,0.0,0.0,0.0,0.0,0.0,0.0,0.0,0.0,0.0,0.0,0.0,0.0,0.0,0.0,0.0,0.0,0.0,0.0,0.0,0.0,0.0,0.0,0.0,0.0,0.0,0.0,0.0,0.0,0.0,0.0,0.0,0.0,0.0,0.0,0.0,0.0,0.0,0.0,0.0,0.0,0.0,0.0,0.0,0.0,0.0,0.0,0.0,0.0,0.0,0.0,0.0,0.0,0.0,0.0,0.0,0.0,0.0,0.0,0.0,0.0,0.0,0.0,0.0,0.0,0.0,0.0,0.0,0.0,0.0,0.0,0.0,0.0,0.0,0.0,0.0,0.0,0.0,0.0,0.0,0.0,0.0,0.0,0.0,0.0,0.0,0.0,0.0,0.0,0.0,0.0,0.0,0.0,0.0,0.0,0.0,0.0,0.0,0.0,0.0,0.0,0.0,0.0,0.0,0.0,0.0,0.0,0.0,0.0,0.0,0.0,0.0,0.0,0.0,0.0,0.0,0.0,0.0,0.0,0.0,0.0,0.0,0.0,0.0,0.0,0.0,0.0,0.0,0.0,0.0,0.0,0.0,0.0,0.0,0.0,0.0,0.0,0.0,0.0,0.0,0.0,0.0,0.0,0.0,0.0,0.0,0.0,0.0,0.0,0.0,0.0,0.0,0.0,0.0,0.0,0.0,0.0,0.0,0.0,0.0,0.0,0.0,0.0,0.0,0.0,0.0,0.0,0.0,0.0,0.0,0.0,0.0,0.0,0.0,0.0,0.0,0.0,0.0,0.0,0.0,0.0,0.0,0.0,0.0,0.0,0.0,0.0,0.0,0.0,0.0,0.0,0.0,0.0,0.0,0.0,0.0,0.0,0.0,0.0,0.0,0.0,0.0,0.0,0.0,0.0,0.0,0.0,0.0,0.0,0.0,0.0,0.0,0.0,0.0,0.0,0.0,0.0,0.0,0.0,0.0,0.0,0.0,0.0,0.0,0.0,0.0,0.0,0.0,0.0,0.0,0.0,0.0,0.0,0.0,0.0,0.0,0.0,0.0,0.0,0.0,0.0,0.0,0.0,0.0,0.0,0.0,0.0,0.0,0.0,0.0,0.0,0.0,0.0,0.0,0.0,0.0,0.0,0.0,0.0,0.0,0.0,0.0,0.0,0.0,0.0,0.0,0.0,0.0,0.0,0.0,0.0,0.0,0.0,0.0,0.0,0.0,0.0,0.0,0.0,0.0,0.0,0.0,0.0,0.0,0.0,0.0,0.0,0.0,0.0,0.0,0.0,0.0,0.0,0.0,0.0,0.0,0.0,0.0,0.0,0.0,0.0,0.0,0.0,0.0,0.0,0.0,0.0,0.0,0.0,0.0,0.0,0.0,0.0,0.0,0.0,0.0,0.0,0.0,0.0,0.0,0.0,0.0,0.0,0.0,0.0,0.0,0.0,0.0,0.0,0.0,0.0,0.0,0.0,0.0,0.0,0.0,0.0,0.0,0.0,0.0,0.0,0.0,0.0,0.0,0.0,0.0,0.0,0.0,0.0,0.0,0.0,0.0,0.0,0.0,0.0,0.0,0.0,0.0,0.0,0.0,0.0,0.0,0.0,0.0,0.0,0.0,0.0,0.0,0.0,0.0,0.0,0.0,0.0,0.0,0.0,0.0,0.0,0.0,0.0,0.0,0.0,0.0,0.0,0.0,0.0,0.0,0.0,0.0,0.0,0.0,0.0,0.0,0.0,0.0,0.0,0.0,0.0,0.0,0.0,0.6174,0.0,0.0,0.0,0.0,0.0,0.0,0.0,0.0,0.0,0.0,0.0,0.0,0.0,0.0,0.0,0.0,0.0,0.0,0.0,0.0,0.0,0.0,0.0,0.0,0.0,0.0,0.0,0.0,0.0,0.0,0.0,0.0,0.0,0.0,0.0,0.0,0.0,0.0,0.0,0.0,0.0,0.0,0.0,0.0,0.0,0.0,0.0,0.0,0.0,0.0,0.0,0.0,0.0,0.0,0.0,0.0,0.0,0.0,0.0,0.0,0.0,0.0,0.0,0.0,0.0,0.0,0.0,0.0,0.0,0.0,0.0,0.0,0.0,0.0,0.0,0.0,0.0,0.0,0.0,0.0,0.0,0.0,0.0,0.0,0.0,0.0,0.0,0.0,0.0,0.0,0.0,0.0,0.0,0.0,0.0,0.0,0.0,0.0,0.0,0.0,0.0,0.0,0.0,0.0,0.0,0.0,0.0,0.0,0.0,0.0,0.6302,0.6378,0.6378,0.6421,0.6457,0.0,0.0,0.0,0.0,0.0,0.0,0.0,0.0,0.0,0.0,0.0,0.0,0.0,0.0,0.0,0.0,0.0,0.0,0.0,0.0,0.0,0.0,0.0,0.0,0.0,0.0,0.0,0.0,0.0,0.0,0.0,0.0,0.0,0.0,0.0,0.0,0.0,0.0,0.0,0.0,0.0,0.0,0.0,0.0,0.0,0.0,0.0,0.0,0.0,0.0,0.0,0.0,0.0,0.0,0.0,0.0,0.0,0.0,0.0,0.0,0.0,0.0,0.0,0.0,0.0,0.0,0.0,0.0,0.0,0.0,0.0,0.0,0.0,0.0,0.0,0.0,0.0,0.0,0.0,0.0,0.0,0.0,0.0,0.0,0.0,0.0,0.0,0.0,0.0,0.0,0.0,0.0,0.0,0.0,0.0,0.0,0.0,0.0,0.0,0.0,0.0,0.0,0.0,0.0,0.0,0.0,0.0,0.0,0.0,0.0,0.0,0.0,0.6715,0.673,0.6772,0.0,0.0,0.0,0.0,0.0,0.0,0.0,0.0,0.0,0.0,0.0,0.0,0.0,0.0,0.0,0.0,0.0,0.0,0.0,0.0,0.0,0.0,0.0,0.0,0.0,0.0,0.0,0.0,0.0,0.0,0.0,0.0,0.0,0.0,0.0,0.0,0.0,0.0,0.0,0.0,0.0,0.0,0.0,0.0,0.0,0.0,0.0,0.0,0.0,0.0,0.0,0.0,0.0,0.0,0.0,0.0,0.0,0.0,0.0,0.0,0.0,0.0,0.0,0.0,0.0,0.0,0.0,0.0,0.0,0.0,0.0,0.0,0.0,0.0,0.0,0.0,0.0,0.0,0.0,0.0,0.0,0.0,0.0,0.0,0.0,0.0,0.0,0.0,0.0,0.0,0.0,0.0,0.0,0.0,0.0,0.0,0.0,0.0,0.0,0.0,0.0,0.0,0.0,0.0,0.0,0.0,0.0,0.0,0.0,0.0,0.6677,0.6704,0.6715,0.0,0.6975,0.0,0.0,0.0,0.0,0.0,0.0,0.0,0.0,0.0,0.0,0.0,0.0,0.0,0.0,0.0,0.0,0.0,0.0,0.0,0.0,0.0,0.0,0.0,0.0,0.0,0.0,0.0,0.0,0.0,0.0,0.0,0.0,0.0,0.0,0.0,0.0,0.0,0.0,0.0,0.0,0.0,0.0,0.0,0.0,0.0,0.0,0.0,0.0,0.0,0.0,0.0,0.0,0.0,0.0,0.0,0.0,0.0,0.0,0.0,0.0,0.0,0.0,0.0,0.0,0.0,0.0,0.0,0.0,0.0,0.0,0.0,0.0,0.0,0.0,0.0,0.0,0.0,0.0,0.0,0.0,0.0,0.0,0.0,0.0,0.0,0.0,0.0,0.0,0.0,0.0,0.0,0.0,0.0,0.0,0.0,0.0,0.0,0.0,0.0,0.0,0.0,0.0,0.0,0.0,0.0,0.0,0.0,0.0,0.0,0.0,0.7115,0.7115,0.7115,0.7139,0.0,0.0,0.0,0.0,0.0,0.0,0.0,0.0,0.0,0.0,0.0,0.0,0.0,0.0,0.0,0.0,0.0,0.0,0.0,0.0,0.0,0.0,0.0,0.0,0.0,0.0,0.0,0.0,0.0,0.0,0.0,0.0,0.0,0.0,0.0,0.0,0.0,0.0,0.0,0.0,0.0,0.0,0.0,0.0,0.0,0.0,0.0,0.0,0.0,0.0,0.0,0.0,0.0,0.0,0.0,0.0,0.0,0.0,0.0,0.0,0.0,0.0,0.0,0.0,0.0,0.0,0.0,0.0,0.0,0.0,0.0,0.0,0.0,0.0,0.0,0.0,0.0,0.0,0.0,0.0,0.0,0.0,0.0,0.0,0.0,0.0,0.0,0.0,0.0,0.0,0.0,0.0,0.0,0.0,0.0,0.0,0.0,0.0,0.0,0.0,0.0,0.0,0.0,0.0,0.0,0.0,0.0,0.0,0.0,0.0,0.7311,0.7444,0.7475,0.7524,0.7527,0.7548,0.0,0.0,0.0,0.0,0.0,0.0,0.0,0.0,0.0,0.0,0.0,0.0,0.0,0.0,0.0,0.0,0.0,0.0,0.0,0.0,0.0,0.0,0.0,0.0,0.0,0.0,0.0,0.0,0.0,0.0,0.0,0.0,0.0,0.0,0.0,0.0,0.0,0.0,0.0,0.0,0.0,0.0,0.0,0.0,0.0,0.0,0.0,0.0,0.0,0.0,0.0,0.0,0.0,0.0,0.0,0.0,0.0,0.0,0.0,0.0,0.0,0.0,0.0,0.0,0.0,0.0,0.0,0.0,0.0,0.0,0.0,0.0,0.0,0.0,0.0,0.0,0.0,0.0,0.0,0.0,0.0,0.0,0.0,0.0,0.0,0.0,0.0,0.0,0.0,0.0,0.0,0.0,0.0,0.0,0.0,0.0,0.0,0.0,0.0,0.0,0.0,0.0,0.0,0.0,0.0,0.0,0.0,0.0,0.7381,0.7468,0.7562,0.7691,0.7816,0.787,0.0,0.0,0.0,0.0,0.0,0.0,0.0,0.0,0.0,0.0,0.0,0.0,0.0,0.0,0.0,0.0,0.0,0.0,0.0,0.0,0.0,0.0,0.0,0.0,0.0,0.0,0.0,0.0,0.0,0.0,0.0,0.0,0.0,0.0,0.0,0.0,0.0,0.0,0.0,0.0,0.0,0.0,0.0,0.0,0.0,0.0,0.0,0.0,0.0,0.0,0.0,0.0,0.0,0.0,0.0,0.0,0.0,0.0,0.0,0.0,0.0,0.0,0.0,0.0,0.0,0.0,0.0,0.0,0.0,0.0,0.0,0.0,0.0,0.0,0.0,0.0,0.0,0.0,0.0,0.0,0.0,0.0,0.0,0.0,0.0,0.0,0.0,0.0,0.0,0.0,0.0,0.0,0.0,0.0,0.0,0.0,0.0,0.0,0.0,0.0,0.0,0.0,0.0,0.0,0.0,0.0,0.0,0.0,0.0,0.7725,0.778,0.7845,0.7884,0.7935,0.8005,0.0,0.0,0.0,0.0,0.0,0.0,0.0,0.0,0.0,0.0,0.0,0.0,0.0,0.0,0.0,0.0,0.0,0.0,0.0,0.0,0.0,0.0,0.0,0.0,0.0,0.0,0.0,0.0,0.0,0.0,0.0,0.0,0.0,0.0,0.0,0.0,0.0,0.0,0.0,0.0,0.0,0.0,0.0,0.0,0.0,0.0,0.0,0.0,0.0,0.0,0.0,0.0,0.0,0.0,0.0,0.0,0.0,0.0,0.0,0.0,0.0,0.0,0.0,0.0,0.0,0.0,0.0,0.0,0.0,0.0,0.0,0.0,0.0,0.0,0.0,0.0,0.0,0.0,0.0,0.0,0.0,0.0,0.0,0.0,0.0,0.0,0.0,0.0,0.0,0.0,0.0,0.0,0.0,0.0,0.0,0.0,0.0,0.0,0.0,0.0,0.0,0.0,0.0,0.0,0.0,0.0,0.0,0.0,0.0,0.808,0.0,0.8196,0.8226,0.8226,0.8275,0.0,0.0,0.0,0.0,0.0,0.0,0.0,0.0,0.0,0.0,0.0,0.0,0.0,0.0,0.0,0.0,0.0,0.0,0.0,0.0,0.0,0.0,0.0,0.0,0.0,0.0,0.0,0.0,0.0,0.0,0.0,0.0,0.0,0.0,0.0,0.0,0.0,0.0,0.0,0.0,0.0,0.0,0.0,0.0,0.0,0.0,0.0,0.0,0.0,0.0,0.0,0.0,0.0,0.0,0.0,0.0,0.0,0.0,0.0,0.0,0.0,0.0,0.0,0.0,0.0,0.0,0.0,0.0,0.0,0.0,0.0,0.0,0.0,0.0,0.0,0.0,0.0,0.0,0.0,0.0,0.0,0.0,0.0,0.0,0.0,0.0,0.0,0.0,0.0,0.0,0.0,0.0,0.0,0.0,0.0,0.0,0.0,0.0,0.0,0.0,0.0,0.0,0.0,0.0,0.0,0.0,0.0,0.0,0.8311,0.849,0.8502,0.8561,0.8694,0.8695,0.8695,0.0,0.0,0.0,0.0,0.0,0.0,0.0,0.0,0.0,0.0,0.0,0.0,0.0,0.0,0.0,0.0,0.0,0.0,0.0,0.0,0.0,0.0,0.0,0.0,0.0,0.0,0.0,0.0,0.0,0.0,0.0,0.0,0.0,0.0,0.0,0.0,0.0,0.0,0.0,0.0,0.0,0.0,0.0,0.0,0.0,0.0,0.0,0.0,0.0,0.0,0.0,0.0,0.0,0.0,0.0,0.0,0.0,0.0,0.0,0.0,0.0,0.0,0.0,0.0,0.0,0.0,0.0,0.0,0.0,0.0,0.0,0.0,0.0,0.0,0.0,0.0,0.0,0.0,0.0,0.0,0.0,0.0,0.0,0.0,0.0,0.0,0.0,0.0,0.0,0.0,0.0,0.0,0.0,0.0,0.0,0.0,0.0,0.0,0.0,0.0,0.0,0.0,0.0,0.0,0.0,0.0,0.0,0.0,0.0,0.8834,0.8844,0.8864,0.8915,0.8905,0.8937,0.0,0.0,0.0,0.0,0.0,0.0,0.0,0.0,0.0,0.0,0.0,0.0,0.0,0.0,0.0,0.0,0.0,0.0,0.0,0.0,0.0,0.0,0.0,0.0,0.0,0.0,0.0,0.0,0.0,0.0,0.0,0.0,0.0,0.0,0.0,0.0,0.0,0.0,0.0,0.0,0.0,0.0,0.0,0.0,0.0,0.0,0.0,0.0,0.0,0.0,0.0,0.0,0.0,0.0,0.0,0.0,0.0,0.0,0.0,0.0,0.0,0.0,0.0,0.0,0.0,0.0,0.0,0.0,0.0,0.0,0.0,0.0,0.0,0.0,0.0,0.0,0.0,0.0,0.0,0.0,0.0,0.0,0.0,0.0,0.0,0.0,0.0,0.0,0.0,0.0,0.0,0.0,0.0,0.0,0.0,0.0,0.0,0.0,0.0,0.0,0.0,0.0,0.0,0.0,0.0,0.0,0.0,0.0,0.0,0.9591,0.9278,0.9147,0.9188,0.9128,0.9168,0.9298,0.0,0.0,0.0,0.0,0.0,0.0,0.0,0.0,0.0,0.0,0.0,0.0,0.0,0.0,0.0,0.0,0.0,0.0,0.0,0.0,0.0,0.0,0.0,0.0,0.0,0.0,0.0,0.0,0.0,0.0,0.0,0.0,0.0,0.0,0.0,0.0,0.0,0.0,0.0,0.0,0.0,0.0,0.0,0.0,0.0,0.0,0.0,0.0,0.0,0.0,0.0,0.0,0.0,0.0,0.0,0.0,0.0,0.0,0.0,0.0,0.0,0.0,0.0,0.0,0.0,0.0,0.0,0.0,0.0,0.0,0.0,0.0,0.0,0.0,0.0,0.0,0.0,0.0,0.0,0.0,0.0,0.0,0.0,0.0,0.0,0.0,0.0,0.0,0.0,0.0,0.0,0.0,0.0,0.0,0.0,0.0,0.0,0.0,0.0,0.0,0.0,0.0,0.0,0.0,0.0,0.0,0.0,0.0,1.0645,0.9861,0.9473,0.9537,0.9419,0.9389,0.0,0.0,0.0,0.0,0.0,0.0,0.0,0.0,0.0,0.0,0.0,0.0,0.0,0.0,0.0,0.0,0.0,0.0,0.0,0.0,0.0,0.0,0.0,0.0,0.0,0.0,0.0,0.0,0.0,0.0,0.0,0.0,0.0,0.0,0.0,0.0,0.0,0.0,0.0,0.0,0.0,0.0,0.0,0.0,0.0,0.0,0.0,0.0,0.0,0.0,0.0,0.0,0.0,0.0,0.0,0.0,0.0,0.0,0.0,0.0,0.0,0.0,0.0,0.0,0.0,0.0,0.0,0.0,0.0,0.0,0.0,0.0,0.0,0.0,0.0,0.0,0.0,0.0,0.0,0.0,0.0,0.0,0.0,0.0,0.0,0.0,0.0,0.0,0.0,0.0,0.0,0.0,0.0,0.0,0.0,0.0,0.0,0.0,0.0,0.0,0.0,0.0,0.0,0.0,0.0,0.0,0.0,0.0,0.0,1.1247,1.1052,1.0595,0.9901,0.9842,0.9842,0.0,0.0,0.0,0.0,0.0,0.0,0.0,0.0,0.0,0.0,0.0,0.0,0.0,0.0,0.0,0.0,0.0,0.0,0.0,0.0,0.0,0.0,0.0,0.0,0.0,0.0,0.0,0.0,0.0,0.0,0.0,0.0,0.0,0.0,0.0,0.0,0.0,0.0,0.0,0.0,0.0,0.0,0.0,0.0,0.0,0.0,0.0,0.0,0.0,0.0,0.0,0.0,0.0,0.0,0.0,0.0,0.0,0.0,0.0,0.0,0.0,0.0,0.0,0.0,0.0,0.0,0.0,0.0,0.0,0.0,0.0,0.0,0.0,0.0,0.0,0.0,0.0,0.0,0.0,0.0,0.0,0.0,0.0,0.0,0.0,0.0,0.0,0.0,0.0,0.0,0.0,0.0,0.0,0.0,0.0,0.0,0.0,0.0,0.0,0.0,0.0,0.0,0.0,0.0,0.0,0.0,0.0,0.0,1.1821,1.1959,1.1959,1.1601,1.085,1.0452,1.019,0.0,0.0,0.0,0.0,0.0,0.0,0.0,0.0,0.0,0.0,0.0,0.0,0.0,0.0,0.0,0.0,0.0,0.0,0.0,0.0,0.0,0.0,0.0,0.0,0.0,0.0,0.0,0.0,0.0,0.0,0.0,0.0,0.0,0.0,0.0,0.0,0.0,0.0,0.0,0.0,0.0,0.0,0.0,0.0,0.0,0.0,0.0,0.0,0.0,0.0,0.0,0.0,0.0,0.0,0.0,0.0,0.0,0.0,0.0,0.0,0.0,0.0,0.0,0.0,0.0,0.0,0.0,0.0,0.0,0.0,0.0,0.0,0.0,0.0,0.0,0.0,0.0,0.0,0.0,0.0,0.0,0.0,0.0,0.0,0.0,0.0,0.0,0.0,0.0,0.0,0.0,0.0,0.0,0.0,0.0,0.0,0.0,0.0,0.0,0.0,0.0,0.0,0.0,0.0,0.0,0.0,0.0,0.0,1.2834,1.2726,1.2736,1.2535,1.2109,1.1211,1.0556,0.0,0.0,0.0,0.0,0.0,0.0,0.0,0.0,0.0,0.0,0.0,0.0,0.0,0.0,0.0,0.0,0.0,0.0,0.0,0.0,0.0,0.0,0.0,0.0,0.0,0.0,0.0,0.0,0.0,0.0,0.0,0.0,0.0,0.0,0.0,0.0,0.0,0.0,0.0,0.0,0.0,0.0,0.0,0.0,0.0,0.0,0.0,0.0,0.0,0.0,0.0,0.0,0.0,0.0,0.0,0.0,0.0,0.0,0.0,0.0,0.0,0.0,0.0,0.0,0.0,0.0,0.0,0.0,0.0,0.0,0.0,0.0,0.0,0.0,0.0,0.0,0.0,0.0,0.0,0.0,0.0,0.0,0.0,0.0,0.0,0.0,0.0,0.0,0.0,0.0,0.0,0.0,0.0,0.0,0.0,0.0,0.0,0.0,0.0,0.0,0.0,0.0,0.0,0.0,0.0,0.0,0.0,0.0,1.341,1.3536,1.3534,1.3303,1.2801,1.2076,1.1432,0.0,0.0,0.0,0.0,0.0,0.0,0.0,0.0,0.0,0.0,0.0,0.0,0.0,0.0,0.0,0.0,0.0,0.0,0.0,0.0,0.0,0.0,0.0,0.0,0.0,0.0,0.0,0.0,0.0,0.0,0.0,0.0,0.0,0.0,0.0,0.0,0.0,0.0,0.0,0.0,0.0,0.0,0.0,0.0,0.0,0.0,0.0,0.0,1.9321,0.0,0.0,0.0,0.0,0.0,0.0,0.0,0.0,0.0,0.0,0.0,0.0,0.0,0.0,0.0,0.0,0.0,0.0,0.0,0.0,0.0,0.0,0.0,0.0,0.0,0.0,0.0,0.0,0.0,0.0,0.0,0.0,0.0,0.0,0.0,0.0,0.0,0.0,0.0,0.0,0.0,0.0,0.0,0.0,0.0,0.0,0.0,0.0,0.0,0.0,0.0,0.0,0.0,0.0,0.0,0.0,0.0,0.0,0.0,1.4077,1.407,1.4022,1.3859,1.3568,1.3099,1.2398,0.0,0.0,0.0,0.0,0.0,0.0,0.0,0.0,0.0,0.0,0.0,0.0,0.0,0.0,0.0,0.0,0.0,0.0,0.0,0.0,0.0,0.0,0.0,0.0,0.0,0.0,0.0,0.0,0.0,0.0,0.0,0.0,0.0,0.0,0.0,0.0,0.0,0.0,0.0,0.0,0.0,0.0,0.0,0.0,0.0,0.0,0.0,0.0,0.0,0.0,0.0,0.0,0.0,0.0,0.0,0.0,0.0,0.0,0.0,0.0,0.0,0.0,0.0,0.0,0.0,0.0,0.0,0.0,0.0,0.0,0.0,0.0,0.0,0.0,0.0,0.0,0.0,0.0,0.0,0.0,0.0,0.0,0.0,0.0,0.0,0.0,0.0,0.0,0.0,0.0,0.0,0.0,0.0,0.0,0.0,0.0,0.0,0.0,0.0,0.0,0.0,0.0,0.0,0.0,0.0,0.0,0.0,1.4205,1.4662,1.4477,1.4361,1.4269,1.4234,1.3999,1.3315,1.213,0.0,0.0,0.0,0.0,0.0,0.0,0.0,0.0,0.0,0.0,0.0,0.0,0.0,0.0,0.0,0.0,0.0,0.0,0.0,0.0,0.0,0.0,0.0,0.0,0.0,0.0,0.0,0.0,0.0,0.0,0.0,0.0,0.0,0.0,0.0,0.0,0.0,0.0,1.8054,1.8865,0.0,0.0,0.0,0.0,0.0,0.0,0.0,0.0,1.9626,0.0,0.0,0.0,0.0,0.0,0.0,0.0,0.0,0.0,0.0,0.0,0.0,0.0,0.0,0.0,0.0,0.0,0.0,0.0,0.0,0.0,0.0,0.0,0.0,0.0,0.0,0.0,0.0,0.0,0.0,0.0,0.0,0.0,0.0,0.0,0.0,0.0,0.0,0.0,0.0,0.0,0.0,0.0,0.0,0.0,0.0,0.0,0.0,0.0,0.0,0.0,0.0,0.0,0.0,0.0,0.0,1.4149,1.4731,1.4971,1.4812,1.4731,1.4604,1.4361,1.4211,1.3867,1.3303,0.0,0.0,0.0,0.0,0.0,0.0,0.0,0.0,0.0,0.0,0.0,0.0,0.0,0.0,0.0,0.0,0.0,0.0,0.0,0.0,0.0,0.0,0.0,0.0,0.0,0.0,0.0,0.0,0.0,0.0,0.0,0.0,0.0,0.0,0.0,0.0,0.0,0.0,0.0,1.9308,1.9385,0.0,0.0,0.0,0.0,0.0,0.0,0.0,0.0,1.9714,0.0,0.0,0.0,0.0,0.0,0.0,0.0,0.0,0.0,0.0,0.0,0.0,0.0,0.0,0.0,0.0,0.0,0.0,0.0,0.0,0.0,0.0,0.0,0.0,0.0,0.0,0.0,0.0,0.0,0.0,0.0,0.0,0.0,0.0,0.0,0.0,0.0,0.0,0.0,0.0,0.0,0.0,0.0,0.0,0.0,0.0,0.0,0.0,0.0,0.0,0.0,0.0,0.0,0.0,0.0,1.4554,1.5122,1.5345,1.521,1.5028,1.4891,1.4754,1.4524,1.428,0.0,0.0,0.0,0.0,0.0,0.0,0.0,0.0,0.0,0.0,0.0,0.0,0.0,0.0,0.0,0.0,0.0,0.0,0.0,0.0,0.0,0.0,0.0,0.0,0.0,0.0,0.0,0.0,0.0,0.0,0.0,0.0,0.0,0.0,0.0,0.0,0.0,0.0,0.0,0.0,1.9532,1.9554,1.9569,0.0,0.0,0.0,0.0,0.0,0.0,1.9723,1.9744,0.0,0.0,0.0,0.0,0.0,0.0,0.0,0.0,0.0,0.0,0.0,0.0,0.0,0.0,0.0,0.0,0.0,0.0,0.0,0.0,0.0,0.0,0.0,0.0,0.0,0.0,0.0,0.0,0.0,0.0,0.0,0.0,0.0,0.0,0.0,0.0,0.0,0.0,0.0,0.0,0.0,0.0,0.0,0.0,0.0,0.0,0.0,0.0,0.0,0.0,0.0,0.0,0.0,0.0,0.0,1.4952,1.5468,1.5648,1.5536,1.53,1.5165,1.5142,1.4846,1.4616,0.0,0.0,0.0,0.0,0.0,0.0,0.0,0.0,0.0,0.0,0.0,0.0,0.0,0.0,0.0,0.0,0.0,0.0,0.0,0.0,0.0,0.0,0.0,0.0,0.0,0.0,0.0,0.0,0.0,0.0,0.0,0.0,0.0,0.0,0.0,0.0,0.0,0.0,0.0,0.0,0.0,1.9723,1.9723,1.9723,0.0,0.0,0.0,0.0,1.9884,1.9902,0.0,0.0,0.0,0.0,0.0,0.0,0.0,0.0,0.0,0.0,0.0,0.0,0.0,0.0,0.0,0.0,0.0,0.0,0.0,0.0,0.0,0.0,0.0,0.0,0.0,0.0,0.0,0.0,0.0,0.0,0.0,0.0,0.0,0.0,0.0,0.0,0.0,0.0,0.0,0.0,0.0,0.0,0.0,0.0,0.0,0.0,0.0,0.0,0.0,0.0,0.0,0.0,0.0,0.0,0.0,0.0,1.58,1.58,1.5749,1.5659,1.5536,1.5401,1.5278,1.5131,1.4914,0.0,0.0,0.0,0.0,0.0,0.0,0.0,0.0,0.0,0.0,0.0,0.0,0.0,0.0,0.0,0.0,0.0,0.0,0.0,0.0,0.0,0.0,0.0,0.0,0.0,0.0,0.0,0.0,0.0,0.0,0.0,0.0,0.0,0.0,0.0,0.0,0.0,0.0,0.0,0.0,0.0,1.9723,1.9723,1.9723,1.9723,0.0,0.0,2.0593,2.0583,2.0629,0.0,0.0,0.0,0.0,0.0,0.0,0.0,0.0,0.0,0.0,0.0,0.0,0.0,0.0,0.0,0.0,0.0,0.0,0.0,0.0,0.0,0.0,0.0,0.0,0.0,0.0,0.0,0.0,0.0,0.0,0.0,0.0,0.0,0.0,0.0,0.0,0.0,0.0,0.0,0.0,0.0,0.0,0.0,0.0,0.0,0.0,0.0,0.0,0.0,0.0,0.0,0.0,0.0,0.0,0.0,1.5014,1.6051,1.6046,1.6025,1.5981,1.5781,1.5637,1.5593,1.5424,1.5255,0.0,0.0,0.0,0.0,0.0,0.0,0.0,0.0,0.0,0.0,0.0,0.0,0.0,0.0,0.0,0.0,0.0,0.0,0.0,0.0,0.0,0.0,0.0,0.0,0.0,0.0,0.0,0.0,0.0,0.0,0.0,0.0,0.0,0.0,0.0,0.0,0.0,0.0,0.0,0.0,0.0,0.0,2.0776,2.0836,0.0,0.0,0.0,2.1276,2.1266,0.0,0.0,0.0,0.0,0.0,0.0,0.0,0.0,0.0,0.0,0.0,0.0,0.0,0.0,0.0,0.0,0.0,0.0,0.0,0.0,0.0,0.0,0.0,0.0,0.0,0.0,0.0,0.0,0.0,0.0,0.0,0.0,0.0,0.0,0.0,0.0,0.0,0.0,0.0,0.0,0.0,0.0,0.0,0.0,0.0,0.0,0.0,0.0,0.0,0.0,0.0,0.0,0.0,0.0,0.0,0.0,0.0,1.6218,1.6242,1.6231,1.6211,1.6002,1.5904,1.5904,1.5737,0.0,0.0,0.0,0.0,0.0,0.0,0.0,0.0,0.0,0.0,0.0,0.0,0.0,0.0,0.0,0.0,0.0,0.0,0.0,0.0,0.0,0.0,0.0,0.0,0.0,0.0,0.0,1.6845,0.0,0.0,0.0,0.0,0.0,0.0,0.0,0.0,0.0,0.0,0.0,0.0,0.0,0.0,2.1141,2.162,2.1704,2.1704,0.0,0.0,2.1944,2.1959,2.2029,2.1967,0.0,0.0,0.0,0.0,0.0,0.0,0.0,0.0,0.0,0.0,0.0,0.0,0.0,0.0,0.0,0.0,0.0,0.0,0.0,0.0,0.0,0.0,0.0,0.0,0.0,0.0,0.0,0.0,0.0,0.0,0.0,0.0,0.0,0.0,0.0,0.0,0.0,0.0,0.0,0.0,0.0,0.0,0.0,0.0,0.0,0.0,0.0,0.0,0.0,0.0,0.0,0.0,0.0,0.0,1.5264,1.6333,1.6382,1.6329,1.621,1.6189,1.6167,1.6167,1.6021,1.5901,0.0,0.0,0.0,0.0,0.0,0.0,0.0,0.0,0.0,0.0,0.0,0.0,0.0,0.0,0.0,0.0,0.0,0.0,0.0,0.0,0.0,0.0,0.0,0.0,0.0,0.0,0.0,0.0,0.0,0.0,0.0,0.0,0.0,0.0,0.0,0.0,0.0,0.0,0.0,0.0,0.0,2.165,2.1704,2.1704,2.1719,0.0,2.2228,2.2628,2.2628,2.2788,2.2905,2.2869,0.0,0.0,0.0,0.0,0.0,0.0,0.0,0.0,0.0,0.0,0.0,0.0,0.0,0.0,0.0,0.0,0.0,0.0,0.0,0.0,0.0,0.0,0.0,0.0,0.0,0.0,0.0,0.0,0.0,0.0,0.0,0.0,0.0,0.0,0.0,0.0,0.0,0.0,0.0,0.0,0.0,0.0,0.0,0.0,0.0,0.0,0.0,0.0,0.0,0.0,0.0,0.0,0.0,1.5766,1.6443,1.6446,1.6436,1.6382,1.6351,1.634,1.6318,1.6188,1.61,0.0,0.0,0.0,0.0,0.0,0.0,0.0,0.0,0.0,0.0,0.0,0.0,0.0,0.0,0.0,0.0,0.0,0.0,0.0,0.0,0.0,0.0,0.0,0.0,0.0,0.0,0.0,0.0,1.938,1.9851,2.0072,0.0,0.0,0.0,0.0,0.0,0.0,0.0,0.0,0.0,0.0,2.253,2.2936,2.2903,0.0,0.0,2.3071,2.3246,2.3246,2.3388,2.3378,2.3056,2.3037,0.0,0.0,0.0,0.0,0.0,0.0,0.0,0.0,0.0,0.0,0.0,0.0,0.0,0.0,0.0,0.0,0.0,0.0,0.0,0.0,0.0,0.0,0.0,0.0,0.0,0.0,0.0,0.0,0.0,0.0,0.0,0.0,0.0,0.0,0.0,0.0,0.0,0.0,0.0,0.0,0.0,0.0,0.0,0.0,0.0,0.0,0.0,0.0,0.0,0.0,0.0,0.0,1.6098,1.6509,1.6513,1.6513,1.6513,1.6446,1.6425,1.6414,1.6318,1.6265,0.0,0.0,0.0,0.0,0.0,0.0,0.0,0.0,0.0,0.0,0.0,0.0,0.0,0.0,0.0,0.0,0.0,0.0,0.0,0.0,0.0,0.0,0.0,0.0,0.0,0.0,0.0,0.0,1.9665,2.0052,2.027,0.0,0.0,0.0,0.0,0.0,0.0,0.0,0.0,0.0,0.0,2.3699,2.4305,2.4286,2.4219,2.4193,2.4193,2.4208,2.4208,2.4164,2.4029,2.3663,0.0,0.0,0.0,0.0,0.0,0.0,0.0,0.0,0.0,0.0,0.0,0.0,0.0,0.0,0.0,0.0,0.0,0.0,0.0,0.0,0.0,0.0,0.0,0.0,0.0,0.0,0.0,0.0,0.0,0.0,1.1837,0.0,0.0,0.0,0.0,0.0,0.0,0.0,0.0,0.0,0.0,0.0,0.0,0.0,0.0,0.0,0.0,0.0,0.0,0.0,0.0,0.0,0.0,1.6108,1.6511,1.6511,1.6511,1.6513,1.65,1.65,1.65,1.6436,1.6392,1.6392,0.0,0.0,0.0,0.0,0.0,0.0,0.0,0.0,0.0,0.0,0.0,0.0,0.0,0.0,0.0,0.0,0.0,0.0,0.0,0.0,0.0,0.0,0.0,0.0,0.0,0.0,1.9899,2.0174,2.0296,0.0,0.0,0.0,0.0,0.0,0.0,0.0,0.0,0.0,0.0,2.468,2.5159,2.5651,2.5633,2.551,2.5513,2.5525,2.5543,2.5525,2.5221,2.4965,0.0,0.0,0.0,0.0,0.0,0.0,0.0,0.0,0.0,0.0,0.0,0.0,0.0,0.0,0.0,0.0,0.0,0.0,0.0,0.0,0.0,0.0,0.0,0.0,0.0,0.0,0.0,1.3232,1.3244,0.0,0.0,0.0,0.0,0.0,0.0,0.0,0.0,0.0,0.0,0.0,1.725,1.7444,0.0,0.0,0.0,0.0,0.0,0.0,0.0,0.0,0.0,0.0,0.0,0.0,1.6644,1.6629,1.6631,1.6599,1.6511,1.6513,1.6513,1.6513,1.6489,1.65,1.6588,0.0,0.0,0.0,0.0,0.0,0.0,0.0,0.0,0.0,0.0,0.0,0.0,0.0,0.0,0.0,0.0,0.0,0.0,0.0,0.0,0.0,0.0,0.0,0.0,0.0,1.938,0.0,0.0,0.0,0.0,0.0,0.0,0.0,0.0,0.0,0.0,0.0,2.4457,2.5155,2.5562,2.583,2.5917,2.574,2.56,0.0,0.0,0.0,0.0,0.0,0.0,0.0,0.0,0.0,0.0,0.0,0.0,0.0,0.0,2.6692,2.5296,2.5471,2.6025,2.6548,0.0,0.0,0.0,0.0,0.0,0.0,0.0,0.0,0.0,0.0,0.0,0.0,0.0,0.0,1.4119,0.0,1.4221,0.0,0.0,0.0,0.0,0.0,0.0,0.0,0.0,1.6821,1.7333,1.8108,1.8329,1.8317,0.0,1.8012,1.7693,0.0,0.0,0.0,0.0,0.0,0.0,0.0,0.0,1.6971,1.6769,1.6771,1.6718,1.6575,1.6565,1.6556,1.6509,1.6556,1.6641,1.6771,1.6457,1.6235,0.0,0.0,0.0,0.0,0.0,0.0,0.0,0.0,0.0,0.0,0.0,0.0,0.0,0.0,0.0,0.0,0.0,0.0,0.0,0.0,0.0,0.0,0.0,1.9893,0.0,0.0,0.0,0.0,0.0,0.0,0.0,0.0,0.0,2.401,2.4442,2.5181,2.644,2.6576,2.66,2.674,0.0,0.0,0.0,0.0,0.0,0.0,0.0,2.6265,2.657,2.6627,2.6645,2.6709,2.7431,2.8118,2.8493,0.0,0.0,2.69,2.707,2.7586,2.8111,2.8628,2.9011,2.9056,2.9065,2.9083,0.0,0.0,0.0,0.0,0.0,0.0,0.0,0.0,1.4889,1.4931,0.0,1.5067,0.0,0.0,0.0,0.0,0.0,1.5891,0.0,0.0,1.7598,1.7922,1.8309,1.8581,1.8798,1.8993,1.8979,1.8893,1.8698,1.7231,0.0,0.0,0.0,0.0,0.0,0.0,1.7131,1.6931,1.6946,1.6848,1.672,1.6697,1.6641,1.6532,1.6654,1.6771,1.691,1.6981,1.6806,1.6382,1.6562,0.0,0.0,0.0,0.0,0.0,0.0,0.0,0.0,0.0,0.0,0.0,0.0,0.0,0.0,0.0,0.0,0.0,0.0,0.0,0.0,2.0366,0.0,0.0,0.0,0.0,0.0,0.0,0.0,0.0,0.0,0.0,2.5947,2.5094,2.5318,2.7949,0.0,0.0,0.0,0.0,2.7826,2.771,2.7771,2.7833,2.7846,2.7494,2.7282,2.7415,0.0,0.0,2.79,2.8672,2.9155,2.8913,2.9038,2.8943,2.8977,2.8961,2.9001,2.9027,2.9085,2.9094,2.9094,2.9239,2.9205,1.5738,0.0,0.0,0.0,0.0,1.5357,1.5506,1.5771,1.5815,1.5837,1.5826,1.588,0.0,0.0,0.0,0.0,0.0,0.0,1.7021,1.7622,1.7777,1.8059,1.8464,1.8673,1.8851,1.8993,1.9003,1.8979,1.8927,1.8394,1.8068,1.7953,0.0,0.0,0.0,0.0,1.7657,1.7167,1.7443,1.7372,1.6857,1.6846,1.6823,1.6791,1.6823,1.6918,1.7107,1.7149,1.7206,1.7296,1.7061,0.0,0.0,0.0,0.0,0.0,0.0,0.0,0.0,0.0,0.0,0.0,0.0,0.0,0.0,0.0,0.0,0.0,0.0,0.0,2.0766,2.0927,2.1214,0.0,0.0,0.0,0.0,0.0,0.0,0.0,0.0,0.0,2.83,2.803,2.7918,0.0,0.0,2.9145,2.9194,2.9302,2.9347,2.9321,2.8942,0.0,2.8776,2.8302,2.798,2.8223,2.8565,2.9164,3.0163,3.0786,3.1311,3.1727,3.1863,3.1909,3.1972,3.0799,2.9879,2.982,3.0192,3.0557,3.0557,3.0557,3.0584,1.694,1.6823,1.6317,1.6077,1.6066,1.6088,1.6133,1.6211,1.6253,1.6309,1.6318,1.6385,1.6459,1.6586,1.6631,0.0,0.0,0.0,1.7509,1.7915,1.8059,1.8297,1.862,1.8812,1.908,1.9426,1.9436,1.9546,1.9742,1.9674,1.9501,1.9236,0.0,0.0,1.865,1.8755,1.8527,1.8002,1.824,1.8015,1.7319,1.7023,1.6928,1.7013,1.701,1.7139,1.7388,1.7447,1.7614,1.7892,1.771,1.7587,0.0,0.0,0.0,0.0,0.0,0.0,0.0,0.0,0.0,0.0,0.0,1.8097,1.8911,0.0,0.0,0.0,2.1013,2.1455,2.1832,2.2062,0.0,0.0,0.0,0.0,0.0,0.0,0.0,2.6638,2.7272,2.8103,2.9426,2.9621,2.9544,2.9248,2.9747,3.0,2.9658,0.0,3.0119,3.0015,2.9709,2.9517,2.9592,2.9357,2.928,2.9647,2.9998,3.0601,3.1547,3.2171,3.2663,3.2999,3.3115,3.3163,3.3381,3.228,3.1427,3.1417,3.1755,3.2053,3.2087,3.206,3.207,1.8192,1.8092,1.6865,1.6368,1.6356,1.6356,1.6367,1.6378,1.6509,1.6593,1.6658,1.6791,1.692,1.708,1.7153,0.0,1.7673,1.7811,1.8075,1.8381,1.8579,1.8761,1.8979,1.9118,1.9522,2.0185,2.0205,2.046,2.0899,2.0913,2.0884,2.0766,1.9981,1.9681,1.9828,1.9786,1.9564,1.9159,1.9165,1.8803,1.8018,1.7364,1.7096,1.7285,1.7256,1.7399,1.7713,1.7852,1.8009,1.8222,1.842,1.8327,1.7942,0.0,0.0,0.0,0.0,0.0,0.0,0.0,0.0,0.0,0.0,0.0,0.0,0.0,0.0,2.1473,2.2373,0.0,2.3013,2.3506,0.0,0.0,0.0,2.4094,2.5088,2.5775,2.655,2.7485,0.0,0.0,2.9669,3.0172,3.0361,2.9913,3.0257,3.0374,2.9862,3.0266,3.0486,3.0295,3.0271,3.0291,3.0317,3.0405,3.0641,3.1151,3.137,3.158,3.2331,3.2941,3.3278,3.34,3.3299,3.3392,3.3556,3.3582,3.3582,3.3531,3.3429,3.3355,3.3288,3.3271,3.3243,1.8192,1.8167,1.7857,1.7734,1.7709,1.7721,1.7722,1.7733,1.7871,1.7939,1.7962,1.81,1.8283,1.8509,1.8775,1.8996,1.9193,1.943,1.9655,1.9877,2.0023,2.0214,2.0394,2.0545,2.0705,2.0937,2.1043,2.1096,2.114,2.113,2.1264,2.1514,2.133,2.0908,2.0275,2.0286,2.0073,1.9557,1.9808,1.9628,1.8989,1.8361,1.8076,1.8129,1.7769,1.7679,1.7842,1.8019,1.8222,1.8429,1.8566,1.8707,1.8785,1.8455,0.0,0.0,0.0,0.0,0.0,0.0,0.0,0.0,0.0,1.9939,2.0892,0.0,2.2329,0.0,2.3414,2.3943,2.3959,2.3974,0.0,0.0,2.4752,2.5237,2.6664,2.6936,2.7561,2.8987,2.9347,2.9662,3.0216,3.063,3.0754,3.0413,3.0776,3.1184,3.139,3.169,3.1907,3.1776,3.1376,3.1111,3.1094,3.0887,3.0964,3.1449,3.1642,3.2014,3.2985,3.3364,3.3799,3.457,3.4772,3.4846,3.498,3.5087,3.507,3.5002,3.4207,3.3389,3.3389,3.3396,3.3406,1.892,1.8907,1.892,1.8907,1.8894,1.8405,1.8239,1.8286,1.8381,1.8462,1.8603,1.8763,1.8991,1.9324,1.9514,1.9726,1.9932,2.0139,2.0333,2.0525,2.0677,2.0813,2.0945,2.1083,2.1322,2.1651,2.1755,2.1934,2.2121,2.2062,2.2312,2.2794,2.2708,2.2529,2.2315,2.1883,2.1403,2.0912,2.0425,2.003,1.9686,1.8846,1.8438,1.8468,1.8054,1.7939,1.8153,1.8366,1.8591,1.8831,1.8917,1.905,1.9223,1.9011,1.9051,0.0,0.0,0.0,0.0,0.0,0.0,0.0,0.0,0.0,0.0,0.0,2.3442,2.3636,2.4388,2.4833,2.4825,2.4996,2.5263,2.5646,2.589,2.6367,2.7264,2.7843,2.8543,2.943,2.9664,2.9981,3.0604,3.0826,3.1045,3.1214,3.1462,3.1668,3.1847,3.2199,3.2453,3.2396,3.2088,3.1884,3.1909,3.1831,3.1896,3.2339,3.2604,3.3007,3.3753,3.4015,3.4353,3.504,3.5256,3.5349,3.5503,3.5577,3.56,3.5498,3.4968,3.4444,3.4393,3.4366,3.4376,1.9811,1.9811,1.9811,1.9811,1.9723,1.8819,1.8501,1.8607,1.8631,1.8809,1.908,1.9273,1.9569,1.991,1.9955,2.0144,2.0463,2.0604,2.0791,2.0973,2.1089,2.118,2.1249,2.1395,2.1779,2.2321,2.2424,2.2802,2.3452,2.3348,2.3592,2.4206,2.3998,2.4197,2.4741,2.3877,2.3106,2.247,2.118,2.0471,2.0403,1.9306,1.8744,1.8784,1.8399,1.8294,1.8537,1.8745,1.9017,1.9391,1.9419,1.951,1.9673,1.979,2.0083,0.0,2.0789,0.0,0.0,0.0,0.0,0.0,0.0,0.0,0.0,2.4017,2.4394,2.4732,2.5283,2.5622,2.5622,2.6143,2.6458,2.6463,2.6965,2.7365,2.7578,2.8596,2.9323,2.9385,2.9833,3.0321,3.0781,3.0912,3.1274,3.1931,3.205,3.1966,3.1785,3.2182,3.2482,3.2384,3.237,3.2336,3.2489,3.2713,3.294,3.3366,3.3585,3.4,3.4297,3.4525,3.4751,3.5006,3.5187,3.5314,3.5457,3.5543,3.5594,3.5583,3.5504,3.5481,3.5498,3.5481,3.5628,1.9811,1.9811,1.9811,1.9811,1.9799,1.9686,1.9661,1.9712,1.9812,2.01,2.0497,2.0592,2.0796,2.1084,2.1309,2.1567,2.1822,2.2062,2.226,2.2413,2.2484,2.2526,2.2548,2.2787,2.298,2.3094,2.3269,2.3676,2.4271,2.4252,2.4463,2.4901,2.4868,2.5016,2.5401,0.0,0.0,0.0,2.2461,2.2004,2.1485,2.0797,2.0249,1.9911,1.9405,0.0,1.8759,1.8926,1.9357,1.9977,2.0137,0.0,0.0,0.0,0.0,0.0,0.0,0.0,0.0,0.0,0.0,0.0,2.3871,2.3916,2.3793,2.4556,2.5372,2.6042,2.6243,2.6319,2.6293,2.6325,2.6572,2.7111,2.7254,2.7725,2.8758,2.9156,2.9436,2.982,2.9892,3.0112,3.0682,3.0963,3.1383,3.195,3.2198,3.2251,3.2103,3.2182,3.2261,3.2233,3.2248,3.2333,3.2566,3.2749,3.2969,3.3298,3.3568,3.3851,3.4138,3.4386,3.4618,3.4887,3.5041,3.5187,3.5303,3.5423,3.552,3.5526,3.556,3.5628,3.5628,3.5628,3.5628,2.0238,0.0,2.0238,2.0441,0.0,2.0813,2.092,2.1053,2.0553,2.0561,2.0948,2.1046,2.1451,2.2054,2.2188,2.2597,2.3231,2.3438,2.3607,2.3743,2.3809,2.3841,2.3853,2.4037,2.4176,2.4256,2.4413,2.4671,2.5029,2.4959,2.5204,2.5719,2.5685,2.5898,2.6387,2.6262,2.5488,2.4105,2.3628,2.3092,2.2468,2.1906,2.1315,2.0767,2.0288,0.0,0.0,0.0,0.0,0.0,0.0,0.0,0.0,0.0,0.0,2.2179,2.2244,2.2496,2.2945,2.3307,2.3742,2.431,2.4734,2.4995,2.4982,2.5478,2.599,2.6444,2.6494,2.6476,2.6416,2.6664,2.6959,2.7256,2.7878,2.8553,2.9102,2.9404,2.9625,2.9854,3.0,3.0261,3.0863,3.1323,3.1739,3.2118,3.2303,3.2315,3.215,3.2094,3.2094,3.2123,3.2164,3.2263,3.2387,3.2611,3.286,3.3136,3.3359,3.3642,3.4038,3.4197,3.4411,3.4715,3.4911,3.5041,3.5175,3.5308,3.54,3.5497,3.5537,3.556,3.5588,3.5628,3.5628,2.0923,2.0937,2.0936,2.1256,2.1745,2.1773,2.1979,2.2201,0.0,0.0,0.0,2.1451,2.2019,2.287,2.2857,2.3373,2.4253,2.4446,2.457,2.4679,2.4763,2.4824,2.4824,2.4932,2.5053,2.517,2.5325,2.5533,2.572,2.5661,2.5943,2.6515,2.6473,2.6661,2.715,2.6989,2.6453,2.5569,2.4734,2.401,2.3366,2.2811,2.2213,2.1566,2.1151,2.0966,2.1079,2.1292,2.1554,2.1849,2.1869,2.1919,2.2024,2.2049,2.2288,2.2808,2.2967,2.3307,2.3947,2.4322,2.46,2.4822,2.5304,2.5756,2.6114,2.6206,2.6294,2.6407,2.6424,2.6397,2.646,2.6939,2.7353,2.7447,2.852,2.9198,2.9242,2.9534,2.9733,2.9737,2.9989,3.0481,3.1036,3.1528,3.202,3.2295,3.2313,3.2189,3.1982,3.194,3.1968,3.1968,3.204,3.2123,3.2219,3.2399,3.2676,3.2933,3.3176,3.3464,3.3835,3.4038,3.4226,3.4509,3.4715,3.4863,3.4994,3.5111,3.5268,3.5412,3.5446,3.5492,3.556,3.5594,3.5577,2.1822,2.1808,2.1808,2.1873,2.1951,2.2088,2.228,2.2537,2.2365,2.2392,2.2565,2.2682,2.3009,2.3464,2.3478,2.3749,2.4214,2.4431,2.4529,2.4626,2.4737,2.4824,2.4905,2.4973,2.4992,2.5041,2.5292,2.5708,2.624,2.638,2.6723,2.7179,2.7255,2.7221,2.7192,2.7168,2.7073,2.6891,2.579,2.4918,2.4303,2.3661,2.3095,2.2597,2.2087,2.1661,2.1367,2.1449,2.1818,2.2513,2.2568,2.2793,2.3306,2.331,2.3385,2.3471,2.3704,2.3891,2.3999,2.4312,2.4641,2.4962,2.5378,2.57,2.5915,2.6008,2.6037,2.6064,2.6114,2.6336,2.6869,2.7017,2.7544,2.8577,2.8878,2.9149,2.9589,2.9668,2.9566,2.9284,2.9757,3.0317,3.0788,3.1239,3.1788,3.2187,3.2108,3.1812,3.1683,3.1727,3.1813,3.1828,3.1845,3.1945,3.2123,3.233,3.248,3.2619,3.3014,3.3295,3.345,3.38,3.4075,3.4176,3.4399,3.4582,3.4727,3.4863,3.5022,3.514,3.5243,3.537,3.548,3.5498,3.5549,2.2426,2.2426,2.2439,2.2662,2.3044,2.3245,2.3416,2.3542,2.3709,2.3432,2.2951,2.3175,2.3601,2.4126,2.4232,2.461,2.522,2.5391,2.5533,2.5633,2.5817,2.5894,2.5921,2.5959,2.6008,2.6084,2.6282,2.6569,2.6926,2.7091,2.7278,2.7514,2.7859,2.7988,2.7871,2.7843,2.7817,2.7737,2.6844,2.6076,2.5423,2.513,2.4704,2.4163,2.3577,2.3194,2.3078,2.2746,2.2772,2.3161,2.3171,2.3321,2.358,2.3584,2.3584,2.3606,2.3797,2.3914,2.3993,2.4322,2.4797,2.5467,2.5705,2.607,2.6658,2.6229,2.6083,2.6445,2.6477,2.6789,2.7528,2.783,2.8239,2.885,2.9156,2.9377,2.9496,2.9441,2.9278,2.9126,2.9822,3.0419,3.0556,3.13,3.1838,3.2048,3.1812,3.1597,3.1525,3.1568,3.1626,3.1626,3.1714,3.1844,3.1983,3.2164,3.233,3.2482,3.2728,3.3014,3.3214,3.3555,3.3736,3.3949,3.4151,3.4325,3.446,3.4594,3.4756,3.4947,3.5034,3.5157,3.5331,3.5428,3.5469,2.3106,2.3134,2.3134,2.3492,2.4055,2.4276,2.4379,2.4436,2.4708,2.4337,2.3595,2.3767,2.4228,2.4789,2.4951,2.5376,2.6014,2.6205,2.6338,2.6472,2.6686,2.6807,2.6807,2.6807,2.6859,2.7006,2.7264,2.7493,2.7598,2.7899,2.8049,2.8109,2.8575,2.8762,2.8684,2.8684,2.8631,2.8478,2.7859,2.7155,2.6459,2.627,2.5973,2.5508,2.4873,2.4591,2.468,2.4238,2.3996,2.4048,2.4044,2.407,2.4059,2.4059,2.4044,2.407,2.4168,2.4314,2.4491,2.4747,2.5238,2.6026,2.6162,2.6498,2.7147,2.6644,2.6414,2.6925,2.7023,2.7333,2.8023,2.8462,2.8811,2.8909,2.9283,2.942,2.9259,2.9114,2.8971,2.8979,2.985,3.0503,3.0584,3.1369,3.1949,3.1754,3.1597,3.1496,3.1496,3.1496,3.1496,3.1525,3.1641,3.1756,3.1799,3.1968,3.2149,3.2315,3.2482,3.2715,3.3027,3.3174,3.3359,3.3697,3.386,3.4025,3.4176,3.4325,3.4485,3.4679,3.478,3.4899,3.514,3.5313,3.5422,2.4051,2.4155,2.4142,2.4296,2.4533,2.4563,2.469,2.4818,2.4934,2.5021,2.4996,2.5052,2.5176,2.5412,2.5535,2.5742,2.5962,2.6192,2.6342,2.641,2.6647,2.6807,2.6865,2.6836,2.6806,2.6974,2.7706,2.8117,2.8175,2.8962,2.9368,2.9428,2.9473,2.949,2.949,2.949,2.9476,2.9446,2.8805,2.8033,2.7133,2.6518,2.6179,2.612,2.558,2.531,2.5319,2.5368,2.5408,2.542,2.5364,2.5405,2.5379,2.5393,2.5405,2.5375,2.5509,2.5727,2.5947,2.6071,2.6189,2.643,2.6623,2.6833,2.7088,2.71,2.7173,2.7414,2.745,2.7771,2.8431,2.8512,2.8702,2.9129,2.9184,2.9087,2.8982,2.8869,2.8791,2.8649,2.9651,3.0357,3.034,3.1157,3.1725,3.1597,3.1539,3.1496,3.1496,3.1496,3.1496,3.1496,3.1524,3.1611,3.1741,3.1814,3.1954,3.2177,3.233,3.2509,3.2687,3.292,3.3176,3.3332,3.349,3.3658,3.386,3.405,3.4176,3.4349,3.4485,3.4635,3.4899,3.5116,3.5308,2.4433,2.4477,2.4478,2.4778,2.5232,2.5331,2.5665,2.6151,2.6312,2.6387,2.6459,2.6531,2.6229,2.5633,2.5743,2.6049,2.6441,2.6746,2.7111,2.744,2.7773,2.7925,2.7925,2.7925,2.7924,2.7966,2.8474,2.8728,2.8827,2.9308,2.9608,2.9653,2.9952,3.0132,3.0118,3.0133,3.0133,3.0103,2.9505,2.9001,2.855,2.7586,2.7021,2.6961,2.643,2.6099,2.6066,2.5785,2.56,2.56,2.56,2.56,2.56,2.56,2.56,2.56,2.5735,2.5851,2.5966,2.615,2.6462,2.6991,2.7189,2.7491,2.802,2.8108,2.8203,2.8273,2.8075,2.8189,2.876,2.877,2.879,2.9012,2.8986,2.8858,2.8724,2.8624,2.8505,2.8485,2.9414,3.0118,3.0162,3.0931,3.1522,3.151,3.1496,3.1496,3.1496,3.1496,3.1496,3.1496,3.1496,3.151,3.1611,3.1727,3.1841,3.1955,3.2081,3.2205,3.2439,3.2564,3.2742,3.3,3.3163,3.3306,3.3487,3.3671,3.3813,3.4,3.425,3.4448,3.4618,3.4828,3.4982,2.5261,2.5303,2.532,2.565,2.6132,2.6234,2.6611,2.7144,2.7365,2.744,2.7455,2.7617,2.7213,2.6483,2.6455,2.6736,2.7117,2.7484,2.7853,2.8283,2.8582,2.8694,2.868,2.868,2.8723,2.8822,2.9178,2.9522,2.9739,2.9993,3.0118,3.0193,3.0553,3.0762,3.0777,3.0792,3.0777,3.0731,3.0163,2.9847,2.9698,2.8738,2.8064,2.7854,2.7228,2.6869,2.6869,2.6408,2.6153,2.6153,2.6138,2.6138,2.6138,2.6138,2.6138,2.6165,2.6237,2.6308,2.6359,2.6536,2.6901,2.7493,2.7693,2.8023,2.854,2.8723,2.8763,2.8759,2.8466,2.8463,2.8852,2.8908,2.8838,2.8767,2.8704,2.8624,2.8468,2.8335,2.8327,2.8485,2.9349,3.0056,3.0314,3.1012,3.1496,3.1496,3.1496,3.1496,3.1496,3.1496,3.1496,3.1496,3.1496,3.1496,3.1511,3.1597,3.1713,3.1814,3.1897,3.2024,3.2231,3.2288,3.2399,3.2689,3.2825,3.3002,3.3189,3.3335,3.349,3.3761,3.4,3.4213,3.4362,3.4497,3.4655,2.6877,2.6971,2.712,2.7152,2.7222,2.725,2.7278,2.7505,2.7686,2.7804,2.7904,2.811,2.8154,2.8068,2.7954,2.7925,2.7996,2.8283,2.8483,2.8584,2.8725,2.8724,2.868,2.8694,2.8794,2.9095,2.9748,3.0464,3.1258,3.1347,3.1421,3.1376,3.1376,3.1421,3.1391,3.1391,3.1436,3.1301,3.0777,3.0462,3.0387,2.9832,2.9174,2.8607,2.7902,2.757,2.754,2.7525,2.7465,2.7495,2.742,2.7437,2.7465,2.745,2.742,2.7435,2.745,2.7528,2.7612,2.7604,2.7739,2.7926,2.8027,2.821,2.8381,2.8489,2.8572,2.8616,2.8438,2.8432,2.868,2.8723,2.8648,2.8456,2.8451,2.8345,2.8112,2.8236,2.8363,2.8872,2.9497,3.0253,3.121,3.1451,3.1496,3.1496,3.1496,3.1496,3.1496,3.1496,3.1496,3.1496,3.1496,3.1496,3.1496,3.1524,3.1611,3.1698,3.177,3.1856,3.194,3.2067,3.2206,3.233,3.2454,3.2635,3.2856,3.3058,3.3256,3.3477,3.3707,3.3911,3.4038,3.4213,3.4386,2.7173,2.7261,2.741,2.7751,2.8189,2.8294,2.8624,2.9095,2.9215,2.9275,2.929,2.9366,2.9425,2.9411,2.9442,2.9212,2.8825,2.8972,2.929,2.9636,2.9827,2.9915,2.9915,3.0002,3.0075,3.0192,3.0615,3.1084,3.1422,3.1496,3.1496,3.1496,3.1496,3.1496,3.1496,3.1496,3.1496,3.1466,3.1256,3.1137,3.1062,3.0522,3.0057,2.9789,2.88,2.8231,2.8246,2.7824,2.7585,2.7585,2.76,2.7585,2.7585,2.7585,2.7585,2.7585,2.7585,2.7625,2.7663,2.7738,2.7815,2.7865,2.7992,2.8091,2.8128,2.8189,2.8244,2.8278,2.821,2.8342,2.8753,2.859,2.8253,2.821,2.8509,2.8743,2.8733,2.8932,2.9258,2.9533,2.9938,3.0579,3.1225,3.1496,3.1496,3.1496,3.1496,3.1496,3.1496,3.1496,3.1496,3.1496,3.1496,3.1496,3.1496,3.1496,3.1524,3.1568,3.1626,3.1712,3.1798,3.1855,3.1982,3.2137,3.2206,3.2344,3.2609,3.2814,3.3016,3.3189,3.3424,3.3594,3.3697,3.3927,3.4129,2.8218,2.8233,2.8352,2.8695,2.9153,2.9243,2.9591,3.0082,3.0142,3.0158,3.0158,3.0219,3.0264,3.028,3.0402,3.0215,2.9751,2.9782,3.0013,3.0388,3.0583,3.0657,3.0687,3.0836,3.0925,3.0999,3.1234,3.1423,3.1496,3.1496,3.1496,3.1496,3.1496,3.1496,3.1496,3.1496,3.1496,3.1496,3.1496,3.1496,3.1436,3.1047,3.0822,3.0658,2.9774,2.9101,2.8921,2.8483,2.8244,2.8244,2.8244,2.8154,2.7959,2.772,2.7585,2.7585,2.7585,2.7585,2.7597,2.769,2.7738,2.7738,2.7853,2.7943,2.7943,2.798,2.8141,2.8338,2.8334,2.8591,2.9165,2.8916,2.853,2.8629,2.899,2.9234,2.9212,2.9497,2.9773,3.0031,3.0503,3.1016,3.1391,3.1481,3.1496,3.1496,3.1496,3.1496,3.1496,3.1496,3.1496,3.1496,3.1496,3.1496,3.1496,3.1496,3.1496,3.151,3.1524,3.1611,3.1655,3.1683,3.177,3.1897,3.2039,3.2164,3.2345,3.2566,3.2744,3.2908,3.3083,3.3253,3.3424,3.3645,3.3864,3.0023,2.995,3.0066,2.9966,2.9995,3.0026,3.0097,3.0172,3.0281,3.0372,3.0402,3.0522,3.0612,3.0627,3.0717,3.0762,3.0674,3.057,3.0569,3.0642,3.0747,3.0806,3.0821,3.0999,3.1161,3.1263,3.1438,3.1481,3.1496,3.1496,3.1496,3.1496,3.1496,3.1496,3.1496,3.1496,3.1496,3.1496,3.1496,3.1496,3.1496,3.1436,3.1391,3.1361,3.0777,3.0193,2.9683,2.9548,2.9428,2.9458,2.9487,2.9249,2.8607,2.8096,2.769,2.7779,2.7705,2.7675,2.7705,2.7777,2.785,2.7877,2.7846,2.8017,2.8102,2.8132,2.844,2.8944,2.8984,2.9173,2.9884,2.9774,2.9539,2.974,2.9706,2.9741,2.9675,2.9636,2.9862,3.0462,3.1046,3.1436,3.1496,3.1496,3.1496,3.1496,3.1496,3.1496,3.1496,3.1496,3.1496,3.1496,3.1496,3.1496,3.1496,3.1496,3.1496,3.1496,3.1496,3.1524,3.1539,3.1583,3.164,3.1755,3.1856,3.1982,3.2164,3.2359,3.2441,3.2592,3.2771,3.2949,3.3134,3.3346,3.362,3.008,3.0111,3.0189,3.0249,3.0266,3.0477,3.0597,3.0597,3.0762,3.0866,3.0851,3.0925,3.0955,3.094,3.0984,3.0999,3.0984,3.0955,3.0925,3.0955,3.0984,3.1014,3.1028,3.1176,3.1307,3.1423,3.1467,3.1496,3.1496,3.1496,3.1496,3.1496,3.1496,3.1496,3.1496,3.1496,3.1496,3.1496,3.1496,3.1496,3.1496,3.1496,3.1496,3.1481,3.1286,3.1062,3.0897,3.0073,2.9623,2.9638,2.9608,2.9503,2.9279,2.9084,2.8964,2.8978,2.8964,2.8992,2.8964,2.8948,2.8904,2.8963,2.8989,2.903,2.9045,2.904,2.9171,2.9459,2.9417,2.966,3.0202,3.0295,3.0086,2.9707,3.0022,3.0264,3.0296,3.0583,3.0943,3.1151,3.1376,3.1466,3.1496,3.1496,3.1496,3.1496,3.1496,3.1496,3.1496,3.1496,3.1496,3.1496,3.1496,3.1496,3.1496,3.1496,3.1496,3.1496,3.1496,3.1496,3.1496,3.1496,3.1539,3.1611,3.1713,3.1841,3.2011,3.2122,3.2205,3.2302,3.2468,3.2633,3.2812,3.3038,3.329,3.0476,3.0462,3.0567,3.0583,3.0613,3.0836,3.0925,3.094,3.1043,3.1102,3.1102,3.1102,3.1102,3.1117,3.1146,3.1176,3.119,3.122,3.1249,3.1234,3.119,3.1176,3.1176,3.1307,3.1409,3.1481,3.1496,3.1496,3.1496,3.1496,3.1496,3.1496,3.1496,3.1496,3.1496,3.1496,3.1496,3.1496,3.1496,3.1496,3.1496,3.1496,3.1496,3.1496,3.1496,3.1496,3.1421,3.0717,3.0298,3.0239,3.0088,2.9937,2.9924,2.9728,2.9608,2.9608,2.9593,2.9578,2.9608,2.9518,2.9608,2.9608,2.9608,2.9593,2.9593,2.9608,2.9653,2.9892,2.9952,3.0207,3.0732,3.0882,3.0687,3.0387,3.0672,3.0853,3.0957,3.1241,3.1451,3.1466,3.1496,3.1496,3.1496,3.1496,3.1496,3.1496,3.1496,3.1496,3.1496,3.1496,3.1496,3.1496,3.1496,3.1496,3.1496,3.1496,3.1496,3.1496,3.1496,3.1496,3.1496,3.1496,3.1524,3.1539,3.1611,3.1713,3.1884,3.1912,3.1996,3.2094,3.2205,3.2358,3.2537,3.2701,3.2958,3.1087,3.1102,3.1087,3.1073,3.1058,3.1102,3.1102,3.1132,3.1146,3.1146,3.1146,3.1161,3.1146,3.1161,3.1263,3.1307,3.1336,3.1409,3.1452,3.1423,3.1365,3.1307,3.1307,3.1409,3.1496,3.1496,3.1496,3.1496,3.1496,3.1496,3.1496,3.1496,3.1496,3.1496,3.1496,3.1496,3.1496,3.1496,3.1496,3.1496,3.1496,3.1496,3.1496,3.1496,3.1496,3.1496,3.1466,3.1361,3.1376,3.1391,3.0837,3.0567,3.0477,3.0013,2.9847,2.9877,2.9758,2.9819,2.9773,2.9909,2.9879,2.9922,2.9909,2.9726,2.9892,2.9968,3.0118,3.0507,3.0567,3.0792,3.1286,3.1421,3.1376,3.1451,3.1346,3.1391,3.1466,3.1496,3.1496,3.1496,3.1496,3.1496,3.1496,3.1496,3.1496,3.1496,3.1496,3.1496,3.1496,3.1496,3.1496,3.1496,3.1496,3.1496,3.1496,3.1496,3.1496,3.1496,3.1496,3.1496,3.1496,3.1496,3.1496,3.1511,3.1525,3.1641,3.1698,3.1726,3.1826,3.1954,3.2066,3.215,3.2302,3.2482,3.2674,3.1102,3.1102,3.1102,3.1102,3.1117,3.119,3.1234,3.1263,3.1351,3.1366,3.1395,3.1395,3.138,3.1395,3.1409,3.1438,3.1452,3.1481,3.1496,3.1496,3.1452,3.1438,3.1438,3.1467,3.1496,3.1496,3.1496,3.1496,3.1496,3.1496,3.1511,3.1496,3.1555,3.154,3.1496,3.157,3.1496,3.1496,3.1511,3.1555,3.157,3.157,3.1496,3.1496,3.154,3.154,3.1511,3.1496,3.1496,3.1496,3.1361,3.1227,3.1167,3.1017,3.0882,3.0882,3.0928,3.0957,3.0957,3.0942,3.0943,3.1002,3.0867,3.0987,3.0987,3.0987,3.1062,3.1227,3.1241,3.1271,3.1466,3.1525,3.1511,3.1496,3.16,3.1585,3.1496,3.1496,3.1496,3.1496,3.1496,3.1496,3.1496,3.1496,3.1496,3.1496,3.1496,3.1496,3.1496,3.1496,3.1496,3.1496,3.1496,3.1496,3.1496,3.1496,3.1496,3.1496,3.1496,3.1496,3.1496,3.1496,3.1496,3.1496,3.1511,3.1583,3.1568,3.1568,3.1698,3.1827,3.1869,3.1939,3.2163,3.2358,3.2482,3.1278,3.1278,3.1263,3.1263,3.1278,3.1351,3.1365,3.1394,3.1467,3.1496,3.1496,3.1496,3.1496,3.1496,3.1496,3.1496,3.1496,3.1496,3.1496,3.1496,3.1496,3.1481,3.1496,3.1496,3.1496,3.1496,3.1496,3.1496,3.1496,3.1496,3.163,3.1899,3.1914,3.2063,3.2407,3.2347,3.2333,3.2362,3.2333,3.2347,3.2347,3.2347,3.2347,3.2347,3.2333,3.2318,3.2347,3.2362,3.2123,3.1675,3.1496,3.1496,3.1496,3.1496,3.1496,3.1496,3.1496,3.1481,3.1496,3.1496,3.1496,3.1496,3.1496,3.1496,3.1466,3.1496,3.1496,3.1481,3.1496,3.1496,3.1555,3.1735,3.1884,3.1974,3.2168,3.2079,3.16,3.1496,3.1496,3.1496,3.1496,3.1511,3.1511,3.1525,3.1511,3.1496,3.1496,3.1496,3.1496,3.1496,3.1496,3.1496,3.1496,3.1496,3.1496,3.1496,3.1496,3.1496,3.1496,3.1496,3.1496,3.1496,3.1496,3.1496,3.1496,3.1496,3.1496,3.1496,3.1568,3.164,3.1669,3.1769,3.1981,3.2191,3.2316,3.1496,3.1496,3.1496,3.1496,3.1481,3.1496,3.1481,3.1496,3.1496,3.1496,3.1496,3.1496,3.1496,3.1496,3.1496,3.1496,3.1496,3.1496,3.1496,3.1496,3.1496,3.1496,3.1496,3.1496,3.1496,3.1496,3.1496,3.1496,3.154,3.1555,3.1929,3.2333,3.2497,3.2886,3.317,3.3365,3.3469,3.335,3.3275,3.326,3.326,3.326,3.323,3.3245,3.326,3.3275,3.3335,3.3335,3.2931,3.1765,3.166,3.1615,3.157,3.1496,3.1496,3.1496,3.1496,3.1496,3.1496,3.1496,3.1496,3.1496,3.1496,3.1496,3.1496,3.1496,3.1555,3.172,3.1601,3.175,3.1974,3.2303,3.2527,3.2662,3.3125,3.2811,3.2078,3.1705,3.1705,3.1719,3.1735,3.172,3.1705,3.166,3.1646,3.1825,3.1691,3.1498,3.1497,3.1496,3.1496,3.1496,3.1496,3.1496,3.1496,3.1496,3.1496,3.1496,3.1496,3.1496,3.1496,3.1496,3.1496,3.1496,3.1496,3.1496,3.1496,3.1496,3.1525,3.1525,3.1583,3.167,3.1784,3.1996,3.2165,3.1496,3.1496,3.1496,3.1496,3.1496,3.1496,3.1496,3.1496,3.1496,3.1496,3.1496,3.1496,3.1496,3.1496,3.1496,3.1496,3.1511,3.1525,3.1496,3.1496,3.1496,3.1511,3.1555,3.16,3.154,3.1525,3.1496,3.1511,3.1615,3.2034,3.2347,3.2587,3.311,3.3365,3.3544,3.3679,3.3514,3.3514,3.3544,3.3604,3.3634,3.3634,3.3634,3.3619,3.3604,3.3544,3.3514,3.3499,3.335,3.3036,3.2602,3.2168,3.1765,3.1615,3.163,3.1645,3.16,3.157,3.1525,3.1615,3.1525,3.163,3.1675,3.1496,3.1496,3.1585,3.1809,3.2108,3.2303,3.2482,3.2871,3.314,3.3275,3.3335,3.3469,3.3499,3.3155,3.3051,3.2931,3.2976,3.2976,3.3051,3.3021,3.2616,3.2452,3.2258,3.193,3.1589,3.1529,3.1556,3.1496,3.1496,3.1496,3.1496,3.1496,3.1496,3.1496,3.1496,3.1496,3.1496,3.1496,3.1496,3.1496,3.1496,3.1496,3.1496,3.1496,3.1496,3.1496,3.1496,3.1496,3.1597,3.1713,3.1869,3.204,3.1496,3.1496,3.1496,3.1496,3.1496,3.1496,3.1496,3.1496,3.1496,3.1496,3.1496,3.1496,3.1496,3.1496,3.1496,3.1496,3.1585,3.1869,3.2168,3.2392,3.2467,3.2452,3.2437,3.2347,3.2213,3.172,3.1854,3.1944,3.2153,3.2617,3.314,3.3425,3.3814,3.4188,3.4397,3.4413,3.4487,3.4502,3.4442,3.4442,3.4442,3.4442,3.4442,3.4442,3.4442,3.4442,3.4487,3.4472,3.4277,3.3963,3.3604,3.314,3.2572,3.2422,3.2437,3.2437,3.2437,3.2437,3.2437,3.2437,3.2482,3.2422,3.2437,3.2437,3.2437,3.2452,3.2572,3.2871,3.3006,3.314,3.3485,3.3874,3.3934,3.4039,3.4247,3.4412,3.4337,3.3918,3.3499,3.3499,3.3425,3.344,3.3379,3.3346,3.3183,3.2946,3.2437,3.2094,3.19,3.1869,3.1555,3.1496,3.1496,3.1496,3.1496,3.1496,3.1496,3.1496,3.1496,3.1496,3.1496,3.1496,3.1496,3.1496,3.1496,3.1496,3.1496,3.1496,3.1496,3.1496,3.151,3.1553,3.1655,3.184,3.1968,3.1496,3.1496,3.1496,3.1496,3.1496,3.1496,3.1496,3.1496,3.1496,3.1496,3.154,3.1585,3.175,3.1705,3.1869,3.181,3.1989,3.2347,3.2901,3.323,3.3275,3.3275,3.329,3.32,3.2886,3.1944,3.2377,3.2647,3.2826,3.3305,3.3844,3.4383,3.4638,3.4847,3.534,3.5474,3.5325,3.528,3.528,3.531,3.5325,3.534,3.534,3.531,3.5295,3.5295,3.528,3.528,3.519,3.4697,3.4652,3.4338,3.3933,3.3529,3.3499,3.344,3.3335,3.3275,3.3245,3.335,3.338,3.3499,3.3455,3.3455,3.341,3.335,3.344,3.3649,3.3784,3.3918,3.3874,3.4323,3.4622,3.4727,3.5191,3.5444,3.531,3.4457,3.4068,3.3948,3.4143,3.4218,3.4113,3.4051,3.3843,3.3589,3.308,3.2677,3.2482,3.2198,3.1929,3.1645,3.1645,3.1525,3.1496,3.1496,3.1496,3.1496,3.1496,3.1496,3.1496,3.1496,3.1496,3.1496,3.1496,3.1496,3.1496,3.1496,3.1496,3.1496,3.1496,3.1524,3.1655,3.1798,3.2001,3.1496,3.1496,3.1496,3.1496,3.1496,3.1496,3.1511,3.1496,3.1555,3.1511,3.163,3.2079,3.2333,3.2437,3.2961,3.314,3.311,3.3305,3.3455,3.3634,3.3664,3.3679,3.3724,3.3769,3.347,3.3275,3.335,3.341,3.35,3.3994,3.4413,3.4622,3.5027,3.5415,3.5429,3.5489,3.5489,3.5489,3.5489,3.5489,3.5489,3.5489,3.5489,3.5489,3.5489,3.5489,3.5489,3.5489,3.5444,3.5355,3.5356,3.5235,3.4891,3.4113,3.3709,3.3679,3.3709,3.3769,3.3739,3.3619,3.3544,3.3499,3.3634,3.3619,3.3604,3.3619,3.3933,3.4322,3.4756,3.5085,3.5159,3.516,3.5265,3.5355,3.537,3.5489,3.5444,3.522,3.4966,3.4876,3.4981,3.5011,3.4831,3.4696,3.4577,3.4307,3.3888,3.3499,3.3275,3.2856,3.2422,3.2123,3.1854,3.166,3.1496,3.1496,3.1496,3.1496,3.1496,3.1496,3.1496,3.1496,3.1496,3.1496,3.1496,3.1496,3.1496,3.1496,3.1496,3.1496,3.1496,3.1496,3.17,3.1918,3.2407,3.1824,3.1511,3.1496,3.1496,3.1496,3.1496,3.1705,3.2004,3.2004,3.2198,3.2542,3.2886,3.3021,3.311,3.329,3.3649,3.3964,3.4024,3.4218,3.4427,3.4532,3.4532,3.4487,3.4502,3.4547,3.4532,3.4532,3.4277,3.4113,3.4697,3.4952,3.5086,3.5385,3.5489,3.5489,3.5489,3.5489,3.5489,3.5489,3.5489,3.5489,3.5489,3.5489,3.5489,3.5489,3.5489,3.5489,3.5489,3.5489,3.5489,3.5489,3.5489,3.5295,3.4981,3.4502,3.4487,3.4472,3.4502,3.4517,3.4532,3.4592,3.4562,3.4502,3.4532,3.4547,3.4622,3.4622,3.4951,3.5175,3.5489,3.5444,3.5489,3.5489,3.5489,3.5489,3.5489,3.5489,3.5489,3.5489,3.5489,3.537,3.5295,3.537,3.528,3.5265,3.5009,3.462,3.4322,3.4038,3.3514,3.2976,3.2482,3.2168,3.1959,3.1795,3.1809,3.1824,3.178,3.1735,3.1735,3.1675,3.1765,3.1615,3.1496,3.1496,3.172,3.1496,3.1496,3.1496,3.1511,3.1555,3.1614,3.1789,3.2098,3.2694,3.2392,3.1914,3.1899,3.1899,3.1899,3.1914,3.2213,3.2632,3.2706,3.2961,3.3455,3.3634,3.3694,3.3739,3.3918,3.4218,3.4682,3.4712,3.4966,3.5265,3.5355,3.5444,3.5474,3.5489,3.537,3.525,3.531,3.522,3.4861,3.516,3.5415,3.5429,3.5474,3.5489,3.5489,3.5489,3.5489,3.5489,3.5489,3.5489,3.5489,3.5489,3.5489,3.5489,3.5489,3.5489,3.5489,3.5489,3.5489,3.5489,3.5489,3.5489,3.5489,3.5489,3.5489,3.5489,3.5489,3.5489,3.5444,3.54,3.5295,3.5265,3.5429,3.5459,3.5429,3.528,3.54,3.5489,3.5489,3.5489,3.5489,3.5489,3.5489,3.5489,3.5489,3.5489,3.5489,3.5489,3.5489,3.5489,3.5489,3.5489,3.5489,3.5489,3.54,3.537,3.4995,3.4935,3.4622,3.4083,3.3529,3.2901,3.2512,3.2273,3.2213,3.2288,3.2347,3.2407,3.2392,3.2392,3.2243,3.2138,3.2048,3.2078,3.2153,3.2318,3.1914,3.1511,3.1496,3.1525,3.16,3.1822,3.2163,3.2745,3.3406,3.335,3.326,3.326,3.3275,3.3215,3.3185,3.326,3.3365,3.338,3.3395,3.3709,3.4113,3.4383,3.4488,3.4951,3.5235,3.5325,3.531,3.5325,3.5489,3.5489,3.5489,3.5489,3.5489,3.5489,3.5489,3.5489,3.5474,3.5325,3.5415,3.5489,3.5489,3.5489,3.5489,3.5489,3.5489,3.5489,3.5489,3.5489,3.5489,3.5489,3.5489,3.5489,3.5489,3.5489,3.5489,3.5489,3.5489,3.5489,3.5489,3.5489,3.5489,3.5489,3.5489,3.5489,3.5489,3.5489,3.5489,3.5489,3.5489,3.5489,3.5489,3.5489,3.5489,3.5489,3.5489,3.5489,3.5489,3.5489,3.5489,3.5489,3.5489,3.5489,3.5489,3.5489,3.5489,3.5489,3.5489,3.5489,3.5489,3.5489,3.5489,3.5489,3.5489,3.5489,3.5474,3.5444,3.5355,3.5115,3.4532,3.4128,3.3514,3.302,3.2781,3.2677,3.2766,3.2826,3.2961,3.2976,3.2961,3.2841,3.2766,3.3036,3.3066,3.3051,3.2736,3.2273,3.1884,3.163,3.1794,3.2212,3.2451,3.2659,3.3364,3.4179,3.4188,3.3514,3.3499,3.3499,3.3499,3.3499,3.3724,3.4024,3.4054,3.4293,3.4637,3.4906,3.5055,3.5115,3.5398,3.5474,3.5489,3.5489,3.5489,3.5489,3.5489,3.5489,3.5489,3.5489,3.5489,3.5489,3.5489,3.5489,3.5489,3.5489,3.5489,3.5489,3.5489,3.5489,3.5489,3.5489,3.5489,3.5489,3.5489,3.5489,3.5489,3.5489,3.5489,3.5489,3.5489,3.5489,3.5489,3.5489,3.5489,3.5489,3.5489,3.5489,3.5489,3.5489,3.5489,3.5489,3.5489,3.5489,3.5489,3.5489,3.5489,3.5489,3.5489,3.5489,3.5489,3.5489,3.5489,3.5489,3.5489,3.5489,3.5489,3.5489,3.5489,3.5489,3.5489,3.5489,3.5489,3.5489,3.5489,3.5489,3.5489,3.5489,3.5489,3.5489,3.5489,3.5489,3.5474,3.5429,3.519,3.4787,3.4443,3.4158,3.3724,3.335,3.3275,3.3275,3.329,3.3365,3.3365,3.3365,3.338,3.344,3.3694,3.3634,3.3395,3.3036,3.2617,3.2572,3.2557,3.2736,3.2961,3.3201,3.3486,3.4301,3.5183,3.4906,3.4008,3.4008,3.4008,3.4008,3.4008,3.4277,3.4712,3.4742,3.5042,3.5385,3.5474,3.5474,3.5489,3.5489,3.5489,3.5489,3.5489,3.5489,3.5489,3.5489,3.5489,3.5489,3.5489,3.5489,3.5489,3.5489,3.5489,3.5489,3.5489,3.5489,3.5489,3.5489,3.5489,3.5489,3.5489,3.5489,3.5489,3.5489,3.5489,3.5489,3.5489,3.5489,3.5489,3.5489,3.5489,3.5489,3.5489,3.5489,3.5489,3.5489,3.5489,3.5489,3.5489,3.5489,3.5489,3.5489,3.5489,3.5489,3.5489,3.5489,3.5489,3.5489,3.5489,3.5489,3.5489,3.5489,3.5489,3.5489,3.5489,3.5489,3.5489,3.5489,3.5489,3.5489,3.5489,3.5489,3.5489,3.5489,3.5489,3.5489,3.5489,3.5489,3.5489,3.5489,3.5489,3.5489,3.5489,3.528,3.4982,3.4877,3.4697,3.4563,3.4233,3.4188,3.4083,3.3993,3.3888,3.3873,3.3978,3.4128,3.4188,3.4322,3.4143,3.3904,3.3993,3.3993,3.3739,3.3515,3.3486,3.3562,3.397,3.444,3.5232,3.5963,3.5459,3.5353,3.5325,3.5295,3.528,3.5355,3.5355,3.534,3.5385,3.54,3.5473,3.5489,3.5489,3.5489,3.5489,3.5489,3.5489,3.5489,3.5489,3.5489,3.5489,3.5489,3.5489,3.5489,3.5489,3.5489,3.5489,3.5489,3.5489,3.5489,3.5489,3.5489,3.5489,3.5489,3.5489,3.5489,3.5489,3.5489,3.5489,3.5489,3.5489,3.5489,3.5489,3.5489,3.5489,3.5489,3.5489,3.5489,3.5489,3.5489,3.5489,3.5489,3.5489,3.5489,3.5489,3.5489,3.5489,3.5489,3.5489,3.5489,3.5489,3.5489,3.5489,3.5489,3.5489,3.5489,3.5489,3.5489,3.5489,3.5489,3.5489,3.5489,3.5489,3.5489,3.5489,3.5489,3.5489,3.5489,3.5489,3.5489,3.5489,3.5489,3.5489,3.5489,3.5489,3.5489,3.5489,3.5489,3.5489,3.528,3.534,3.528,3.531,3.5235,3.5265,3.5115,3.4801,3.4741,3.4756,3.4936,3.513,3.5145,3.4875,3.4966,3.4816,3.51,3.5175,3.464,3.4207,3.4044,3.4182,3.4759,3.5324,3.5981,3.6606,3.5489,3.5489,3.5489,3.5489,3.5489,3.5489,3.5489,3.5489,3.5489,3.5489,3.5489,3.5489,3.5489,3.5489,3.5489,3.5489,3.5489,3.5489,3.5489,3.5489,3.5489,3.5489,3.5489,3.5489,3.5489,3.5489,3.5489,3.5489,3.5489,3.5489,3.5489,3.5489,3.5489,3.5489,3.5489,3.5489,3.5489,3.5489,3.5489,3.5489,3.5489,3.5489,3.5489,3.5489,3.5489,3.5489,3.5489,3.5489,3.5489,3.5489,3.5489,3.5489,3.5489,3.5489,3.5489,3.5489,3.5489,3.5489,3.5489,3.5489,3.5489,3.5489,3.5489,3.5489,3.5489,3.5489,3.5489,3.5489,3.5489,3.5489,3.5489,3.5489,3.5489,3.5489,3.5489,3.5489,3.5489,3.5489,3.5489,3.5489,3.5489,3.5489,3.5489,3.5489,3.5489,3.5489,3.5489,3.5489,3.5489,3.5489,3.5489,3.5489,3.5489,3.5489,3.5489,3.5489,3.5489,3.5489,3.5489,3.5489,3.5489,3.5474,3.531,3.5474,3.5522,3.5464,3.5332,3.5124,3.4948,3.4861,3.5215,3.5768,3.6307,3.6733,3.7186,3.5489,3.5489,3.5489,3.5489,3.5489,3.5489,3.5489,3.5489,3.5489,3.5489,3.5489,3.5489,3.5489,3.5489,3.5489,3.5489,3.5489,3.5489,3.5489,3.5489,3.5489,3.5489,3.5489,3.5489,3.5489,3.5489,3.5489,3.5489,3.5489,3.5489,3.5489,3.5489,3.5489,3.5489,3.5489,3.5489,3.5489,3.5489,3.5489,3.5489,3.5489,3.5489,3.5489,3.5489,3.5489,3.5489,3.5489,3.5489,3.5489,3.5489,3.5489,3.5489,3.5489,3.5489,3.5489,3.5489,3.5489,3.5489,3.5489,3.5489,3.5489,3.5489,3.5489,3.5489,3.5489,3.5489,3.5489,3.5489,3.5489,3.5489,3.5489,3.5489,3.5489,3.5489,3.5489,3.5489,3.5489,3.5489,3.5489,3.5489,3.5489,3.5489,3.5489,3.5489,3.5489,3.5489,3.5489,3.5489,3.5489,3.5489,3.5489,3.5489,3.5489,3.5489,3.5489,3.5489,3.5489,3.5489,3.5489,3.5489,3.5489,3.5489,3.5504,3.5504,3.5538,3.5604,3.558,3.5495,3.5618,3.5773,3.6103,3.6415,3.6767,3.7142,3.7528,3.5489,3.5489,3.5489,3.5489,3.5489,3.5489,3.5489,3.5489,3.5489,3.5489,3.5489,3.5489,3.5489,3.5489,3.5489,3.5489,3.5489,3.5489,3.5489,3.5489,3.5489,3.5489,3.5489,3.5489,3.5489,3.5489,3.5489,3.5489,3.5489,3.5489,3.5489,3.5489,3.5489,3.5489,3.5489,3.5489,3.5489,3.5489,3.5489,3.5489,3.5489,3.5489,3.5489,3.5489,3.5489,3.5489,3.5489,3.5489,3.5489,3.5489,3.5489,3.5489,3.5489,3.5489,3.5489,3.5489,3.5489,3.5489,3.5489,3.5489,3.5489,3.5489,3.5489,3.5489,3.5489,3.5489,3.5489,3.5489,3.5489,3.5489,3.5489,3.5489,3.5489,3.5489,3.5489,3.5489,3.5489,3.5489,3.5489,3.5489,3.5489,3.5489,3.5489,3.5489,3.5489,3.5489,3.5489,3.5489,3.5489,3.5489,3.5489,3.5489,3.5489,3.5489,3.5489,3.5489,3.5489,3.5489,3.5489,3.5489,3.5489,3.5489,3.5504,3.5521,3.5588,3.5671,3.5815,3.5943,3.6148,3.6352,3.6538,3.683,3.7193,3.7533,3.7899,3.5489,3.5489,3.5489,3.5489,3.5489,3.5489,3.5489,3.5489,3.5489,3.5489,3.5489,3.5489,3.5489,3.5489,3.5489,3.5489,3.5489,3.5489,3.5489,3.5489,3.5489,3.5489,3.5489,3.5489,3.5489,3.5489,3.5489,3.5489,3.5489,3.5489,3.5489,3.5489,3.5522,3.5489,3.5489,3.5489,3.5489,3.5489,3.5489,3.5489,3.5489,3.5489,3.5489,3.5489,3.5489,3.5489,3.5489,3.5489,3.5489,3.5489,3.5489,3.5489,3.5489,3.5489,3.5489,3.5489,3.5489,3.5489,3.5489,3.5489,3.5489,3.5489,3.5489,3.5489,3.5489,3.5489,3.5489,3.5489,3.5489,3.5489,3.5489,3.5489,3.5489,3.5489,3.5489,3.5489,3.5489,3.5489,3.5489,3.5489,3.5489,3.5489,3.5489,3.5489,3.5489,3.5489,3.5489,3.5489,3.5489,3.5489,3.5489,3.5489,3.5489,3.5489,3.5489,3.5489,3.5489,3.5489,3.5489,3.5489,3.5489,3.5506,3.5555,3.5604,3.5671,3.5753,3.6022,3.6305,3.6662,3.6907,3.7074,3.7194,3.7432,3.7813,3.8232,3.5489,3.5489,3.5489,3.5489,3.5489,3.5489,3.5489,3.5489,3.5489,3.5489,3.5489,3.5489,3.5489,3.5489,3.5489,3.5489,3.5489,3.5489,3.5489,3.5489,3.5489,3.5489,3.5489,3.5489,3.5489,3.5489,3.5489,3.5489,3.5489,3.5489,3.5538,3.5572,3.5572,3.5636,3.5635,3.5603,3.5489,3.5489,3.5489,3.5489,3.5489,3.5489,3.5489,3.5489,3.5489,3.5489,3.5489,3.5489,3.5489,3.5489,3.5489,3.5489,3.5489,3.5489,3.5489,3.5489,3.5489,3.5489,3.5489,3.5489,3.5489,3.5489,3.5489,3.5489,3.5489,3.5489,3.5489,3.5489,3.5489,3.5489,3.5489,3.5489,3.5489,3.5489,3.5489,3.5489,3.5489,3.5489,3.5489,3.5489,3.5489,3.5489,3.5489,3.5489,3.5489,3.5489,3.5489,3.5489,3.5489,3.5489,3.5489,3.5489,3.5489,3.5489,3.5489,3.5489,3.5489,3.5489,3.5489,3.5489,3.5538,3.5554,3.5621,3.5735,3.5863,3.6054,3.6352,3.6662,3.6997,3.7313,3.7595,3.7683,3.7727,3.8046,3.8474,3.5489,3.5489,3.5489,3.5489,3.5489,3.5489,3.5489,3.5489,3.5489,3.5489,3.5489,3.5489,3.5489,3.5489,3.5489,3.5489,3.5489,3.5489,3.5489,3.5489,3.5489,3.5489,3.5489,3.5521,3.5523,3.5522,3.5554,3.5619,3.5538,3.5603,3.5668,3.5687,3.5734,3.5798,3.5813,3.5717,3.5603,3.5619,3.5619,3.5619,3.5619,3.5587,3.5603,3.5603,3.557,3.5538,3.5522,3.5521,3.5489,3.5489,3.5489,3.5489,3.5489,3.5489,3.5489,3.5489,3.5489,3.5489,3.5489,3.5489,3.5489,3.5489,3.5489,3.5489,3.5489,3.5489,3.5489,3.5489,3.5489,3.5489,3.5489,3.5489,3.5489,3.5489,3.5489,3.5489,3.5489,3.5489,3.5489,3.5489,3.5489,3.5489,3.5489,3.5489,3.5489,3.5489,3.5489,3.5489,3.5489,3.5489,3.5489,3.5489,3.5489,3.5489,3.5489,3.5489,3.5489,3.5489,3.5489,3.5489,3.5538,3.5636,3.5734,3.5863,3.607,3.6336,3.6723,3.7043,3.7328,3.7654,3.8088,3.8142,3.8189,3.8307,3.8658,3.5489,3.5489,3.5489,3.5489,3.5489,3.5489,3.5489,3.5489,3.5489,3.5489,3.5489,3.5489,3.5489,3.5489,3.5489,3.5489,3.5489,3.5489,3.5489,3.5506,3.5538,3.5506,3.5538,3.5604,3.5622,3.5671,3.575,3.5813,3.5861,3.5845,3.5861,3.5926,3.5942,3.599,3.5989,3.591,3.5893,3.5861,3.5876,3.5812,3.5813,3.5828,3.5828,3.5812,3.5701,3.5653,3.5637,3.557,3.5538,3.5521,3.5521,3.5504,3.5489,3.5489,3.5489,3.5489,3.5489,3.5489,3.5489,3.5504,3.5579,3.5654,3.5609,3.5504,3.5489,3.5549,3.5549,3.5489,3.5489,3.5489,3.5489,3.5489,3.5489,3.5489,3.5489,3.5489,3.5489,3.5489,3.5489,3.5489,3.5489,3.5489,3.5489,3.5489,3.5489,3.5489,3.5489,3.5489,3.5489,3.5489,3.5489,3.5489,3.5489,3.5489,3.5489,3.5489,3.5489,3.5489,3.5506,3.5539,3.5621,3.5719,3.5832,3.607,3.6383,3.6754,3.7148,3.7495,3.7906,3.8262,3.8664,3.864,3.8675,3.8984,3.9277,3.5636,3.5588,3.5588,3.5539,3.5504,3.5489,3.5489,3.5489,3.5489,3.5489,3.5489,3.5489,3.5489,3.5489,3.5489,3.5489,3.5489,3.5572,3.5604,3.5604,3.5651,3.5716,3.5749,3.5782,3.583,3.5863,3.5926,3.5973,3.6037,3.6085,3.6085,3.621,3.6226,3.632,3.6398,3.6445,3.6429,3.632,3.6179,3.6068,3.6036,3.6036,3.602,3.602,3.5879,3.5847,3.5831,3.5701,3.57,3.57,3.57,3.5652,3.5588,3.5538,3.5489,3.5549,3.5833,3.5908,3.5998,3.6252,3.6237,3.6237,3.6207,3.6312,3.6043,3.5922,3.5684,3.5489,3.5489,3.5489,3.5489,3.5489,3.5489,3.5489,3.5489,3.5489,3.5489,3.5489,3.5489,3.5489,3.5489,3.5489,3.5489,3.5489,3.5489,3.5489,3.5489,3.5489,3.5489,3.5489,3.5489,3.5489,3.5489,3.5489,3.5489,3.5489,3.5489,3.5538,3.5588,3.5637,3.572,3.5895,3.6101,3.6414,3.6739,3.7135,3.7528,3.8139,3.8611,3.8983,3.9516,3.9868,4.0033,4.0191,4.0502,3.5879,3.572,3.572,3.5669,3.5553,3.5554,3.5554,3.5537,3.5554,3.5522,3.5538,3.5521,3.5554,3.5603,3.5619,3.5603,3.5636,3.5702,3.575,3.5735,3.5846,3.5925,3.5957,3.6037,3.6084,3.6068,3.6132,3.6289,3.6195,3.6289,3.6445,3.6538,3.6631,3.6724,3.6816,3.7079,3.7141,3.7111,3.6877,3.6688,3.6287,3.6132,3.6068,3.6131,3.6099,3.6037,3.6037,3.602,3.6004,3.5989,3.5957,3.5863,3.5917,3.5934,3.5869,3.5925,3.6359,3.6477,3.6641,3.6866,3.7088,3.7208,3.7357,3.718,3.6759,3.643,3.6178,3.6086,3.6146,3.5983,3.5938,3.5848,3.5804,3.5624,3.5489,3.5489,3.5489,3.5489,3.5489,3.5489,3.5489,3.5489,3.5489,3.5504,3.5699,3.5609,3.5684,3.5699,3.5699,3.5714,3.5624,3.5609,3.5504,3.5504,3.5489,3.5489,3.5521,3.5554,3.5637,3.5767,3.5863,3.6116,3.6383,3.6785,3.7214,3.7533,3.7956,3.8697,3.9423,3.9845,4.0428,4.1144,4.1432,4.1486,4.1643,3.5973,3.5926,3.5926,3.591,3.5877,3.5877,3.5877,3.5862,3.5877,3.5798,3.5671,3.5671,3.5734,3.5829,3.5844,3.5844,3.5877,3.591,3.591,3.5942,3.6037,3.6147,3.6115,3.6305,3.6352,3.6461,3.6569,3.6693,3.6708,3.677,3.6831,3.6893,3.7016,3.7154,3.7247,3.7635,3.8025,3.8041,3.8153,3.767,3.708,3.6832,3.6754,3.6724,3.6662,3.6583,3.6473,3.6254,3.6129,3.6004,3.6004,3.6246,3.6654,3.6957,3.7129,3.7201,3.713,3.7216,3.7319,3.7466,3.7597,3.7537,3.7507,3.7417,3.7253,3.7043,3.6924,3.6909,3.6774,3.6552,3.6372,3.6252,3.6118,3.5848,3.5609,3.5609,3.5609,3.5594,3.5594,3.5594,3.5579,3.5594,3.5624,3.5699,3.5818,3.5998,3.6193,3.6282,3.6282,3.6267,3.6028,3.5923,3.5579,3.5519,3.5504,3.5506,3.5522,3.5604,3.5687,3.5832,3.6037,3.6383,3.677,3.7277,3.7719,3.8177,3.8811,3.9656,4.029,4.0743,4.1399,4.2154,4.2651,4.2815,4.2906,3.6273,3.6195,3.6053,3.6004,3.6004,3.6004,3.6004,3.6004,3.6004,3.6021,3.6006,3.5926,3.591,3.5989,3.6004,3.6052,3.6068,3.6178,3.621,3.6242,3.6352,3.6476,3.6538,3.6616,3.6677,3.6785,3.6968,3.709,3.7258,3.7286,3.7316,3.7441,3.7581,3.7894,3.8004,3.8631,3.9088,3.912,3.9548,3.917,3.829,3.812,3.7966,3.7857,3.7763,3.7622,3.7606,3.7448,3.7431,3.732,3.7349,3.7264,3.7548,3.7672,3.7768,3.7837,3.7871,3.7974,3.8032,3.8115,3.8197,3.8182,3.8255,3.8419,3.8464,3.824,3.7701,3.7612,3.7223,3.6985,3.6956,3.6866,3.6836,3.6656,3.6582,3.6582,3.6565,3.6565,3.6565,3.6582,3.6567,3.6567,3.6582,3.6596,3.6701,3.6716,3.6881,3.6896,3.6896,3.6866,3.6611,3.6312,3.6013,3.5639,3.5504,3.5522,3.5539,3.5637,3.5919,3.6146,3.6475,3.68,3.7196,3.7892,3.8556,3.9124,3.981,4.0646,4.1221,4.1675,4.2421,4.3188,4.3573,4.3846,4.3861,3.6677,3.6523,3.6273,3.6132,3.6147,3.6132,3.6163,3.6147,3.6147,3.6304,3.6492,3.6273,3.6132,3.6132,3.6131,3.6131,3.6226,3.646,3.6554,3.6647,3.6846,3.6862,3.6938,3.7044,3.7105,3.7259,3.7488,3.7638,3.7805,3.8083,3.8332,3.8248,3.8624,3.9177,3.9401,3.9848,4.0295,4.0375,4.0568,4.0584,4.0146,3.966,3.9283,3.9172,3.9202,3.9202,3.9171,3.9139,3.9139,3.8978,3.8691,3.8652,3.8593,3.8641,3.8601,3.8684,3.8784,3.8829,3.8863,3.9058,3.9194,3.932,3.9406,3.9376,3.9331,3.9062,3.8524,3.8225,3.7836,3.7612,3.7614,3.7539,3.7509,3.7357,3.7342,3.7345,3.7342,3.7342,3.7357,3.7375,3.736,3.7345,3.7342,3.7372,3.7449,3.7479,3.7539,3.7507,3.7492,3.7464,3.733,3.6941,3.6567,3.6178,3.5878,3.596,3.6129,3.6447,3.6795,3.6796,3.7018,3.77,3.8304,3.878,3.9432,4.0116,4.0867,4.1689,4.2184,4.2582,4.3148,4.3738,4.392,4.4178,4.4462,3.7029,3.6892,3.6816,3.6785,3.6801,3.6816,3.6801,3.6816,3.6801,3.6846,3.6877,3.6877,3.6816,3.6816,3.6816,3.677,3.6723,3.6877,3.6892,3.6954,3.7165,3.7164,3.7302,3.7592,3.7644,3.7938,3.8345,3.8689,3.8885,3.9409,3.9836,3.9859,3.9938,4.0241,4.0353,4.0884,4.1431,4.1528,4.1869,4.2048,4.1681,4.1032,4.0065,3.9877,3.9752,3.9706,3.9659,3.9566,3.9409,3.9392,3.9622,3.9725,3.973,3.973,3.9748,3.9596,3.9695,3.9548,3.9609,3.9594,3.964,3.9496,3.9478,3.9427,3.9397,3.9361,3.9032,3.9047,3.8733,3.8509,3.8437,3.8257,3.8167,3.7793,3.7597,3.7597,3.7612,3.7612,3.7644,3.7644,3.7629,3.7629,3.7627,3.7716,3.7883,3.7988,3.8197,3.8212,3.8212,3.8123,3.8018,3.7691,3.7287,3.7165,3.706,3.7002,3.7148,3.7441,3.7693,3.779,3.8185,3.8952,3.9515,3.9883,4.0539,4.1279,4.2035,4.2596,4.3017,4.3417,4.3813,4.4217,4.4372,4.4597,4.4939]}]]